Wetterdaten: Samstag, 15.12.2018
Datum Zeit Temp. A. Pool Temp. Temp. 5cm Feuchte A. Luftdruck Regen Wind Richtung Richtung Sonnenschein ET UV Solar Taupunkt Windchill Windben Empfang
15.12.2018 00:00 -2,1 C 3,9 C -2,2 C 90 % 1023,5 hPa 0,0 l/m 5,1 km/h (1 Bft) O-NO 74 0 min 0,000 mm 0,0 UV-I 0 W/m -3,5 C -2,1 C 8,0 km/h (2 Bft) 91,67 %
15.12.2018 00:02 -2,2 C 3,9 C -2,2 C 90 % 1023,5 hPa 0,0 l/m 5,6 km/h (1 Bft) O 88 0 min 0,000 mm 0,0 UV-I 0 W/m -3,6 C -2,2 C 8,0 km/h (2 Bft) 94,29 %
15.12.2018 00:04 -2,2 C 3,9 C -2,2 C 90 % 1023,5 hPa 0,0 l/m 5,2 km/h (1 Bft) O 79 0 min 0,000 mm 0,0 UV-I 0 W/m -3,6 C -2,2 C 8,0 km/h (2 Bft) 96,23 %
15.12.2018 00:06 -2,2 C 3,9 C -2,2 C 90 % 1023,4 hPa 0,0 l/m 6,1 km/h (2 Bft) O 82 0 min 0,000 mm 0,0 UV-I 0 W/m -3,6 C -2,2 C 8,0 km/h (2 Bft) 93,62 %
15.12.2018 00:08 -2,2 C 3,9 C -2,2 C 90 % 1023,4 hPa 0,0 l/m 6,1 km/h (2 Bft) O-NO 78 0 min 0,000 mm 0,0 UV-I 0 W/m -3,6 C -2,2 C 8,0 km/h (2 Bft) 96,00 %
15.12.2018 00:10 -2,2 C 3,9 C -2,2 C 90 % 1023,4 hPa 0,0 l/m 3,8 km/h (1 Bft) O 84 0 min 0,000 mm 0,0 UV-I 0 W/m -3,6 C -2,2 C 6,4 km/h (2 Bft) 93,62 %
15.12.2018 00:12 -2,2 C 3,9 C -2,2 C 90 % 1023,4 hPa 0,0 l/m 3,4 km/h (1 Bft) O-NO 59 0 min 0,000 mm 0,0 UV-I 0 W/m -3,6 C -2,2 C 6,4 km/h (2 Bft) 92,11 %
15.12.2018 00:14 -2,2 C 3,9 C -2,2 C 90 % 1023,4 hPa 0,0 l/m 2,8 km/h (1 Bft) O-NO 59 0 min 0,000 mm 0,0 UV-I 0 W/m -3,6 C -2,2 C 4,8 km/h (1 Bft) 96,00 %
15.12.2018 00:16 -2,2 C 3,9 C -2,2 C 90 % 1023,4 hPa 0,0 l/m 2,6 km/h (1 Bft) O-NO 59 0 min 0,000 mm 0,0 UV-I 0 W/m -3,6 C -2,2 C 4,8 km/h (1 Bft) 93,62 %
15.12.2018 00:18 -2,2 C 3,9 C -2,2 C 90 % 1023,4 hPa 0,0 l/m 3,5 km/h (1 Bft) O-NO 59 0 min 0,000 mm 0,0 UV-I 0 W/m -3,6 C -2,2 C 4,8 km/h (1 Bft) 95,74 %
15.12.2018 00:20 -2,2 C 3,9 C -2,2 C 90 % 1023,4 hPa 0,0 l/m 3,6 km/h (1 Bft) O-NO 59 0 min 0,000 mm 0,0 UV-I 0 W/m -3,6 C -2,2 C 4,8 km/h (1 Bft) 98,00 %
15.12.2018 00:22 -2,2 C 3,9 C -2,2 C 90 % 1023,4 hPa 0,0 l/m 3,3 km/h (1 Bft) O-NO 59 0 min 0,000 mm 0,0 UV-I 0 W/m -3,6 C -2,2 C 4,8 km/h (1 Bft) 95,74 %
15.12.2018 00:24 -2,2 C 3,9 C -2,2 C 91 % 1023,4 hPa 0,0 l/m 3,3 km/h (1 Bft) O-NO 59 0 min 0,000 mm 0,0 UV-I 0 W/m -3,5 C -2,2 C 4,8 km/h (1 Bft) 97,87 %
15.12.2018 00:26 -2,2 C 3,9 C -2,2 C 91 % 1023,5 hPa 0,0 l/m 1,9 km/h (1 Bft) O-NO 59 0 min 0,000 mm 0,0 UV-I 0 W/m -3,5 C -2,2 C 4,8 km/h (1 Bft) 91,49 %
15.12.2018 00:28 -2,2 C 3,9 C -2,2 C 91 % 1023,4 hPa 0,0 l/m 3,1 km/h (1 Bft) O-NO 59 0 min 0,000 mm 0,0 UV-I 0 W/m -3,5 C -2,2 C 4,8 km/h (1 Bft) 92,00 %
15.12.2018 00:30 -2,3 C 3,9 C -2,2 C 90 % 1023,5 hPa 0,0 l/m 2,6 km/h (1 Bft) O-NO 59 0 min 0,000 mm 0,0 UV-I 0 W/m -3,7 C -2,3 C 4,8 km/h (1 Bft) 97,22 %
15.12.2018 00:32 -2,3 C 3,9 C -2,2 C 90 % 1023,4 hPa 0,0 l/m 2,2 km/h (1 Bft) O-NO 59 0 min 0,000 mm 0,0 UV-I 0 W/m -3,7 C -2,3 C 3,2 km/h (1 Bft) 97,87 %
15.12.2018 00:34 -2,3 C 3,9 C -2,2 C 90 % 1023,4 hPa 0,0 l/m 3,1 km/h (1 Bft) NO 45 0 min 0,000 mm 0,0 UV-I 0 W/m -3,7 C -2,3 C 4,8 km/h (1 Bft) 97,87 %
15.12.2018 00:36 -2,4 C 3,9 C -2,2 C 90 % 1023,4 hPa 0,0 l/m 3,8 km/h (1 Bft) NO 40 0 min 0,000 mm 0,0 UV-I 0 W/m -3,8 C -2,4 C 4,8 km/h (1 Bft) 98,00 %
15.12.2018 00:38 -2,4 C 3,9 C -2,2 C 90 % 1023,4 hPa 0,0 l/m 3,7 km/h (1 Bft) NO 40 0 min 0,000 mm 0,0 UV-I 0 W/m -3,8 C -2,4 C 4,8 km/h (1 Bft) 97,87 %
15.12.2018 00:40 -2,4 C 3,9 C -2,2 C 90 % 1023,4 hPa 0,0 l/m 3,4 km/h (1 Bft) NO 34 0 min 0,000 mm 0,0 UV-I 0 W/m -3,8 C -2,4 C 4,8 km/h (1 Bft) 97,87 %
15.12.2018 00:42 -2,4 C 3,9 C -2,2 C 90 % 1023,5 hPa 0,0 l/m 4,6 km/h (1 Bft) NO 34 0 min 0,000 mm 0,0 UV-I 0 W/m -3,8 C -2,4 C 6,4 km/h (2 Bft) 96,00 %
15.12.2018 00:44 -2,4 C 3,9 C -2,2 C 89 % 1023,5 hPa 0,0 l/m 3,7 km/h (1 Bft) NO 34 0 min 0,000 mm 0,0 UV-I 0 W/m -4,0 C -2,4 C 4,8 km/h (1 Bft) 95,74 %
15.12.2018 00:46 -2,4 C 3,9 C -2,2 C 89 % 1023,4 hPa 0,0 l/m 3,3 km/h (1 Bft) NO 34 0 min 0,000 mm 0,0 UV-I 0 W/m -4,0 C -2,4 C 4,8 km/h (1 Bft) 97,87 %
15.12.2018 00:48 -2,4 C 3,9 C -2,2 C 89 % 1023,4 hPa 0,0 l/m 3,4 km/h (1 Bft) NO 34 0 min 0,000 mm 0,0 UV-I 0 W/m -4,0 C -2,4 C 4,8 km/h (1 Bft) 100,00 %
15.12.2018 00:50 -2,5 C 3,9 C -2,2 C 89 % 1023,5 hPa 0,0 l/m 3,9 km/h (1 Bft) NO 34 0 min 0,000 mm 0,0 UV-I 0 W/m -4,1 C -2,5 C 6,4 km/h (2 Bft) 100,00 %
15.12.2018 00:52 -2,5 C 3,9 C -2,8 C 89 % 1023,5 hPa 0,0 l/m 3,3 km/h (1 Bft) NO 34 0 min 0,000 mm 0,0 UV-I 0 W/m -4,1 C -2,5 C 4,8 km/h (1 Bft) 97,87 %
15.12.2018 00:54 -2,5 C 3,9 C -2,8 C 89 % 1023,5 hPa 0,0 l/m 4,3 km/h (1 Bft) NO 34 0 min 0,000 mm 0,0 UV-I 0 W/m -4,1 C -2,5 C 6,4 km/h (2 Bft) 100,00 %
15.12.2018 00:56 -2,6 C 3,9 C -2,8 C 89 % 1023,5 hPa 0,0 l/m 3,2 km/h (1 Bft) NO 34 0 min 0,000 mm 0,0 UV-I 0 W/m -4,2 C -2,6 C 4,8 km/h (1 Bft) 97,14 %
15.12.2018 00:58 -2,6 C 3,9 C -2,8 C 89 % 1023,5 hPa 0,0 l/m 3,0 km/h (1 Bft) NO 34 0 min 0,000 mm 0,0 UV-I 0 W/m -4,2 C -2,6 C 4,8 km/h (1 Bft) 97,87 %
15.12.2018 01:00 -2,6 C 3,9 C -2,8 C 89 % 1023,5 hPa 0,0 l/m 3,8 km/h (1 Bft) N-NO 32 0 min 0,000 mm 0,0 UV-I 0 W/m -4,2 C -2,6 C 4,8 km/h (1 Bft) 100,00 %
15.12.2018 01:02 -2,6 C 3,9 C -2,8 C 89 % 1023,5 hPa 0,0 l/m 3,2 km/h (1 Bft) N-NO 32 0 min 0,000 mm 0,0 UV-I 0 W/m -4,2 C -2,6 C 4,8 km/h (1 Bft) 100,00 %
15.12.2018 01:04 -2,6 C 3,9 C -2,8 C 89 % 1023,5 hPa 0,0 l/m 3,2 km/h (1 Bft) N-NO 32 0 min 0,000 mm 0,0 UV-I 0 W/m -4,2 C -2,6 C 4,8 km/h (1 Bft) 100,00 %
15.12.2018 01:06 -2,6 C 3,9 C -2,8 C 89 % 1023,5 hPa 0,0 l/m 2,7 km/h (1 Bft) N-NO 32 0 min 0,000 mm 0,0 UV-I 0 W/m -4,2 C -2,6 C 4,8 km/h (1 Bft) 100,00 %
15.12.2018 01:08 -2,6 C 3,9 C -2,8 C 89 % 1023,5 hPa 0,0 l/m 3,0 km/h (1 Bft) N-NO 32 0 min 0,000 mm 0,0 UV-I 0 W/m -4,2 C -2,6 C 4,8 km/h (1 Bft) 100,00 %
15.12.2018 01:10 -2,6 C 3,9 C -2,8 C 89 % 1023,5 hPa 0,0 l/m 3,5 km/h (1 Bft) N-NO 32 0 min 0,000 mm 0,0 UV-I 0 W/m -4,2 C -2,6 C 4,8 km/h (1 Bft) 97,92 %
15.12.2018 01:12 -2,6 C 3,9 C -2,8 C 89 % 1023,5 hPa 0,0 l/m 2,4 km/h (1 Bft) N-NO 32 0 min 0,000 mm 0,0 UV-I 0 W/m -4,2 C -2,6 C 3,2 km/h (1 Bft) 100,00 %
15.12.2018 01:14 -2,6 C 3,9 C -2,8 C 89 % 1023,5 hPa 0,0 l/m 2,5 km/h (1 Bft) N-NO 32 0 min 0,000 mm 0,0 UV-I 0 W/m -4,2 C -2,6 C 3,2 km/h (1 Bft) 95,74 %
15.12.2018 01:16 -2,6 C 3,9 C -2,8 C 89 % 1023,6 hPa 0,0 l/m 2,6 km/h (1 Bft) N-NO 32 0 min 0,000 mm 0,0 UV-I 0 W/m -4,2 C -2,6 C 4,8 km/h (1 Bft) 97,87 %
15.12.2018 01:18 -2,6 C 3,9 C -2,8 C 88 % 1023,6 hPa 0,0 l/m 2,1 km/h (1 Bft) N-NO 32 0 min 0,000 mm 0,0 UV-I 0 W/m -4,3 C -2,6 C 4,8 km/h (1 Bft) 100,00 %
15.12.2018 01:20 -2,6 C 3,9 C -2,8 C 89 % 1023,6 hPa 0,0 l/m 1,0 km/h (0 Bft) N-NO 32 0 min 0,000 mm 0,0 UV-I 0 W/m -4,2 C -2,6 C 1,6 km/h (1 Bft) 98,00 %
15.12.2018 01:22 -2,6 C 3,9 C -2,8 C 89 % 1023,6 hPa 0,0 l/m 1,7 km/h (1 Bft) N-NO 32 0 min 0,000 mm 0,0 UV-I 0 W/m -4,2 C -2,6 C 3,2 km/h (1 Bft) 97,14 %
15.12.2018 01:24 -2,6 C 3,9 C -2,8 C 88 % 1023,7 hPa 0,0 l/m 1,1 km/h (1 Bft) N-NO 32 0 min 0,000 mm 0,0 UV-I 0 W/m -4,3 C -2,6 C 1,6 km/h (1 Bft) 100,00 %
15.12.2018 01:26 -2,6 C 3,9 C -2,8 C 88 % 1023,7 hPa 0,0 l/m 1,9 km/h (1 Bft) N-NO 32 0 min 0,000 mm 0,0 UV-I 0 W/m -4,3 C -2,6 C 3,2 km/h (1 Bft) 100,00 %
15.12.2018 01:28 -2,6 C 3,9 C -2,8 C 88 % 1023,7 hPa 0,0 l/m 1,6 km/h (1 Bft) N-NO 32 0 min 0,000 mm 0,0 UV-I 0 W/m -4,3 C -2,6 C 3,2 km/h (1 Bft) 97,87 %
15.12.2018 01:30 -2,6 C 3,9 C -2,8 C 89 % 1023,6 hPa 0,0 l/m 2,0 km/h (1 Bft) N-NO 32 0 min 0,000 mm 0,0 UV-I 0 W/m -4,2 C -2,6 C 3,2 km/h (1 Bft) 100,00 %
15.12.2018 01:32 -2,7 C 3,9 C -2,8 C 89 % 1023,7 hPa 0,0 l/m 2,9 km/h (1 Bft) N-NO 32 0 min 0,000 mm 0,0 UV-I 0 W/m -4,3 C -2,7 C 3,2 km/h (1 Bft) 100,00 %
15.12.2018 01:34 -2,7 C 3,9 C -2,8 C 89 % 1023,7 hPa 0,0 l/m 2,8 km/h (1 Bft) N-NO 32 0 min 0,000 mm 0,0 UV-I 0 W/m -4,3 C -2,7 C 3,2 km/h (1 Bft) 97,87 %
15.12.2018 01:36 -2,7 C 3,9 C -2,8 C 89 % 1023,7 hPa 0,0 l/m 2,3 km/h (1 Bft) N-NO 32 0 min 0,000 mm 0,0 UV-I 0 W/m -4,3 C -2,7 C 3,2 km/h (1 Bft) 100,00 %
15.12.2018 01:38 -2,7 C 3,9 C -2,8 C 89 % 1023,7 hPa 0,0 l/m 2,0 km/h (1 Bft) N-NO 32 0 min 0,000 mm 0,0 UV-I 0 W/m -4,3 C -2,7 C 3,2 km/h (1 Bft) 97,87 %
15.12.2018 01:40 -2,7 C 3,9 C -2,8 C 89 % 1023,7 hPa 0,0 l/m 2,7 km/h (1 Bft) N-NO 32 0 min 0,000 mm 0,0 UV-I 0 W/m -4,3 C -2,7 C 4,8 km/h (1 Bft) 96,00 %
15.12.2018 01:42 -2,7 C 3,9 C -2,8 C 88 % 1023,7 hPa 0,0 l/m 2,5 km/h (1 Bft) N-NO 32 0 min 0,000 mm 0,0 UV-I 0 W/m -4,4 C -2,7 C 3,2 km/h (1 Bft) 95,74 %
15.12.2018 01:44 -2,7 C 3,9 C -2,8 C 88 % 1023,7 hPa 0,0 l/m 2,1 km/h (1 Bft) N-NO 32 0 min 0,000 mm 0,0 UV-I 0 W/m -4,4 C -2,7 C 3,2 km/h (1 Bft) 97,22 %
15.12.2018 01:46 -2,6 C 3,9 C -2,8 C 88 % 1023,8 hPa 0,0 l/m 1,6 km/h (1 Bft) N-NO 32 0 min 0,000 mm 0,0 UV-I 0 W/m -4,3 C -2,6 C 3,2 km/h (1 Bft) 96,15 %
15.12.2018 01:48 -2,6 C 3,9 C -2,8 C 89 % 1023,8 hPa 0,0 l/m 2,1 km/h (1 Bft) N-NO 32 0 min 0,000 mm 0,0 UV-I 0 W/m -4,2 C -2,6 C 3,2 km/h (1 Bft) 95,83 %
15.12.2018 01:50 -2,6 C 3,9 C -2,8 C 89 % 1023,8 hPa 0,0 l/m 1,6 km/h (1 Bft) N-NO 32 0 min 0,000 mm 0,0 UV-I 0 W/m -4,2 C -2,6 C 3,2 km/h (1 Bft) 93,62 %
15.12.2018 01:52 -2,6 C 3,9 C -2,8 C 88 % 1023,8 hPa 0,0 l/m 1,9 km/h (1 Bft) N-NO 32 0 min 0,000 mm 0,0 UV-I 0 W/m -4,3 C -2,6 C 3,2 km/h (1 Bft) 95,74 %
15.12.2018 01:54 -2,6 C 3,9 C -2,8 C 88 % 1023,8 hPa 0,0 l/m 2,1 km/h (1 Bft) N-NO 32 0 min 0,000 mm 0,0 UV-I 0 W/m -4,3 C -2,6 C 3,2 km/h (1 Bft) 93,62 %
15.12.2018 01:56 -2,6 C 3,9 C -2,8 C 88 % 1023,8 hPa 0,0 l/m 1,0 km/h (0 Bft) N-NO 32 0 min 0,000 mm 0,0 UV-I 0 W/m -4,3 C -2,6 C 1,6 km/h (1 Bft) 96,00 %
15.12.2018 01:58 -2,6 C 3,9 C -2,8 C 88 % 1023,9 hPa 0,0 l/m 1,1 km/h (1 Bft) N-NO 32 0 min 0,000 mm 0,0 UV-I 0 W/m -4,3 C -2,6 C 1,6 km/h (1 Bft) 95,74 %
15.12.2018 02:00 -2,6 C 3,9 C -2,8 C 88 % 1023,9 hPa 0,0 l/m 1,6 km/h (1 Bft) N-NO 32 0 min 0,000 mm 0,0 UV-I 0 W/m -4,3 C -2,6 C 3,2 km/h (1 Bft) 95,74 %
15.12.2018 02:02 -2,6 C 3,9 C -2,8 C 88 % 1024,0 hPa 0,0 l/m 1,8 km/h (1 Bft) N-NO 32 0 min 0,000 mm 0,0 UV-I 0 W/m -4,3 C -2,6 C 3,2 km/h (1 Bft) 94,74 %
15.12.2018 02:04 -2,7 C 3,9 C -2,8 C 88 % 1024,0 hPa 0,0 l/m 1,4 km/h (1 Bft) N-NO 32 0 min 0,000 mm 0,0 UV-I 0 W/m -4,4 C -2,7 C 3,2 km/h (1 Bft) 96,00 %
15.12.2018 02:06 -2,7 C 3,9 C -2,8 C 89 % 1024,1 hPa 0,0 l/m 1,9 km/h (1 Bft) N-NO 32 0 min 0,000 mm 0,0 UV-I 0 W/m -4,3 C -2,7 C 3,2 km/h (1 Bft) 97,87 %
15.12.2018 02:08 -2,7 C 3,9 C -2,8 C 88 % 1024,1 hPa 0,0 l/m 2,1 km/h (1 Bft) N-NO 32 0 min 0,000 mm 0,0 UV-I 0 W/m -4,4 C -2,7 C 3,2 km/h (1 Bft) 93,62 %
15.12.2018 02:10 -2,7 C 3,9 C -2,8 C 88 % 1024,1 hPa 0,0 l/m 1,9 km/h (1 Bft) N-NO 32 0 min 0,000 mm 0,0 UV-I 0 W/m -4,4 C -2,7 C 3,2 km/h (1 Bft) 95,74 %
15.12.2018 02:12 -2,7 C 3,9 C -2,8 C 88 % 1024,1 hPa 0,0 l/m 1,3 km/h (1 Bft) N-NO 32 0 min 0,000 mm 0,0 UV-I 0 W/m -4,4 C -2,7 C 3,2 km/h (1 Bft) 98,00 %
15.12.2018 02:14 -2,7 C 3,9 C -2,8 C 88 % 1024,1 hPa 0,0 l/m 1,0 km/h (0 Bft) N-NO 32 0 min 0,000 mm 0,0 UV-I 0 W/m -4,4 C -2,7 C 1,6 km/h (1 Bft) 97,87 %
15.12.2018 02:16 -2,7 C 3,9 C -2,8 C 88 % 1024,1 hPa 0,0 l/m 0,9 km/h (0 Bft) N-NO 32 0 min 0,000 mm 0,0 UV-I 0 W/m -4,4 C -2,7 C 1,6 km/h (1 Bft) 97,87 %
15.12.2018 02:18 -2,7 C 3,9 C -2,8 C 88 % 1024,1 hPa 0,0 l/m 0,7 km/h (0 Bft) N-NO 32 0 min 0,000 mm 0,0 UV-I 0 W/m -4,4 C -2,7 C 1,6 km/h (1 Bft) 97,37 %
15.12.2018 02:20 -2,7 C 3,9 C -2,8 C 88 % 1024,1 hPa 0,0 l/m 0,3 km/h (0 Bft) N-NO 32 0 min 0,000 mm 0,0 UV-I 0 W/m -4,4 C -2,7 C 1,6 km/h (1 Bft) 95,83 %
15.12.2018 02:22 -2,7 C 3,9 C -3,3 C 88 % 1024,2 hPa 0,0 l/m 0,1 km/h (0 Bft) N-NO 32 0 min 0,000 mm 0,0 UV-I 0 W/m -4,4 C -2,7 C 1,6 km/h (1 Bft) 97,87 %
15.12.2018 02:24 -2,7 C 3,9 C -3,3 C 88 % 1024,2 hPa 0,0 l/m 0,7 km/h (0 Bft) N-NO 32 0 min 0,000 mm 0,0 UV-I 0 W/m -4,4 C -2,7 C 1,6 km/h (1 Bft) 97,87 %
15.12.2018 02:26 -2,7 C 3,9 C -3,3 C 88 % 1024,2 hPa 0,0 l/m 1,1 km/h (1 Bft) N-NO 32 0 min 0,000 mm 0,0 UV-I 0 W/m -4,4 C -2,7 C 1,6 km/h (1 Bft) 97,87 %
15.12.2018 02:28 -2,8 C 3,9 C -3,3 C 89 % 1024,2 hPa 0,0 l/m 1,5 km/h (1 Bft) N-NO 32 0 min 0,000 mm 0,0 UV-I 0 W/m -4,4 C -2,8 C 1,6 km/h (1 Bft) 97,87 %
15.12.2018 02:30 -2,8 C 3,9 C -3,3 C 89 % 1024,2 hPa 0,0 l/m 0,6 km/h (0 Bft) N-NO 32 0 min 0,000 mm 0,0 UV-I 0 W/m -4,4 C -2,8 C 1,6 km/h (1 Bft) 97,87 %
15.12.2018 02:32 -2,8 C 3,9 C -3,3 C 89 % 1024,2 hPa 0,0 l/m 0,1 km/h (0 Bft) N-NO 32 0 min 0,000 mm 0,0 UV-I 0 W/m -4,4 C -2,8 C 1,6 km/h (1 Bft) 98,00 %
15.12.2018 02:34 -2,8 C 3,9 C -3,3 C 89 % 1024,2 hPa 0,0 l/m 0,0 km/h (0 Bft) N-NO 32 0 min 0,000 mm 0,0 UV-I 0 W/m -4,4 C -2,8 C 0,0 km/h (0 Bft) 97,87 %
15.12.2018 02:36 -2,8 C 3,9 C -3,3 C 90 % 1024,2 hPa 0,0 l/m 1,1 km/h (1 Bft) N-NO 32 0 min 0,000 mm 0,0 UV-I 0 W/m -4,2 C -2,8 C 1,6 km/h (1 Bft) 98,00 %
15.12.2018 02:38 -2,9 C 3,9 C -3,3 C 90 % 1024,2 hPa 0,0 l/m 1,4 km/h (1 Bft) N-NO 32 0 min 0,000 mm 0,0 UV-I 0 W/m -4,3 C -2,9 C 1,6 km/h (1 Bft) 100,00 %
15.12.2018 02:40 -2,9 C 3,9 C -3,3 C 90 % 1024,2 hPa 0,0 l/m 1,4 km/h (1 Bft) N-NO 32 0 min 0,000 mm 0,0 UV-I 0 W/m -4,3 C -2,9 C 1,6 km/h (1 Bft) 97,87 %
15.12.2018 02:42 -2,9 C 3,9 C -3,3 C 90 % 1024,2 hPa 0,0 l/m 1,0 km/h (0 Bft) N-NO 32 0 min 0,000 mm 0,0 UV-I 0 W/m -4,3 C -2,9 C 1,6 km/h (1 Bft) 97,87 %
15.12.2018 02:44 -2,9 C 3,9 C -3,3 C 90 % 1024,3 hPa 0,0 l/m 1,1 km/h (1 Bft) N-NO 32 0 min 0,000 mm 0,0 UV-I 0 W/m -4,3 C -2,9 C 1,6 km/h (1 Bft) 100,00 %
15.12.2018 02:46 -2,9 C 3,9 C -3,3 C 90 % 1024,3 hPa 0,0 l/m 0,9 km/h (0 Bft) N-NO 32 0 min 0,000 mm 0,0 UV-I 0 W/m -4,3 C -2,9 C 1,6 km/h (1 Bft) 100,00 %
15.12.2018 02:48 -2,9 C 3,9 C -3,3 C 90 % 1024,3 hPa 0,0 l/m 1,0 km/h (0 Bft) N-NO 32 0 min 0,000 mm 0,0 UV-I 0 W/m -4,3 C -2,9 C 1,6 km/h (1 Bft) 98,00 %
15.12.2018 02:50 -2,9 C 3,9 C -3,3 C 91 % 1024,3 hPa 0,0 l/m 1,2 km/h (1 Bft) N-NO 32 0 min 0,000 mm 0,0 UV-I 0 W/m -4,2 C -2,9 C 1,6 km/h (1 Bft) 100,00 %
15.12.2018 02:52 -2,9 C 3,9 C -3,3 C 91 % 1024,3 hPa 0,0 l/m 1,2 km/h (1 Bft) N-NO 32 0 min 0,000 mm 0,0 UV-I 0 W/m -4,2 C -2,9 C 1,6 km/h (1 Bft) 97,87 %
15.12.2018 02:54 -2,9 C 3,9 C -3,3 C 91 % 1024,3 hPa 0,0 l/m 0,6 km/h (0 Bft) N-NO 32 0 min 0,000 mm 0,0 UV-I 0 W/m -4,2 C -2,9 C 1,6 km/h (1 Bft) 95,74 %
15.12.2018 02:56 -2,9 C 3,9 C -3,3 C 91 % 1024,3 hPa 0,0 l/m 1,3 km/h (1 Bft) N-NO 32 0 min 0,000 mm 0,0 UV-I 0 W/m -4,2 C -2,9 C 1,6 km/h (1 Bft) 96,00 %
15.12.2018 02:58 -2,9 C 3,9 C -3,3 C 90 % 1024,2 hPa 0,0 l/m 1,3 km/h (1 Bft) N-NO 32 0 min 0,000 mm 0,0 UV-I 0 W/m -4,3 C -2,9 C 1,6 km/h (1 Bft) 98,00 %
15.12.2018 03:00 -2,8 C 3,9 C -3,3 C 90 % 1024,3 hPa 0,0 l/m 1,5 km/h (1 Bft) N-NO 32 0 min 0,000 mm 0,0 UV-I 0 W/m -4,2 C -2,8 C 3,2 km/h (1 Bft) 91,67 %
15.12.2018 03:02 -2,8 C 3,9 C -2,8 C 90 % 1024,3 hPa 0,0 l/m 1,7 km/h (1 Bft) N-NO 32 0 min 0,000 mm 0,0 UV-I 0 W/m -4,2 C -2,8 C 3,2 km/h (1 Bft) 94,00 %
15.12.2018 03:04 -2,8 C 3,9 C -2,8 C 89 % 1024,2 hPa 0,0 l/m 2,2 km/h (1 Bft) N-NO 32 0 min 0,000 mm 0,0 UV-I 0 W/m -4,4 C -2,8 C 3,2 km/h (1 Bft) 95,74 %
15.12.2018 03:06 -2,8 C 3,9 C -2,8 C 89 % 1024,3 hPa 0,0 l/m 2,4 km/h (1 Bft) N-NO 33 0 min 0,000 mm 0,0 UV-I 0 W/m -4,4 C -2,8 C 3,2 km/h (1 Bft) 91,49 %
15.12.2018 03:08 -2,8 C 3,9 C -2,8 C 89 % 1024,2 hPa 0,0 l/m 2,0 km/h (1 Bft) NO 34 0 min 0,000 mm 0,0 UV-I 0 W/m -4,4 C -2,8 C 3,2 km/h (1 Bft) 95,74 %
15.12.2018 03:10 -2,8 C 3,9 C -2,8 C 89 % 1024,2 hPa 0,0 l/m 2,8 km/h (1 Bft) NO 35 0 min 0,000 mm 0,0 UV-I 0 W/m -4,4 C -2,8 C 4,8 km/h (1 Bft) 93,62 %
15.12.2018 03:12 -2,8 C 3,9 C -2,8 C 89 % 1024,2 hPa 0,0 l/m 2,0 km/h (1 Bft) NO 36 0 min 0,000 mm 0,0 UV-I 0 W/m -4,4 C -2,8 C 3,2 km/h (1 Bft) 94,00 %
15.12.2018 03:14 -2,8 C 3,9 C -2,8 C 89 % 1024,2 hPa 0,0 l/m 2,0 km/h (1 Bft) NO 36 0 min 0,000 mm 0,0 UV-I 0 W/m -4,4 C -2,8 C 3,2 km/h (1 Bft) 96,00 %
15.12.2018 03:16 -2,8 C 3,9 C -2,8 C 89 % 1024,3 hPa 0,0 l/m 2,3 km/h (1 Bft) NO 36 0 min 0,000 mm 0,0 UV-I 0 W/m -4,4 C -2,8 C 3,2 km/h (1 Bft) 95,74 %
15.12.2018 03:18 -2,8 C 3,9 C -2,8 C 89 % 1024,3 hPa 0,0 l/m 0,7 km/h (0 Bft) NO 36 0 min 0,000 mm 0,0 UV-I 0 W/m -4,4 C -2,8 C 3,2 km/h (1 Bft) 95,74 %
15.12.2018 03:20 -2,8 C 3,9 C -2,8 C 89 % 1024,3 hPa 0,0 l/m 0,0 km/h (0 Bft) NO 36 0 min 0,000 mm 0,0 UV-I 0 W/m -4,4 C -2,8 C 0,0 km/h (0 Bft) 97,14 %
15.12.2018 03:22 -2,8 C 3,9 C -2,8 C 89 % 1024,3 hPa 0,0 l/m 0,0 km/h (0 Bft) NO 36 0 min 0,000 mm 0,0 UV-I 0 W/m -4,4 C -2,8 C 0,0 km/h (0 Bft) 94,34 %
15.12.2018 03:24 -2,8 C 3,9 C -2,8 C 89 % 1024,3 hPa 0,0 l/m 0,0 km/h (0 Bft) NO 36 0 min 0,000 mm 0,0 UV-I 0 W/m -4,4 C -2,8 C 0,0 km/h (0 Bft) 91,49 %
15.12.2018 03:26 -2,8 C 3,9 C -2,8 C 89 % 1024,3 hPa 0,0 l/m 0,0 km/h (0 Bft) NO 36 0 min 0,000 mm 0,0 UV-I 0 W/m -4,4 C -2,8 C 0,0 km/h (0 Bft) 95,74 %
15.12.2018 03:28 -2,8 C 3,9 C -2,8 C 89 % 1024,3 hPa 0,0 l/m 0,0 km/h (0 Bft) NO 36 0 min 0,000 mm 0,0 UV-I 0 W/m -4,4 C -2,8 C 0,0 km/h (0 Bft) 95,74 %
15.12.2018 03:30 -2,8 C 3,9 C -2,8 C 89 % 1024,2 hPa 0,0 l/m 0,0 km/h (0 Bft) NO 36 0 min 0,000 mm 0,0 UV-I 0 W/m -4,4 C -2,8 C 0,0 km/h (0 Bft) 97,87 %
15.12.2018 03:32 -2,8 C 3,9 C -2,8 C 89 % 1024,2 hPa 0,0 l/m 0,0 km/h (0 Bft) NO 36 0 min 0,000 mm 0,0 UV-I 0 W/m -4,4 C -2,8 C 0,0 km/h (0 Bft) 97,87 %
15.12.2018 03:34 -2,8 C 3,9 C -2,8 C 89 % 1024,2 hPa 0,0 l/m 0,0 km/h (0 Bft) NO 36 0 min 0,000 mm 0,0 UV-I 0 W/m -4,4 C -2,8 C 0,0 km/h (0 Bft) 95,74 %
15.12.2018 03:36 -2,8 C 3,9 C -2,8 C 89 % 1024,2 hPa 0,0 l/m 0,0 km/h (0 Bft) NO 36 0 min 0,000 mm 0,0 UV-I 0 W/m -4,4 C -2,8 C 0,0 km/h (0 Bft) 97,87 %
15.12.2018 03:38 -2,8 C 3,9 C -2,8 C 90 % 1024,2 hPa 0,0 l/m 0,0 km/h (0 Bft) NO 36 0 min 0,000 mm 0,0 UV-I 0 W/m -4,2 C -2,8 C 0,0 km/h (0 Bft) 97,87 %
15.12.2018 03:40 -2,8 C 3,9 C -2,8 C 90 % 1024,2 hPa 0,0 l/m 0,0 km/h (0 Bft) NO 36 0 min 0,000 mm 0,0 UV-I 0 W/m -4,2 C -2,8 C 0,0 km/h (0 Bft) 97,92 %
15.12.2018 03:42 -2,8 C 3,9 C -2,8 C 90 % 1024,2 hPa 0,0 l/m 0,0 km/h (0 Bft) NO 36 0 min 0,000 mm 0,0 UV-I 0 W/m -4,2 C -2,8 C 0,0 km/h (0 Bft) 97,87 %
15.12.2018 03:44 -2,8 C 3,9 C -2,8 C 90 % 1024,3 hPa 0,0 l/m 0,0 km/h (0 Bft) NO 36 0 min 0,000 mm 0,0 UV-I 0 W/m -4,2 C -2,8 C 0,0 km/h (0 Bft) 98,00 %
15.12.2018 03:46 -2,8 C 3,9 C -2,8 C 90 % 1024,3 hPa 0,0 l/m 0,0 km/h (0 Bft) NO 36 0 min 0,000 mm 0,0 UV-I 0 W/m -4,2 C -2,8 C 0,0 km/h (0 Bft) 95,74 %
15.12.2018 03:48 -2,8 C 3,9 C -2,8 C 90 % 1024,3 hPa 0,0 l/m 0,0 km/h (0 Bft) NO 36 0 min 0,000 mm 0,0 UV-I 0 W/m -4,2 C -2,8 C 0,0 km/h (0 Bft) 97,87 %
15.12.2018 03:50 -2,8 C 3,9 C -2,8 C 90 % 1024,3 hPa 0,0 l/m 0,0 km/h (0 Bft) NO 36 0 min 0,000 mm 0,0 UV-I 0 W/m -4,2 C -2,8 C 0,0 km/h (0 Bft) 95,65 %
15.12.2018 03:52 -2,8 C 3,9 C -2,8 C 90 % 1024,3 hPa 0,0 l/m 0,0 km/h (0 Bft) NO 36 0 min 0,000 mm 0,0 UV-I 0 W/m -4,2 C -2,8 C 0,0 km/h (0 Bft) 96,77 %
15.12.2018 03:54 -2,8 C 3,9 C -2,8 C 91 % 1024,4 hPa 0,0 l/m 0,0 km/h (0 Bft) NO 36 0 min 0,000 mm 0,0 UV-I 0 W/m -4,1 C -2,8 C 0,0 km/h (0 Bft) 97,87 %
15.12.2018 03:56 -2,8 C 3,9 C -2,8 C 90 % 1024,4 hPa 0,0 l/m 0,7 km/h (0 Bft) NO 36 0 min 0,000 mm 0,0 UV-I 0 W/m -4,2 C -2,8 C 1,6 km/h (1 Bft) 97,92 %
15.12.2018 03:58 -2,8 C 3,9 C -2,8 C 90 % 1024,4 hPa 0,0 l/m 2,0 km/h (1 Bft) NO 36 0 min 0,000 mm 0,0 UV-I 0 W/m -4,2 C -2,8 C 3,2 km/h (1 Bft) 100,00 %
15.12.2018 04:00 -2,8 C 3,9 C -2,8 C 90 % 1024,4 hPa 0,0 l/m 1,6 km/h (1 Bft) NO 36 0 min 0,000 mm 0,0 UV-I 0 W/m -4,2 C -2,8 C 3,2 km/h (1 Bft) 95,74 %
15.12.2018 04:02 -2,8 C 3,9 C -2,8 C 91 % 1024,4 hPa 0,0 l/m 1,3 km/h (1 Bft) NO 36 0 min 0,000 mm 0,0 UV-I 0 W/m -4,1 C -2,8 C 1,6 km/h (1 Bft) 94,12 %
15.12.2018 04:04 -2,8 C 3,9 C -2,8 C 91 % 1024,4 hPa 0,0 l/m 0,8 km/h (0 Bft) NO 36 0 min 0,000 mm 0,0 UV-I 0 W/m -4,1 C -2,8 C 1,6 km/h (1 Bft) 97,87 %
15.12.2018 04:06 -2,8 C 3,9 C -2,8 C 91 % 1024,3 hPa 0,0 l/m 1,8 km/h (1 Bft) NO 36 0 min 0,000 mm 0,0 UV-I 0 W/m -4,1 C -2,8 C 3,2 km/h (1 Bft) 96,00 %
15.12.2018 04:08 -2,8 C 3,9 C -2,8 C 91 % 1024,4 hPa 0,0 l/m 2,4 km/h (1 Bft) NO 36 0 min 0,000 mm 0,0 UV-I 0 W/m -4,1 C -2,8 C 3,2 km/h (1 Bft) 93,62 %
15.12.2018 04:10 -2,9 C 3,9 C -2,8 C 91 % 1024,4 hPa 0,0 l/m 2,1 km/h (1 Bft) NO 36 0 min 0,000 mm 0,0 UV-I 0 W/m -4,2 C -2,9 C 3,2 km/h (1 Bft) 93,62 %
15.12.2018 04:12 -2,9 C 3,9 C -2,8 C 91 % 1024,4 hPa 0,0 l/m 2,2 km/h (1 Bft) NO 35 0 min 0,000 mm 0,0 UV-I 0 W/m -4,2 C -2,9 C 3,2 km/h (1 Bft) 94,00 %
15.12.2018 04:14 -2,8 C 3,9 C -2,8 C 91 % 1024,5 hPa 0,0 l/m 2,4 km/h (1 Bft) NO 35 0 min 0,000 mm 0,0 UV-I 0 W/m -4,1 C -2,8 C 3,2 km/h (1 Bft) 92,68 %
15.12.2018 04:16 -2,8 C 3,9 C -2,8 C 91 % 1024,5 hPa 0,0 l/m 2,2 km/h (1 Bft) NO 35 0 min 0,000 mm 0,0 UV-I 0 W/m -4,1 C -2,8 C 3,2 km/h (1 Bft) 93,62 %
15.12.2018 04:18 -2,8 C 3,9 C -2,8 C 91 % 1024,5 hPa 0,0 l/m 2,2 km/h (1 Bft) NO 35 0 min 0,000 mm 0,0 UV-I 0 W/m -4,1 C -2,8 C 3,2 km/h (1 Bft) 91,49 %
15.12.2018 04:20 -2,8 C 3,9 C -2,8 C 91 % 1024,5 hPa 0,0 l/m 2,6 km/h (1 Bft) W-NW 295 0 min 0,000 mm 0,0 UV-I 0 W/m -4,1 C -2,8 C 4,8 km/h (1 Bft) 95,74 %
15.12.2018 04:22 -2,8 C 3,9 C -2,8 C 91 % 1024,5 hPa 0,0 l/m 2,8 km/h (1 Bft) W-NW 295 0 min 0,000 mm 0,0 UV-I 0 W/m -4,1 C -2,8 C 4,8 km/h (1 Bft) 94,00 %
15.12.2018 04:24 -2,8 C 3,9 C -2,8 C 91 % 1024,5 hPa 0,0 l/m 3,1 km/h (1 Bft) W-NW 295 0 min 0,000 mm 0,0 UV-I 0 W/m -4,1 C -2,8 C 4,8 km/h (1 Bft) 94,29 %
15.12.2018 04:26 -2,8 C 3,9 C -2,8 C 91 % 1024,5 hPa 0,0 l/m 2,9 km/h (1 Bft) W-NW 295 0 min 0,000 mm 0,0 UV-I 0 W/m -4,1 C -2,8 C 4,8 km/h (1 Bft) 96,23 %
15.12.2018 04:28 -2,8 C 3,9 C -2,8 C 91 % 1024,5 hPa 0,0 l/m 2,3 km/h (1 Bft) W-NW 295 0 min 0,000 mm 0,0 UV-I 0 W/m -4,1 C -2,8 C 3,2 km/h (1 Bft) 91,49 %
15.12.2018 04:30 -2,9 C 3,9 C -2,8 C 92 % 1024,5 hPa 0,0 l/m 1,2 km/h (1 Bft) W-NW 295 0 min 0,000 mm 0,0 UV-I 0 W/m -4,0 C -2,9 C 3,2 km/h (1 Bft) 96,00 %
15.12.2018 04:32 -2,9 C 3,9 C -2,8 C 92 % 1024,4 hPa 0,0 l/m 1,1 km/h (1 Bft) W-NW 295 0 min 0,000 mm 0,0 UV-I 0 W/m -4,0 C -2,9 C 3,2 km/h (1 Bft) 95,74 %
15.12.2018 04:34 -2,9 C 3,9 C -2,8 C 92 % 1024,5 hPa 0,0 l/m 0,1 km/h (0 Bft) W-NW 295 0 min 0,000 mm 0,0 UV-I 0 W/m -4,0 C -2,9 C 1,6 km/h (1 Bft) 96,00 %
15.12.2018 04:36 -2,9 C 3,9 C -2,8 C 92 % 1024,4 hPa 0,0 l/m 0,8 km/h (0 Bft) W-NW 295 0 min 0,000 mm 0,0 UV-I 0 W/m -4,0 C -2,9 C 3,2 km/h (1 Bft) 97,37 %
15.12.2018 04:38 -2,9 C 3,9 C -2,8 C 92 % 1024,5 hPa 0,0 l/m 1,4 km/h (1 Bft) W-NW 295 0 min 0,000 mm 0,0 UV-I 0 W/m -4,0 C -2,9 C 3,2 km/h (1 Bft) 97,87 %
15.12.2018 04:40 -2,9 C 3,9 C -2,8 C 92 % 1024,5 hPa 0,0 l/m 1,6 km/h (1 Bft) W-NW 295 0 min 0,000 mm 0,0 UV-I 0 W/m -4,0 C -2,9 C 3,2 km/h (1 Bft) 100,00 %
15.12.2018 04:42 -2,9 C 3,9 C -2,8 C 92 % 1024,4 hPa 0,0 l/m 1,8 km/h (1 Bft) W-NW 295 0 min 0,000 mm 0,0 UV-I 0 W/m -4,0 C -2,9 C 3,2 km/h (1 Bft) 96,00 %
15.12.2018 04:44 -2,9 C 3,9 C -2,8 C 92 % 1024,6 hPa 0,0 l/m 1,8 km/h (1 Bft) W-NW 295 0 min 0,000 mm 0,0 UV-I 0 W/m -4,0 C -2,9 C 3,2 km/h (1 Bft) 100,00 %
15.12.2018 04:46 -2,9 C 3,9 C -2,8 C 92 % 1024,6 hPa 0,0 l/m 1,6 km/h (1 Bft) W-NW 295 0 min 0,000 mm 0,0 UV-I 0 W/m -4,0 C -2,9 C 3,2 km/h (1 Bft) 95,74 %
15.12.2018 04:48 -2,8 C 3,9 C -2,8 C 92 % 1024,6 hPa 0,0 l/m 1,8 km/h (1 Bft) W-NW 295 0 min 0,000 mm 0,0 UV-I 0 W/m -3,9 C -2,8 C 3,2 km/h (1 Bft) 100,00 %
15.12.2018 04:50 -2,8 C 3,9 C -2,8 C 92 % 1024,5 hPa 0,0 l/m 1,8 km/h (1 Bft) W-NW 295 0 min 0,000 mm 0,0 UV-I 0 W/m -3,9 C -2,8 C 3,2 km/h (1 Bft) 100,00 %
15.12.2018 04:52 -2,8 C 3,9 C -2,8 C 92 % 1024,6 hPa 0,0 l/m 2,0 km/h (1 Bft) W-NW 295 0 min 0,000 mm 0,0 UV-I 0 W/m -3,9 C -2,8 C 3,2 km/h (1 Bft) 100,00 %
15.12.2018 04:54 -2,8 C 3,9 C -2,8 C 92 % 1024,6 hPa 0,0 l/m 1,6 km/h (1 Bft) W-NW 295 0 min 0,000 mm 0,0 UV-I 0 W/m -3,9 C -2,8 C 3,2 km/h (1 Bft) 100,00 %
15.12.2018 04:56 -2,8 C 3,9 C -2,8 C 92 % 1024,6 hPa 0,0 l/m 1,5 km/h (1 Bft) W-NW 295 0 min 0,000 mm 0,0 UV-I 0 W/m -3,9 C -2,8 C 3,2 km/h (1 Bft) 100,00 %
15.12.2018 04:58 -2,8 C 3,9 C -2,8 C 92 % 1024,6 hPa 0,0 l/m 1,0 km/h (0 Bft) W-NW 295 0 min 0,000 mm 0,0 UV-I 0 W/m -3,9 C -2,8 C 1,6 km/h (1 Bft) 100,00 %
15.12.2018 05:00 -2,8 C 3,9 C -2,8 C 92 % 1024,6 hPa 0,0 l/m 1,0 km/h (0 Bft) W-NW 295 0 min 0,000 mm 0,0 UV-I 0 W/m -3,9 C -2,8 C 1,6 km/h (1 Bft) 100,00 %
15.12.2018 05:02 -2,8 C 3,9 C -2,8 C 92 % 1024,6 hPa 0,0 l/m 1,3 km/h (1 Bft) W-NW 295 0 min 0,000 mm 0,0 UV-I 0 W/m -3,9 C -2,8 C 3,2 km/h (1 Bft) 100,00 %
15.12.2018 05:04 -2,9 C 3,9 C -2,8 C 92 % 1024,6 hPa 0,0 l/m 1,6 km/h (1 Bft) W-NW 295 0 min 0,000 mm 0,0 UV-I 0 W/m -4,0 C -2,9 C 3,2 km/h (1 Bft) 97,37 %
15.12.2018 05:06 -2,9 C 3,9 C -2,8 C 92 % 1024,6 hPa 0,0 l/m 1,7 km/h (1 Bft) W-NW 295 0 min 0,000 mm 0,0 UV-I 0 W/m -4,0 C -2,9 C 3,2 km/h (1 Bft) 100,00 %
15.12.2018 05:08 -2,9 C 3,9 C -2,8 C 92 % 1024,6 hPa 0,0 l/m 1,3 km/h (1 Bft) W-NW 295 0 min 0,000 mm 0,0 UV-I 0 W/m -4,0 C -2,9 C 3,2 km/h (1 Bft) 100,00 %
15.12.2018 05:10 -2,9 C 3,9 C -2,8 C 92 % 1024,6 hPa 0,0 l/m 1,1 km/h (1 Bft) W-NW 295 0 min 0,000 mm 0,0 UV-I 0 W/m -4,0 C -2,9 C 1,6 km/h (1 Bft) 100,00 %
15.12.2018 05:12 -2,9 C 3,9 C -2,8 C 92 % 1024,6 hPa 0,0 l/m 1,0 km/h (0 Bft) W-NW 295 0 min 0,000 mm 0,0 UV-I 0 W/m -4,0 C -2,9 C 1,6 km/h (1 Bft) 98,00 %
15.12.2018 05:14 -2,9 C 3,9 C -2,8 C 92 % 1024,6 hPa 0,0 l/m 1,3 km/h (1 Bft) W-NW 295 0 min 0,000 mm 0,0 UV-I 0 W/m -4,0 C -2,9 C 3,2 km/h (1 Bft) 97,87 %
15.12.2018 05:16 -2,8 C 3,9 C -2,8 C 93 % 1024,6 hPa 0,0 l/m 1,1 km/h (1 Bft) W-NW 295 0 min 0,000 mm 0,0 UV-I 0 W/m -3,8 C -2,8 C 1,6 km/h (1 Bft) 100,00 %
15.12.2018 05:18 -2,8 C 3,9 C -2,8 C 93 % 1024,6 hPa 0,0 l/m 0,8 km/h (0 Bft) W-NW 295 0 min 0,000 mm 0,0 UV-I 0 W/m -3,8 C -2,8 C 1,6 km/h (1 Bft) 100,00 %
15.12.2018 05:20 -2,9 C 3,9 C -2,8 C 93 % 1024,6 hPa 0,0 l/m 1,0 km/h (0 Bft) W-NW 295 0 min 0,000 mm 0,0 UV-I 0 W/m -3,9 C -2,9 C 1,6 km/h (1 Bft) 97,37 %
15.12.2018 05:22 -2,8 C 3,9 C -2,8 C 93 % 1024,6 hPa 0,0 l/m 1,1 km/h (1 Bft) W-NW 295 0 min 0,000 mm 0,0 UV-I 0 W/m -3,8 C -2,8 C 1,6 km/h (1 Bft) 95,74 %
15.12.2018 05:24 -2,9 C 3,9 C -2,8 C 93 % 1024,6 hPa 0,0 l/m 1,4 km/h (1 Bft) W-NW 295 0 min 0,000 mm 0,0 UV-I 0 W/m -3,9 C -2,9 C 3,2 km/h (1 Bft) 97,87 %
15.12.2018 05:26 -2,9 C 3,9 C -2,8 C 93 % 1024,6 hPa 0,0 l/m 1,4 km/h (1 Bft) W-NW 295 0 min 0,000 mm 0,0 UV-I 0 W/m -3,9 C -2,9 C 1,6 km/h (1 Bft) 97,87 %
15.12.2018 05:28 -2,8 C 3,9 C -2,8 C 93 % 1024,6 hPa 0,0 l/m 1,1 km/h (1 Bft) W-NW 295 0 min 0,000 mm 0,0 UV-I 0 W/m -3,8 C -2,8 C 1,6 km/h (1 Bft) 95,74 %
15.12.2018 05:30 -2,9 C 3,9 C -2,8 C 93 % 1024,6 hPa 0,0 l/m 0,9 km/h (0 Bft) W-NW 295 0 min 0,000 mm 0,0 UV-I 0 W/m -3,9 C -2,9 C 1,6 km/h (1 Bft) 96,00 %
15.12.2018 05:32 -2,9 C 3,9 C -2,8 C 93 % 1024,6 hPa 0,0 l/m 1,0 km/h (0 Bft) W-NW 295 0 min 0,000 mm 0,0 UV-I 0 W/m -3,9 C -2,9 C 1,6 km/h (1 Bft) 93,62 %
15.12.2018 05:34 -2,9 C 3,9 C -2,8 C 93 % 1024,7 hPa 0,0 l/m 1,9 km/h (1 Bft) W-NW 295 0 min 0,000 mm 0,0 UV-I 0 W/m -3,9 C -2,9 C 3,2 km/h (1 Bft) 95,74 %
15.12.2018 05:36 -2,9 C 3,9 C -2,8 C 93 % 1024,7 hPa 0,0 l/m 1,5 km/h (1 Bft) W-NW 295 0 min 0,000 mm 0,0 UV-I 0 W/m -3,9 C -2,9 C 1,6 km/h (1 Bft) 97,87 %
15.12.2018 05:38 -2,8 C 3,9 C -2,8 C 93 % 1024,7 hPa 0,0 l/m 1,7 km/h (1 Bft) W-NW 295 0 min 0,000 mm 0,0 UV-I 0 W/m -3,8 C -2,8 C 3,2 km/h (1 Bft) 97,87 %
15.12.2018 05:40 -2,8 C 3,9 C -2,8 C 93 % 1024,8 hPa 0,0 l/m 1,8 km/h (1 Bft) W-NW 295 0 min 0,000 mm 0,0 UV-I 0 W/m -3,8 C -2,8 C 3,2 km/h (1 Bft) 97,92 %
15.12.2018 05:42 -2,8 C 3,9 C -2,8 C 93 % 1024,7 hPa 0,0 l/m 1,3 km/h (1 Bft) W-NW 295 0 min 0,000 mm 0,0 UV-I 0 W/m -3,8 C -2,8 C 3,2 km/h (1 Bft) 100,00 %
15.12.2018 05:44 -2,8 C 3,9 C -2,8 C 93 % 1024,8 hPa 0,0 l/m 0,9 km/h (0 Bft) W-NW 295 0 min 0,000 mm 0,0 UV-I 0 W/m -3,8 C -2,8 C 1,6 km/h (1 Bft) 100,00 %
15.12.2018 05:46 -2,8 C 3,9 C -2,8 C 93 % 1024,8 hPa 0,0 l/m 0,8 km/h (0 Bft) W-NW 295 0 min 0,000 mm 0,0 UV-I 0 W/m -3,8 C -2,8 C 1,6 km/h (1 Bft) 100,00 %
15.12.2018 05:48 -2,8 C 3,9 C -2,8 C 93 % 1024,7 hPa 0,0 l/m 0,7 km/h (0 Bft) W-NW 295 0 min 0,000 mm 0,0 UV-I 0 W/m -3,8 C -2,8 C 1,6 km/h (1 Bft) 100,00 %
15.12.2018 05:50 -2,8 C 3,9 C -2,8 C 93 % 1024,8 hPa 0,0 l/m 1,1 km/h (1 Bft) W-NW 295 0 min 0,000 mm 0,0 UV-I 0 W/m -3,8 C -2,8 C 3,2 km/h (1 Bft) 97,87 %
15.12.2018 05:52 -2,8 C 3,9 C -2,8 C 93 % 1024,8 hPa 0,0 l/m 1,1 km/h (1 Bft) W-NW 295 0 min 0,000 mm 0,0 UV-I 0 W/m -3,8 C -2,8 C 1,6 km/h (1 Bft) 97,87 %
15.12.2018 05:54 -2,8 C 3,9 C -2,8 C 93 % 1024,8 hPa 0,0 l/m 0,5 km/h (0 Bft) W-NW 295 0 min 0,000 mm 0,0 UV-I 0 W/m -3,8 C -2,8 C 1,6 km/h (1 Bft) 100,00 %
15.12.2018 05:56 -2,8 C 3,9 C -2,8 C 93 % 1024,8 hPa 0,0 l/m 0,0 km/h (0 Bft) W-NW 295 0 min 0,000 mm 0,0 UV-I 0 W/m -3,8 C -2,8 C 0,0 km/h (0 Bft) 100,00 %
15.12.2018 05:58 -2,9 C 3,9 C -2,8 C 93 % 1024,8 hPa 0,0 l/m 0,4 km/h (0 Bft) W-NW 295 0 min 0,000 mm 0,0 UV-I 0 W/m -3,9 C -2,9 C 3,2 km/h (1 Bft) 97,87 %
15.12.2018 06:00 -2,8 C 3,9 C -2,8 C 93 % 1024,8 hPa 0,0 l/m 1,3 km/h (1 Bft) W-NW 295 0 min 0,000 mm 0,0 UV-I 0 W/m -3,8 C -2,8 C 3,2 km/h (1 Bft) 100,00 %
15.12.2018 06:02 -2,9 C 3,9 C -2,8 C 93 % 1024,8 hPa 0,0 l/m 1,7 km/h (1 Bft) W-NW 295 0 min 0,000 mm 0,0 UV-I 0 W/m -3,9 C -2,9 C 3,2 km/h (1 Bft) 100,00 %
15.12.2018 06:04 -2,9 C 3,9 C -2,8 C 93 % 1024,8 hPa 0,0 l/m 1,4 km/h (1 Bft) W-NW 295 0 min 0,000 mm 0,0 UV-I 0 W/m -3,9 C -2,9 C 3,2 km/h (1 Bft) 100,00 %
15.12.2018 06:06 -2,9 C 3,9 C -2,8 C 93 % 1024,8 hPa 0,0 l/m 1,1 km/h (1 Bft) W-NW 295 0 min 0,000 mm 0,0 UV-I 0 W/m -3,9 C -2,9 C 1,6 km/h (1 Bft) 96,23 %
15.12.2018 06:08 -2,9 C 3,9 C -2,8 C 93 % 1024,8 hPa 0,0 l/m 1,2 km/h (1 Bft) W-NW 295 0 min 0,000 mm 0,0 UV-I 0 W/m -3,9 C -2,9 C 3,2 km/h (1 Bft) 100,00 %
15.12.2018 06:10 -2,9 C 3,9 C -2,8 C 93 % 1024,8 hPa 0,0 l/m 1,8 km/h (1 Bft) W-NW 295 0 min 0,000 mm 0,0 UV-I 0 W/m -3,9 C -2,9 C 3,2 km/h (1 Bft) 100,00 %
15.12.2018 06:12 -2,9 C 3,9 C -2,8 C 93 % 1024,8 hPa 0,0 l/m 1,8 km/h (1 Bft) W-NW 295 0 min 0,000 mm 0,0 UV-I 0 W/m -3,9 C -2,9 C 3,2 km/h (1 Bft) 100,00 %
15.12.2018 06:14 -2,9 C 3,9 C -2,8 C 93 % 1024,8 hPa 0,0 l/m 2,0 km/h (1 Bft) W-NW 295 0 min 0,000 mm 0,0 UV-I 0 W/m -3,9 C -2,9 C 3,2 km/h (1 Bft) 100,00 %
15.12.2018 06:16 -2,9 C 3,9 C -2,8 C 94 % 1024,8 hPa 0,0 l/m 2,5 km/h (1 Bft) W-NW 294 0 min 0,000 mm 0,0 UV-I 0 W/m -3,7 C -2,9 C 4,8 km/h (1 Bft) 100,00 %
15.12.2018 06:18 -2,8 C 3,9 C -2,8 C 94 % 1024,8 hPa 0,0 l/m 2,7 km/h (1 Bft) W-NW 294 0 min 0,000 mm 0,0 UV-I 0 W/m -3,6 C -2,8 C 4,8 km/h (1 Bft) 94,00 %
15.12.2018 06:20 -2,9 C 3,9 C -2,8 C 94 % 1024,8 hPa 0,0 l/m 1,4 km/h (1 Bft) W-NW 294 0 min 0,000 mm 0,0 UV-I 0 W/m -3,7 C -2,9 C 3,2 km/h (1 Bft) 94,87 %
15.12.2018 06:22 -2,9 C 3,9 C -2,8 C 94 % 1024,8 hPa 0,0 l/m 1,6 km/h (1 Bft) W-NW 294 0 min 0,000 mm 0,0 UV-I 0 W/m -3,7 C -2,9 C 3,2 km/h (1 Bft) 97,87 %
15.12.2018 06:24 -2,9 C 3,9 C -2,8 C 94 % 1024,8 hPa 0,0 l/m 2,4 km/h (1 Bft) W-NW 294 0 min 0,000 mm 0,0 UV-I 0 W/m -3,7 C -2,9 C 3,2 km/h (1 Bft) 96,00 %
15.12.2018 06:26 -2,9 C 3,9 C -2,8 C 94 % 1024,8 hPa 0,0 l/m 2,7 km/h (1 Bft) W-NW 294 0 min 0,000 mm 0,0 UV-I 0 W/m -3,7 C -2,9 C 4,8 km/h (1 Bft) 95,74 %
15.12.2018 06:28 -2,9 C 3,9 C -2,8 C 94 % 1024,8 hPa 0,0 l/m 2,8 km/h (1 Bft) W-NW 294 0 min 0,000 mm 0,0 UV-I 0 W/m -3,7 C -2,9 C 4,8 km/h (1 Bft) 94,00 %
15.12.2018 06:30 -2,9 C 3,9 C -2,8 C 94 % 1024,9 hPa 0,0 l/m 2,3 km/h (1 Bft) W-NW 294 0 min 0,000 mm 0,0 UV-I 0 W/m -3,7 C -2,9 C 3,2 km/h (1 Bft) 93,62 %
15.12.2018 06:32 -2,9 C 3,9 C -2,8 C 94 % 1024,9 hPa 0,0 l/m 2,5 km/h (1 Bft) W-NW 294 0 min 0,000 mm 0,0 UV-I 0 W/m -3,7 C -2,9 C 3,2 km/h (1 Bft) 92,11 %
15.12.2018 06:34 -2,9 C 3,9 C -2,8 C 94 % 1024,9 hPa 0,0 l/m 2,1 km/h (1 Bft) W-NW 294 0 min 0,000 mm 0,0 UV-I 0 W/m -3,7 C -2,9 C 3,2 km/h (1 Bft) 93,62 %
15.12.2018 06:36 -2,9 C 3,9 C -2,8 C 94 % 1024,9 hPa 0,0 l/m 1,9 km/h (1 Bft) W-NW 294 0 min 0,000 mm 0,0 UV-I 0 W/m -3,7 C -2,9 C 3,2 km/h (1 Bft) 88,57 %
15.12.2018 06:38 -2,9 C 3,9 C -2,8 C 94 % 1024,9 hPa 0,0 l/m 1,9 km/h (1 Bft) W-NW 293 0 min 0,000 mm 0,0 UV-I 0 W/m -3,7 C -2,9 C 3,2 km/h (1 Bft) 91,94 %
15.12.2018 06:40 -2,9 C 3,9 C -3,3 C 94 % 1024,9 hPa 0,0 l/m 2,4 km/h (1 Bft) W-NW 293 0 min 0,000 mm 0,0 UV-I 0 W/m -3,7 C -2,9 C 4,8 km/h (1 Bft) 91,49 %
15.12.2018 06:42 -2,9 C 3,9 C -3,3 C 94 % 1024,9 hPa 0,0 l/m 2,6 km/h (1 Bft) W-NW 293 0 min 0,000 mm 0,0 UV-I 0 W/m -3,7 C -2,9 C 4,8 km/h (1 Bft) 91,49 %
15.12.2018 06:44 -2,9 C 3,9 C -3,3 C 94 % 1024,9 hPa 0,0 l/m 1,5 km/h (1 Bft) W-NW 293 0 min 0,000 mm 0,0 UV-I 0 W/m -3,7 C -2,9 C 3,2 km/h (1 Bft) 93,62 %
15.12.2018 06:46 -3,0 C 3,9 C -3,3 C 94 % 1024,9 hPa 0,0 l/m 1,4 km/h (1 Bft) W-NW 293 0 min 0,000 mm 0,0 UV-I 0 W/m -3,8 C -3,0 C 3,2 km/h (1 Bft) 90,00 %
15.12.2018 06:48 -3,0 C 3,9 C -3,3 C 94 % 1024,9 hPa 0,0 l/m 1,4 km/h (1 Bft) W-NW 293 0 min 0,000 mm 0,0 UV-I 0 W/m -3,8 C -3,0 C 3,2 km/h (1 Bft) 91,49 %
15.12.2018 06:50 -3,0 C 3,9 C -3,3 C 94 % 1024,9 hPa 0,0 l/m 1,9 km/h (1 Bft) W-NW 293 0 min 0,000 mm 0,0 UV-I 0 W/m -3,8 C -3,0 C 3,2 km/h (1 Bft) 93,62 %
15.12.2018 06:52 -3,0 C 3,9 C -3,3 C 94 % 1024,9 hPa 0,0 l/m 2,3 km/h (1 Bft) W-NW 293 0 min 0,000 mm 0,0 UV-I 0 W/m -3,8 C -3,0 C 3,2 km/h (1 Bft) 93,62 %
15.12.2018 06:54 -3,1 C 3,9 C -3,3 C 94 % 1024,9 hPa 0,0 l/m 1,7 km/h (1 Bft) W-NW 293 0 min 0,000 mm 0,0 UV-I 0 W/m -3,9 C -3,1 C 3,2 km/h (1 Bft) 93,62 %
15.12.2018 06:56 -3,1 C 3,9 C -3,3 C 94 % 1024,9 hPa 0,0 l/m 3,1 km/h (1 Bft) W-NW 293 0 min 0,000 mm 0,0 UV-I 0 W/m -3,9 C -3,1 C 4,8 km/h (1 Bft) 97,87 %
15.12.2018 06:58 -3,1 C 3,9 C -3,3 C 94 % 1024,9 hPa 0,0 l/m 2,4 km/h (1 Bft) W-NW 293 0 min 0,000 mm 0,0 UV-I 0 W/m -3,9 C -3,1 C 4,8 km/h (1 Bft) 95,83 %
15.12.2018 07:00 -3,1 C 3,9 C -3,3 C 94 % 1024,9 hPa 0,0 l/m 3,0 km/h (1 Bft) W-NW 293 0 min 0,000 mm 0,0 UV-I 0 W/m -3,9 C -3,1 C 4,8 km/h (1 Bft) 93,62 %
15.12.2018 07:02 -3,1 C 3,9 C -3,3 C 94 % 1025,0 hPa 0,0 l/m 3,1 km/h (1 Bft) W-NW 288 0 min 0,000 mm 0,0 UV-I 0 W/m -3,9 C -3,1 C 4,8 km/h (1 Bft) 97,37 %
15.12.2018 07:04 -3,1 C 3,9 C -3,3 C 94 % 1025,0 hPa 0,0 l/m 3,5 km/h (1 Bft) W-NW 282 0 min 0,000 mm 0,0 UV-I 0 W/m -3,9 C -3,1 C 4,8 km/h (1 Bft) 97,87 %
15.12.2018 07:06 -3,1 C 3,9 C -3,3 C 94 % 1025,0 hPa 0,0 l/m 3,0 km/h (1 Bft) W-NW 282 0 min 0,000 mm 0,0 UV-I 0 W/m -3,9 C -3,1 C 4,8 km/h (1 Bft) 98,00 %
15.12.2018 07:08 -3,1 C 3,9 C -3,3 C 94 % 1025,0 hPa 0,0 l/m 2,9 km/h (1 Bft) W 281 0 min 0,000 mm 0,0 UV-I 0 W/m -3,9 C -3,1 C 4,8 km/h (1 Bft) 97,87 %
15.12.2018 07:10 -3,1 C 3,9 C -3,3 C 94 % 1025,0 hPa 0,0 l/m 3,7 km/h (1 Bft) W 276 0 min 0,000 mm 0,0 UV-I 0 W/m -3,9 C -3,1 C 4,8 km/h (1 Bft) 93,62 %
15.12.2018 07:12 -3,1 C 3,9 C -3,3 C 94 % 1025,0 hPa 0,0 l/m 4,0 km/h (1 Bft) W 271 0 min 0,000 mm 0,0 UV-I 0 W/m -3,9 C -3,1 C 4,8 km/h (1 Bft) 95,74 %
15.12.2018 07:14 -3,1 C 3,9 C -3,3 C 94 % 1025,0 hPa 0,0 l/m 4,4 km/h (1 Bft) W-SW 244 0 min 0,000 mm 0,0 UV-I 0 W/m -3,9 C -3,1 C 6,4 km/h (2 Bft) 96,00 %
15.12.2018 07:16 -3,2 C 3,9 C -3,3 C 94 % 1025,0 hPa 0,0 l/m 3,2 km/h (1 Bft) W-SW 243 0 min 0,000 mm 0,0 UV-I 0 W/m -4,0 C -3,2 C 4,8 km/h (1 Bft) 97,87 %
15.12.2018 07:18 -3,2 C 3,9 C -3,3 C 94 % 1025,1 hPa 0,0 l/m 2,0 km/h (1 Bft) W-SW 243 0 min 0,000 mm 0,0 UV-I 0 W/m -4,0 C -3,2 C 4,8 km/h (1 Bft) 97,87 %
15.12.2018 07:20 -3,2 C 3,9 C -3,3 C 94 % 1025,1 hPa 0,0 l/m 3,2 km/h (1 Bft) W-SW 238 0 min 0,000 mm 0,0 UV-I 0 W/m -4,0 C -3,2 C 4,8 km/h (1 Bft) 95,74 %
15.12.2018 07:22 -3,2 C 3,9 C -3,3 C 95 % 1025,1 hPa 0,0 l/m 3,1 km/h (1 Bft) W-SW 237 0 min 0,000 mm 0,0 UV-I 0 W/m -3,9 C -3,2 C 4,8 km/h (1 Bft) 95,74 %
15.12.2018 07:24 -3,2 C 3,9 C -3,3 C 95 % 1025,1 hPa 0,0 l/m 2,0 km/h (1 Bft) W-SW 237 0 min 0,000 mm 0,0 UV-I 0 W/m -3,9 C -3,2 C 3,2 km/h (1 Bft) 100,00 %
15.12.2018 07:26 -3,2 C 3,9 C -3,3 C 95 % 1025,1 hPa 0,0 l/m 3,3 km/h (1 Bft) SW 224 0 min 0,000 mm 0,0 UV-I 0 W/m -3,9 C -3,2 C 6,4 km/h (2 Bft) 100,00 %
15.12.2018 07:28 -3,2 C 3,9 C -3,3 C 95 % 1025,2 hPa 0,0 l/m 2,8 km/h (1 Bft) SW 224 0 min 0,000 mm 0,0 UV-I 0 W/m -3,9 C -3,2 C 4,8 km/h (1 Bft) 100,00 %
15.12.2018 07:30 -3,2 C 3,9 C -3,3 C 95 % 1025,2 hPa 0,0 l/m 3,4 km/h (1 Bft) SW 222 0 min 0,000 mm 0,0 UV-I 0 W/m -3,9 C -3,2 C 6,4 km/h (2 Bft) 100,00 %
15.12.2018 07:32 -3,2 C 3,9 C -3,3 C 94 % 1025,2 hPa 0,0 l/m 3,4 km/h (1 Bft) SW 221 0 min 0,000 mm 0,0 UV-I 0 W/m -4,0 C -3,2 C 6,4 km/h (2 Bft) 100,00 %
15.12.2018 07:34 -3,3 C 3,9 C -3,9 C 94 % 1025,2 hPa 0,0 l/m 3,1 km/h (1 Bft) SW 221 0 min 0,000 mm 0,0 UV-I 0 W/m -4,1 C -3,3 C 4,8 km/h (1 Bft) 100,00 %
15.12.2018 07:36 -3,3 C 3,9 C -3,3 C 94 % 1025,3 hPa 0,0 l/m 4,3 km/h (1 Bft) SW 219 0 min 0,000 mm 0,0 UV-I 1 W/m -4,1 C -3,3 C 6,4 km/h (2 Bft) 100,00 %
15.12.2018 07:38 -3,3 C 3,9 C -3,3 C 95 % 1025,2 hPa 0,0 l/m 3,6 km/h (1 Bft) SW 219 0 min 0,000 mm 0,0 UV-I 5 W/m -4,0 C -3,3 C 4,8 km/h (1 Bft) 98,00 %
15.12.2018 07:40 -3,3 C 3,9 C -3,3 C 95 % 1025,3 hPa 0,0 l/m 3,1 km/h (1 Bft) SW 219 0 min 0,000 mm 0,0 UV-I 5 W/m -4,0 C -3,3 C 4,8 km/h (1 Bft) 98,00 %
15.12.2018 07:42 -3,3 C 3,9 C -3,3 C 95 % 1025,3 hPa 0,0 l/m 3,6 km/h (1 Bft) SW 220 0 min 0,000 mm 0,0 UV-I 5 W/m -4,0 C -3,3 C 6,4 km/h (2 Bft) 97,87 %
15.12.2018 07:44 -3,3 C 3,9 C -3,3 C 95 % 1025,3 hPa 0,0 l/m 2,5 km/h (1 Bft) SW 220 0 min 0,000 mm 0,0 UV-I 5 W/m -4,0 C -3,3 C 4,8 km/h (1 Bft) 100,00 %
15.12.2018 07:46 -3,3 C 3,9 C -3,3 C 95 % 1025,3 hPa 0,0 l/m 4,1 km/h (1 Bft) SW 219 0 min 0,000 mm 0,0 UV-I 5 W/m -4,0 C -3,3 C 4,8 km/h (1 Bft) 97,14 %
15.12.2018 07:48 -3,3 C 3,9 C -3,3 C 95 % 1025,3 hPa 0,0 l/m 3,3 km/h (1 Bft) SW 219 0 min 0,000 mm 0,0 UV-I 5 W/m -4,0 C -3,3 C 4,8 km/h (1 Bft) 97,87 %
15.12.2018 07:50 -3,3 C 3,9 C -3,3 C 95 % 1025,3 hPa 0,0 l/m 3,6 km/h (1 Bft) SW 219 0 min 0,000 mm 0,0 UV-I 6 W/m -4,0 C -3,3 C 4,8 km/h (1 Bft) 97,87 %
15.12.2018 07:52 -3,3 C 3,9 C -3,3 C 95 % 1025,4 hPa 0,0 l/m 3,2 km/h (1 Bft) SW 219 0 min 0,000 mm 0,0 UV-I 7 W/m -4,0 C -3,3 C 4,8 km/h (1 Bft) 97,87 %
15.12.2018 07:54 -3,3 C 3,9 C -3,3 C 95 % 1025,3 hPa 0,0 l/m 3,6 km/h (1 Bft) SW 221 0 min 0,000 mm 0,0 UV-I 7 W/m -4,0 C -3,3 C 4,8 km/h (1 Bft) 98,11 %
15.12.2018 07:56 -3,3 C 3,9 C -3,3 C 95 % 1025,4 hPa 0,0 l/m 3,0 km/h (1 Bft) SW 227 0 min 0,000 mm 0,0 UV-I 7 W/m -4,0 C -3,3 C 4,8 km/h (1 Bft) 98,00 %
15.12.2018 07:58 -3,3 C 3,9 C -3,9 C 95 % 1025,4 hPa 0,0 l/m 3,5 km/h (1 Bft) SW 227 0 min 0,000 mm 0,0 UV-I 8 W/m -4,0 C -3,3 C 4,8 km/h (1 Bft) 95,74 %
15.12.2018 08:00 -3,3 C 3,9 C -3,9 C 95 % 1025,4 hPa 0,0 l/m 3,5 km/h (1 Bft) SW 230 2 min 0,000 mm 0,0 UV-I 9 W/m -4,0 C -3,3 C 6,4 km/h (2 Bft) 97,83 %
15.12.2018 08:02 -3,3 C 3,9 C -3,9 C 95 % 1025,5 hPa 0,0 l/m 3,2 km/h (1 Bft) SW 232 0 min 0,000 mm 0,0 UV-I 9 W/m -4,0 C -3,3 C 4,8 km/h (1 Bft) 93,62 %
15.12.2018 08:04 -3,3 C 3,9 C -3,9 C 95 % 1025,5 hPa 0,0 l/m 3,8 km/h (1 Bft) SW 224 0 min 0,000 mm 0,0 UV-I 11 W/m -4,0 C -3,3 C 6,4 km/h (2 Bft) 97,87 %
15.12.2018 08:06 -3,4 C 3,9 C -3,9 C 95 % 1025,5 hPa 0,0 l/m 4,5 km/h (1 Bft) SW 223 0 min 0,000 mm 0,0 UV-I 11 W/m -4,1 C -3,4 C 6,4 km/h (2 Bft) 97,87 %
15.12.2018 08:08 -3,4 C 3,9 C -3,9 C 95 % 1025,5 hPa 0,0 l/m 3,7 km/h (1 Bft) SW 223 0 min 0,000 mm 0,0 UV-I 11 W/m -4,1 C -3,4 C 4,8 km/h (1 Bft) 95,74 %
15.12.2018 08:10 -3,4 C 3,9 C -3,9 C 95 % 1025,5 hPa 0,0 l/m 3,0 km/h (1 Bft) SW 223 0 min 0,000 mm 0,0 UV-I 12 W/m -4,1 C -3,4 C 4,8 km/h (1 Bft) 100,00 %
15.12.2018 08:12 -3,4 C 3,9 C -3,9 C 95 % 1025,5 hPa 0,0 l/m 2,2 km/h (1 Bft) SW 223 0 min 0,000 mm 0,0 UV-I 12 W/m -4,1 C -3,4 C 4,8 km/h (1 Bft) 95,74 %
15.12.2018 08:14 -3,5 C 3,9 C -3,9 C 95 % 1025,5 hPa 0,0 l/m 3,2 km/h (1 Bft) SW 223 0 min 0,000 mm 0,0 UV-I 12 W/m -4,2 C -3,5 C 4,8 km/h (1 Bft) 100,00 %
15.12.2018 08:16 -3,5 C 3,9 C -3,9 C 95 % 1025,5 hPa 0,0 l/m 1,6 km/h (1 Bft) SW 223 0 min 0,000 mm 0,0 UV-I 12 W/m -4,2 C -3,5 C 3,2 km/h (1 Bft) 100,00 %
15.12.2018 08:18 -3,5 C 3,9 C -3,9 C 95 % 1025,6 hPa 0,0 l/m 2,2 km/h (1 Bft) SW 223 0 min 0,000 mm 0,0 UV-I 12 W/m -4,2 C -3,5 C 3,2 km/h (1 Bft) 97,87 %
15.12.2018 08:20 -3,5 C 3,9 C -3,9 C 95 % 1025,6 hPa 0,0 l/m 2,6 km/h (1 Bft) SW 223 0 min 0,000 mm 0,0 UV-I 12 W/m -4,2 C -3,5 C 3,2 km/h (1 Bft) 100,00 %
15.12.2018 08:22 -3,5 C 3,9 C -3,9 C 95 % 1025,6 hPa 0,0 l/m 2,6 km/h (1 Bft) SW 223 0 min 0,000 mm 0,0 UV-I 13 W/m -4,2 C -3,5 C 3,2 km/h (1 Bft) 100,00 %
15.12.2018 08:24 -3,5 C 3,9 C -3,9 C 95 % 1025,6 hPa 0,0 l/m 2,2 km/h (1 Bft) SW 223 0 min 0,000 mm 0,0 UV-I 14 W/m -4,2 C -3,5 C 3,2 km/h (1 Bft) 100,00 %
15.12.2018 08:26 -3,5 C 3,9 C -3,9 C 95 % 1025,6 hPa 0,0 l/m 2,4 km/h (1 Bft) SW 223 0 min 0,000 mm 0,0 UV-I 14 W/m -4,2 C -3,5 C 4,8 km/h (1 Bft) 100,00 %
15.12.2018 08:28 -3,5 C 3,9 C -3,9 C 95 % 1025,6 hPa 0,0 l/m 2,2 km/h (1 Bft) SW 223 0 min 0,000 mm 0,0 UV-I 14 W/m -4,2 C -3,5 C 4,8 km/h (1 Bft) 100,00 %
15.12.2018 08:30 -3,6 C 3,9 C -3,9 C 95 % 1025,7 hPa 0,0 l/m 2,7 km/h (1 Bft) SW 223 0 min 0,000 mm 0,0 UV-I 16 W/m -4,3 C -3,6 C 4,8 km/h (1 Bft) 100,00 %
15.12.2018 08:32 -3,6 C 3,9 C -3,9 C 95 % 1025,7 hPa 0,0 l/m 2,9 km/h (1 Bft) SW 223 0 min 0,000 mm 0,0 UV-I 16 W/m -4,3 C -3,6 C 4,8 km/h (1 Bft) 100,00 %
15.12.2018 08:34 -3,5 C 3,9 C -3,9 C 95 % 1025,7 hPa 0,0 l/m 2,5 km/h (1 Bft) SW 223 0 min 0,000 mm 0,0 UV-I 18 W/m -4,2 C -3,5 C 4,8 km/h (1 Bft) 100,00 %
15.12.2018 08:36 -3,5 C 3,9 C -3,9 C 95 % 1025,7 hPa 0,0 l/m 2,3 km/h (1 Bft) SW 223 0 min 0,000 mm 0,0 UV-I 18 W/m -4,2 C -3,5 C 3,2 km/h (1 Bft) 97,87 %
15.12.2018 08:38 -3,5 C 3,9 C -3,9 C 95 % 1025,7 hPa 0,0 l/m 2,5 km/h (1 Bft) SW 223 0 min 0,000 mm 0,0 UV-I 19 W/m -4,2 C -3,5 C 3,2 km/h (1 Bft) 95,74 %
15.12.2018 08:40 -3,5 C 3,9 C -3,3 C 95 % 1025,7 hPa 0,0 l/m 3,1 km/h (1 Bft) SW 223 0 min 0,000 mm 0,0 UV-I 20 W/m -4,2 C -3,5 C 4,8 km/h (1 Bft) 97,96 %
15.12.2018 08:42 -3,5 C 3,9 C -3,3 C 95 % 1025,8 hPa 0,0 l/m 3,4 km/h (1 Bft) SW 223 0 min 0,000 mm 0,0 UV-I 22 W/m -4,2 C -3,5 C 4,8 km/h (1 Bft) 97,87 %
15.12.2018 08:44 -3,4 C 3,9 C -3,3 C 95 % 1025,8 hPa 0,0 l/m 3,6 km/h (1 Bft) SW 223 0 min 0,000 mm 0,0 UV-I 23 W/m -4,1 C -3,4 C 4,8 km/h (1 Bft) 95,74 %
15.12.2018 08:46 -3,4 C 3,9 C -3,3 C 95 % 1025,9 hPa 0,0 l/m 3,5 km/h (1 Bft) SW 223 0 min 0,000 mm 0,0 UV-I 24 W/m -4,1 C -3,4 C 4,8 km/h (1 Bft) 97,22 %
15.12.2018 08:48 -3,4 C 3,9 C -3,3 C 95 % 1025,8 hPa 0,0 l/m 3,5 km/h (1 Bft) SW 223 0 min 0,000 mm 0,0 UV-I 25 W/m -4,1 C -3,4 C 4,8 km/h (1 Bft) 96,00 %
15.12.2018 08:50 -3,4 C 3,9 C -3,3 C 95 % 1025,9 hPa 0,0 l/m 4,2 km/h (1 Bft) SW 223 0 min 0,000 mm 0,0 UV-I 27 W/m -4,1 C -3,4 C 6,4 km/h (2 Bft) 95,74 %
15.12.2018 08:52 -3,4 C 3,9 C -3,3 C 95 % 1025,9 hPa 0,0 l/m 3,8 km/h (1 Bft) SW 223 0 min 0,000 mm 0,0 UV-I 28 W/m -4,1 C -3,4 C 4,8 km/h (1 Bft) 96,00 %
15.12.2018 08:54 -3,3 C 3,9 C -2,8 C 95 % 1025,9 hPa 0,0 l/m 4,6 km/h (1 Bft) SW 220 0 min 0,000 mm 0,0 UV-I 31 W/m -4,0 C -3,3 C 6,4 km/h (2 Bft) 97,87 %
15.12.2018 08:56 -3,3 C 3,9 C -2,8 C 95 % 1025,9 hPa 0,0 l/m 4,3 km/h (1 Bft) S-SW 209 0 min 0,000 mm 0,0 UV-I 32 W/m -4,0 C -3,3 C 6,4 km/h (2 Bft) 95,74 %
15.12.2018 08:58 -3,3 C 3,9 C -2,8 C 95 % 1025,9 hPa 0,0 l/m 4,6 km/h (1 Bft) SW 220 0 min 0,000 mm 0,0 UV-I 33 W/m -4,0 C -3,3 C 8,0 km/h (2 Bft) 97,87 %
15.12.2018 09:00 -3,3 C 3,9 C -2,8 C 95 % 1025,9 hPa 0,2 l/m 3,9 km/h (1 Bft) W-SW 239 0 min 0,000 mm 0,0 UV-I 35 W/m -4,0 C -3,3 C 6,4 km/h (2 Bft) 92,00 %
15.12.2018 09:02 -3,3 C 3,9 C -2,8 C 95 % 1025,9 hPa 0,0 l/m 4,3 km/h (1 Bft) SW 221 0 min 0,000 mm 0,0 UV-I 38 W/m -4,0 C -3,3 C 6,4 km/h (2 Bft) 93,62 %
15.12.2018 09:04 -3,2 C 3,9 C -2,8 C 95 % 1025,9 hPa 0,0 l/m 3,4 km/h (1 Bft) SW 223 0 min 0,000 mm 0,0 UV-I 39 W/m -3,9 C -3,2 C 6,4 km/h (2 Bft) 97,87 %
15.12.2018 09:06 -3,2 C 3,9 C -2,2 C 95 % 1025,9 hPa 0,0 l/m 4,9 km/h (1 Bft) SW 215 0 min 0,000 mm 0,0 UV-I 40 W/m -3,9 C -3,2 C 6,4 km/h (2 Bft) 95,74 %
15.12.2018 09:08 -3,2 C 3,9 C -2,2 C 95 % 1025,9 hPa 0,0 l/m 3,9 km/h (1 Bft) W-SW 240 0 min 0,000 mm 0,0 UV-I 39 W/m -3,9 C -3,2 C 6,4 km/h (2 Bft) 93,62 %
15.12.2018 09:10 -3,1 C 3,9 C -2,2 C 95 % 1025,9 hPa 0,0 l/m 4,7 km/h (1 Bft) W-SW 245 0 min 0,000 mm 0,0 UV-I 37 W/m -3,8 C -3,1 C 6,4 km/h (2 Bft) 95,74 %
15.12.2018 09:12 -3,1 C 3,9 C -2,2 C 95 % 1025,9 hPa 0,0 l/m 4,2 km/h (1 Bft) SW 236 0 min 0,000 mm 0,0 UV-I 35 W/m -3,8 C -3,1 C 8,0 km/h (2 Bft) 94,74 %
15.12.2018 09:14 -3,0 C 3,9 C -2,2 C 95 % 1025,9 hPa 0,0 l/m 7,1 km/h (2 Bft) W-SW 246 0 min 0,000 mm 0,0 UV-I 36 W/m -3,7 C -3,8 C 9,7 km/h (2 Bft) 91,49 %
15.12.2018 09:16 -2,9 C 3,9 C -2,2 C 95 % 1025,9 hPa 0,0 l/m 5,9 km/h (2 Bft) W-SW 241 0 min 0,000 mm 0,0 UV-I 39 W/m -3,6 C -2,9 C 9,7 km/h (2 Bft) 93,62 %
15.12.2018 09:18 -2,9 C 3,9 C -2,2 C 95 % 1025,9 hPa 0,0 l/m 6,4 km/h (2 Bft) W 259 0 min 0,000 mm 0,0 UV-I 42 W/m -3,6 C -2,9 C 11,3 km/h (2 Bft) 97,87 %
15.12.2018 09:20 -2,9 C 3,9 C -2,2 C 95 % 1025,9 hPa 0,0 l/m 7,6 km/h (2 Bft) W-SW 244 0 min 0,000 mm 0,0 UV-I 45 W/m -3,6 C -4,3 C 11,3 km/h (2 Bft) 100,00 %
15.12.2018 09:22 -2,8 C 3,9 C -2,2 C 95 % 1025,9 hPa 0,0 l/m 5,9 km/h (2 Bft) SW 234 0 min 0,000 mm 0,0 UV-I 47 W/m -3,5 C -2,8 C 8,0 km/h (2 Bft) 100,00 %
15.12.2018 09:24 -2,8 C 3,9 C -2,2 C 95 % 1025,9 hPa 0,0 l/m 4,9 km/h (1 Bft) W-SW 239 0 min 0,000 mm 0,0 UV-I 50 W/m -3,5 C -2,8 C 8,0 km/h (2 Bft) 96,00 %
15.12.2018 09:26 -2,8 C 3,9 C -1,7 C 95 % 1025,9 hPa 0,0 l/m 4,8 km/h (1 Bft) SW 223 0 min 0,000 mm 0,0 UV-I 52 W/m -3,5 C -2,8 C 8,0 km/h (2 Bft) 100,00 %
15.12.2018 09:28 -2,8 C 3,9 C -1,7 C 95 % 1025,8 hPa 0,0 l/m 6,2 km/h (2 Bft) W-SW 239 0 min 0,000 mm 0,0 UV-I 56 W/m -3,5 C -2,8 C 11,3 km/h (2 Bft) 97,87 %
15.12.2018 09:30 -2,8 C 3,9 C -1,7 C 94 % 1025,8 hPa 0,0 l/m 6,4 km/h (2 Bft) W-SW 244 0 min 0,000 mm 0,0 UV-I 61 W/m -3,6 C -2,8 C 9,7 km/h (2 Bft) 100,00 %
15.12.2018 09:32 -2,8 C 3,9 C -1,7 C 94 % 1025,9 hPa 0,0 l/m 4,0 km/h (1 Bft) W-SW 248 0 min 0,000 mm 0,0 UV-I 67 W/m -3,6 C -2,8 C 6,4 km/h (2 Bft) 100,00 %
15.12.2018 09:34 -2,7 C 3,9 C -1,7 C 94 % 1025,9 hPa 0,0 l/m 3,6 km/h (1 Bft) W-SW 243 0 min 0,000 mm 0,0 UV-I 71 W/m -3,5 C -2,7 C 6,4 km/h (2 Bft) 100,00 %
15.12.2018 09:36 -2,7 C 3,9 C -1,7 C 94 % 1025,9 hPa 0,0 l/m 7,1 km/h (2 Bft) W-SW 239 0 min 0,000 mm 0,0 UV-I 76 W/m -3,5 C -3,5 C 11,3 km/h (2 Bft) 97,87 %
15.12.2018 09:38 -2,7 C 3,9 C -1,7 C 94 % 1025,9 hPa 0,0 l/m 6,6 km/h (2 Bft) W-SW 241 0 min 0,000 mm 0,0 UV-I 77 W/m -3,5 C -2,9 C 9,7 km/h (2 Bft) 100,00 %
15.12.2018 09:40 -2,7 C 3,9 C -1,7 C 94 % 1025,9 hPa 0,0 l/m 7,5 km/h (2 Bft) W-SW 242 0 min 0,000 mm 0,0 UV-I 76 W/m -3,5 C -3,9 C 11,3 km/h (2 Bft) 100,00 %
15.12.2018 09:42 -2,7 C 3,9 C -1,1 C 94 % 1025,9 hPa 0,0 l/m 4,7 km/h (1 Bft) W-SW 238 0 min 0,000 mm 0,0 UV-I 77 W/m -3,5 C -2,7 C 8,0 km/h (2 Bft) 97,96 %
15.12.2018 09:44 -2,7 C 3,9 C -1,1 C 94 % 1025,9 hPa 0,0 l/m 5,3 km/h (1 Bft) W-SW 251 0 min 0,000 mm 0,0 UV-I 77 W/m -3,5 C -2,7 C 8,0 km/h (2 Bft) 97,87 %
15.12.2018 09:46 -2,7 C 3,9 C -1,1 C 94 % 1026,0 hPa 0,0 l/m 6,9 km/h (2 Bft) SW 226 0 min 0,000 mm 0,0 UV-I 77 W/m -3,5 C -3,3 C 9,7 km/h (2 Bft) 100,00 %
15.12.2018 09:48 -2,7 C 3,9 C -1,1 C 94 % 1026,0 hPa 0,0 l/m 5,9 km/h (2 Bft) SW 227 0 min 0,000 mm 0,0 UV-I 77 W/m -3,5 C -2,7 C 8,0 km/h (2 Bft) 100,00 %
15.12.2018 09:50 -2,7 C 3,9 C -1,1 C 94 % 1026,0 hPa 0,0 l/m 4,4 km/h (1 Bft) W-SW 242 0 min 0,000 mm 0,0 UV-I 77 W/m -3,5 C -2,7 C 6,4 km/h (2 Bft) 100,00 %
15.12.2018 09:52 -2,6 C 3,9 C -1,1 C 94 % 1026,0 hPa 0,0 l/m 5,8 km/h (2 Bft) W-SW 242 0 min 0,000 mm 0,0 UV-I 84 W/m -3,4 C -2,6 C 8,0 km/h (2 Bft) 100,00 %
15.12.2018 09:54 -2,6 C 3,9 C -1,1 C 94 % 1025,9 hPa 0,2 l/m 4,8 km/h (1 Bft) W-SW 245 0 min 0,000 mm 0,0 UV-I 90 W/m -3,4 C -2,6 C 8,0 km/h (2 Bft) 100,00 %
15.12.2018 09:56 -2,6 C 3,9 C -1,1 C 94 % 1025,9 hPa 0,0 l/m 4,6 km/h (1 Bft) W 264 0 min 0,000 mm 0,0 UV-I 105 W/m -3,4 C -2,6 C 6,4 km/h (2 Bft) 97,87 %
15.12.2018 09:58 -2,6 C 3,9 C -1,1 C 94 % 1026,0 hPa 0,0 l/m 4,8 km/h (1 Bft) W-SW 244 0 min 0,000 mm 0,0 UV-I 117 W/m -3,4 C -2,6 C 6,4 km/h (2 Bft) 100,00 %
15.12.2018 10:00 -2,6 C 3,9 C -0,6 C 94 % 1026,0 hPa 0,0 l/m 5,2 km/h (1 Bft) SW 221 0 min 0,000 mm 0,0 UV-I 124 W/m -3,4 C -2,6 C 6,4 km/h (2 Bft) 100,00 %
15.12.2018 10:02 -2,5 C 3,9 C -0,6 C 94 % 1026,0 hPa 0,0 l/m 5,2 km/h (1 Bft) W-SW 248 0 min 0,025 mm 0,0 UV-I 128 W/m -3,3 C -2,5 C 11,3 km/h (2 Bft) 100,00 %
15.12.2018 10:04 -2,4 C 3,9 C -0,6 C 94 % 1026,0 hPa 0,0 l/m 5,9 km/h (2 Bft) W-SW 251 0 min 0,000 mm 0,0 UV-I 127 W/m -3,2 C -2,4 C 11,3 km/h (2 Bft) 95,74 %
15.12.2018 10:06 -2,4 C 3,9 C -0,6 C 94 % 1026,0 hPa 0,0 l/m 6,2 km/h (2 Bft) W-SW 250 0 min 0,000 mm 0,0 UV-I 120 W/m -3,2 C -2,4 C 11,3 km/h (2 Bft) 100,00 %
15.12.2018 10:08 -2,4 C 3,9 C -0,6 C 93 % 1026,0 hPa 0,0 l/m 4,7 km/h (1 Bft) S-SW 213 0 min 0,000 mm 0,0 UV-I 113 W/m -3,4 C -2,4 C 8,0 km/h (2 Bft) 97,92 %
15.12.2018 10:10 -2,4 C 3,9 C -0,6 C 93 % 1026,0 hPa 0,0 l/m 6,5 km/h (2 Bft) SW 232 0 min 0,000 mm 0,0 UV-I 109 W/m -3,4 C -2,5 C 11,3 km/h (2 Bft) 94,74 %
15.12.2018 10:12 -2,4 C 3,9 C -0,6 C 93 % 1026,0 hPa 0,0 l/m 7,3 km/h (2 Bft) W-SW 258 0 min 0,000 mm 0,0 UV-I 104 W/m -3,4 C -3,4 C 11,3 km/h (2 Bft) 95,74 %
15.12.2018 10:14 -2,4 C 3,9 C -0,6 C 93 % 1026,0 hPa 0,0 l/m 4,1 km/h (1 Bft) SW 227 0 min 0,000 mm 0,0 UV-I 98 W/m -3,4 C -2,4 C 8,0 km/h (2 Bft) 97,87 %
15.12.2018 10:16 -2,3 C 3,9 C -0,6 C 93 % 1026,0 hPa 0,0 l/m 7,5 km/h (2 Bft) W-SW 253 0 min 0,000 mm 0,0 UV-I 97 W/m -3,3 C -3,5 C 14,5 km/h (3 Bft) 97,87 %
15.12.2018 10:18 -2,3 C 3,9 C -0,6 C 93 % 1025,9 hPa 0,0 l/m 9,1 km/h (2 Bft) W-SW 254 0 min 0,000 mm 0,0 UV-I 94 W/m -3,3 C -5,2 C 14,5 km/h (3 Bft) 97,73 %
15.12.2018 10:20 -2,4 C 3,9 C -0,6 C 93 % 1025,9 hPa 0,0 l/m 8,4 km/h (2 Bft) W-SW 244 0 min 0,000 mm 0,0 UV-I 92 W/m -3,4 C -4,6 C 14,5 km/h (3 Bft) 98,00 %
15.12.2018 10:22 -2,4 C 3,9 C -0,6 C 93 % 1025,9 hPa 0,0 l/m 7,4 km/h (2 Bft) W 261 0 min 0,000 mm 0,0 UV-I 91 W/m -3,4 C -3,5 C 12,9 km/h (3 Bft) 94,00 %
15.12.2018 10:24 -2,4 C 3,9 C -0,6 C 93 % 1025,9 hPa 0,0 l/m 7,4 km/h (2 Bft) SW 219 0 min 0,000 mm 0,0 UV-I 90 W/m -3,4 C -3,5 C 14,5 km/h (3 Bft) 95,74 %
15.12.2018 10:26 -2,4 C 3,9 C -0,6 C 93 % 1025,9 hPa 0,0 l/m 7,1 km/h (2 Bft) W-SW 250 0 min 0,000 mm 0,0 UV-I 88 W/m -3,4 C -3,2 C 12,9 km/h (3 Bft) 97,87 %
15.12.2018 10:28 -2,4 C 3,9 C -1,1 C 93 % 1025,9 hPa 0,0 l/m 5,8 km/h (2 Bft) W-SW 238 0 min 0,000 mm 0,0 UV-I 88 W/m -3,4 C -2,4 C 11,3 km/h (2 Bft) 96,00 %
15.12.2018 10:30 -2,4 C 3,9 C -1,1 C 93 % 1025,8 hPa 0,0 l/m 4,7 km/h (1 Bft) SW 229 0 min 0,000 mm 0,0 UV-I 88 W/m -3,4 C -2,4 C 8,0 km/h (2 Bft) 100,00 %
15.12.2018 10:32 -2,4 C 3,9 C -1,1 C 93 % 1025,8 hPa 0,0 l/m 6,4 km/h (2 Bft) W-SW 248 0 min 0,000 mm 0,0 UV-I 88 W/m -3,4 C -2,4 C 11,3 km/h (2 Bft) 100,00 %
15.12.2018 10:34 -2,5 C 3,9 C -1,1 C 92 % 1025,8 hPa 0,0 l/m 6,6 km/h (2 Bft) W-SW 243 0 min 0,000 mm 0,0 UV-I 90 W/m -3,6 C -2,7 C 14,5 km/h (3 Bft) 95,74 %
15.12.2018 10:36 -2,5 C 3,9 C -1,1 C 92 % 1025,8 hPa 0,0 l/m 6,3 km/h (2 Bft) SW 227 0 min 0,000 mm 0,0 UV-I 94 W/m -3,6 C -2,5 C 9,7 km/h (2 Bft) 98,00 %
15.12.2018 10:38 -2,5 C 3,9 C -1,1 C 92 % 1025,7 hPa 0,0 l/m 8,3 km/h (2 Bft) W-SW 245 0 min 0,000 mm 0,0 UV-I 97 W/m -3,6 C -4,6 C 14,5 km/h (3 Bft) 95,74 %
15.12.2018 10:40 -2,5 C 3,9 C -1,1 C 92 % 1025,7 hPa 0,0 l/m 8,1 km/h (2 Bft) W-SW 246 0 min 0,000 mm 0,0 UV-I 96 W/m -3,6 C -4,4 C 12,9 km/h (3 Bft) 97,87 %
15.12.2018 10:42 -2,5 C 3,9 C -1,1 C 92 % 1025,7 hPa 0,0 l/m 7,0 km/h (2 Bft) W-SW 252 0 min 0,000 mm 0,0 UV-I 95 W/m -3,6 C -3,2 C 11,3 km/h (2 Bft) 97,92 %
15.12.2018 10:44 -2,5 C 3,9 C -1,1 C 92 % 1025,7 hPa 0,0 l/m 9,7 km/h (2 Bft) W-SW 237 0 min 0,000 mm 0,0 UV-I 98 W/m -3,6 C -5,9 C 14,5 km/h (3 Bft) 97,87 %
15.12.2018 10:46 -2,5 C 3,9 C -1,1 C 92 % 1025,7 hPa 0,0 l/m 7,4 km/h (2 Bft) W-SW 251 0 min 0,000 mm 0,0 UV-I 108 W/m -3,6 C -3,6 C 12,9 km/h (3 Bft) 97,87 %
15.12.2018 10:48 -2,5 C 3,9 C -1,1 C 92 % 1025,7 hPa 0,0 l/m 8,5 km/h (2 Bft) SW 234 0 min 0,000 mm 0,0 UV-I 116 W/m -3,6 C -4,8 C 14,5 km/h (3 Bft) 96,00 %
15.12.2018 10:50 -2,5 C 3,9 C -1,1 C 92 % 1025,7 hPa 0,0 l/m 9,4 km/h (2 Bft) SW 227 0 min 0,000 mm 0,0 UV-I 132 W/m -3,6 C -5,7 C 14,5 km/h (3 Bft) 97,87 %
15.12.2018 10:52 -2,5 C 3,9 C -1,1 C 92 % 1025,7 hPa 0,0 l/m 9,6 km/h (2 Bft) W-SW 245 0 min 0,000 mm 0,0 UV-I 123 W/m -3,6 C -5,8 C 16,1 km/h (3 Bft) 95,74 %
15.12.2018 10:54 -2,5 C 3,9 C -1,1 C 92 % 1025,7 hPa 0,0 l/m 9,8 km/h (2 Bft) W 259 0 min 0,000 mm 0,0 UV-I 111 W/m -3,6 C -6,0 C 14,5 km/h (3 Bft) 91,49 %
15.12.2018 10:56 -2,5 C 3,9 C -1,1 C 92 % 1025,7 hPa 0,0 l/m 9,6 km/h (2 Bft) W-SW 242 0 min 0,000 mm 0,0 UV-I 111 W/m -3,6 C -5,8 C 14,5 km/h (3 Bft) 93,62 %
15.12.2018 10:58 -2,5 C 3,9 C -1,1 C 92 % 1025,7 hPa 0,0 l/m 11,8 km/h (2 Bft) W-SW 257 0 min 0,000 mm 0,0 UV-I 111 W/m -3,6 C -7,7 C 16,1 km/h (3 Bft) 95,74 %
15.12.2018 11:00 -2,5 C 3,9 C -1,1 C 92 % 1025,7 hPa 0,0 l/m 12,9 km/h (3 Bft) SW 233 0 min 0,026 mm 0,0 UV-I 111 W/m -3,6 C -8,6 C 16,1 km/h (3 Bft) 89,47 %
15.12.2018 11:02 -2,5 C 3,9 C -1,7 C 92 % 1025,7 hPa 0,0 l/m 10,6 km/h (2 Bft) W-SW 250 0 min 0,000 mm 0,0 UV-I 114 W/m -3,6 C -6,7 C 14,5 km/h (3 Bft) 96,00 %
15.12.2018 11:04 -2,5 C 3,9 C -1,1 C 92 % 1025,6 hPa 0,0 l/m 9,3 km/h (2 Bft) W-SW 243 0 min 0,000 mm 0,0 UV-I 130 W/m -3,6 C -5,6 C 14,5 km/h (3 Bft) 93,62 %
15.12.2018 11:06 -2,4 C 3,9 C -1,1 C 92 % 1025,6 hPa 0,0 l/m 8,0 km/h (2 Bft) W-SW 254 2 min 0,000 mm 0,0 UV-I 178 W/m -3,5 C -4,2 C 12,9 km/h (3 Bft) 93,62 %
15.12.2018 11:08 -2,4 C 3,9 C -1,1 C 92 % 1025,6 hPa 0,0 l/m 7,0 km/h (2 Bft) W-SW 244 2 min 0,000 mm 0,0 UV-I 199 W/m -3,5 C -3,1 C 14,5 km/h (3 Bft) 95,74 %
15.12.2018 11:10 -2,4 C 3,9 C -1,1 C 92 % 1025,6 hPa 0,0 l/m 6,4 km/h (2 Bft) SW 232 2 min 0,000 mm 0,0 UV-I 209 W/m -3,5 C -2,4 C 12,9 km/h (3 Bft) 97,87 %
15.12.2018 11:12 -2,3 C 3,9 C -1,1 C 92 % 1025,5 hPa 0,0 l/m 6,9 km/h (2 Bft) W-SW 254 2 min 0,000 mm 0,0 UV-I 220 W/m -3,4 C -2,8 C 11,3 km/h (2 Bft) 96,00 %
15.12.2018 11:14 -2,3 C 3,9 C -0,6 C 91 % 1025,6 hPa 0,0 l/m 7,8 km/h (2 Bft) SW 236 2 min 0,000 mm 0,0 UV-I 234 W/m -3,6 C -3,8 C 12,9 km/h (3 Bft) 95,74 %
15.12.2018 11:16 -2,3 C 3,9 C -0,6 C 91 % 1025,5 hPa 0,0 l/m 7,0 km/h (2 Bft) SW 230 2 min 0,000 mm 0,0 UV-I 243 W/m -3,6 C -3,0 C 11,3 km/h (2 Bft) 97,37 %
15.12.2018 11:18 -2,2 C 3,9 C -0,6 C 91 % 1025,5 hPa 0,0 l/m 6,5 km/h (2 Bft) SW 223 2 min 0,000 mm 0,0 UV-I 261 W/m -3,5 C -2,3 C 12,9 km/h (3 Bft) 94,00 %
15.12.2018 11:20 -2,1 C 3,9 C -0,6 C 91 % 1025,5 hPa 0,0 l/m 7,8 km/h (2 Bft) W-SW 247 2 min 0,000 mm 0,0 UV-I 285 W/m -3,4 C -3,6 C 12,9 km/h (3 Bft) 90,00 %
15.12.2018 11:22 -2,0 C 3,9 C 0,0 C 91 % 1025,4 hPa 0,0 l/m 5,2 km/h (1 Bft) W-SW 248 2 min 0,000 mm 0,0 UV-I 296 W/m -3,3 C -2,0 C 11,3 km/h (2 Bft) 96,00 %
15.12.2018 11:24 -1,9 C 3,9 C 0,0 C 91 % 1025,4 hPa 0,0 l/m 7,5 km/h (2 Bft) W-SW 245 2 min 0,000 mm 0,0 UV-I 290 W/m -3,2 C -3,1 C 11,3 km/h (2 Bft) 95,74 %
15.12.2018 11:26 -1,9 C 3,9 C 0,0 C 90 % 1025,4 hPa 0,0 l/m 5,4 km/h (1 Bft) S-SW 206 2 min 0,000 mm 0,0 UV-I 293 W/m -3,3 C -1,9 C 11,3 km/h (2 Bft) 93,75 %
15.12.2018 11:28 -1,9 C 3,9 C 0,0 C 90 % 1025,4 hPa 0,0 l/m 7,5 km/h (2 Bft) W-SW 238 2 min 0,000 mm 0,0 UV-I 293 W/m -3,3 C -3,1 C 12,9 km/h (3 Bft) 95,74 %
15.12.2018 11:30 -1,9 C 3,9 C 0,0 C 90 % 1025,3 hPa 0,0 l/m 7,3 km/h (2 Bft) SW 233 2 min 0,000 mm 0,0 UV-I 272 W/m -3,3 C -2,9 C 14,5 km/h (3 Bft) 89,36 %
15.12.2018 11:32 -1,9 C 3,9 C 0,0 C 90 % 1025,3 hPa 0,0 l/m 6,0 km/h (2 Bft) W-SW 245 2 min 0,000 mm 0,0 UV-I 255 W/m -3,3 C -1,9 C 8,0 km/h (2 Bft) 95,12 %
15.12.2018 11:34 -1,9 C 3,9 C -0,6 C 90 % 1025,3 hPa 0,0 l/m 5,7 km/h (1 Bft) SW 223 2 min 0,000 mm 0,0 UV-I 252 W/m -3,3 C -1,9 C 11,3 km/h (2 Bft) 97,87 %
15.12.2018 11:36 -1,9 C 3,9 C -0,6 C 90 % 1025,3 hPa 0,0 l/m 6,4 km/h (2 Bft) W-SW 237 2 min 0,000 mm 0,0 UV-I 253 W/m -3,3 C -1,9 C 9,7 km/h (2 Bft) 97,87 %
15.12.2018 11:38 -1,9 C 3,9 C -0,6 C 90 % 1025,3 hPa 0,0 l/m 7,6 km/h (2 Bft) S-SW 205 2 min 0,000 mm 0,0 UV-I 261 W/m -3,3 C -3,2 C 11,3 km/h (2 Bft) 98,00 %
15.12.2018 11:40 -1,9 C 3,9 C -0,6 C 90 % 1025,2 hPa 0,0 l/m 6,3 km/h (2 Bft) W-SW 241 2 min 0,000 mm 0,0 UV-I 265 W/m -3,3 C -1,9 C 9,7 km/h (2 Bft) 93,62 %
15.12.2018 11:42 -1,9 C 3,9 C -0,6 C 90 % 1025,2 hPa 0,0 l/m 6,3 km/h (2 Bft) SW 223 2 min 0,000 mm 0,0 UV-I 268 W/m -3,3 C -1,9 C 12,9 km/h (3 Bft) 97,87 %
15.12.2018 11:44 -1,9 C 3,9 C -0,6 C 90 % 1025,1 hPa 0,0 l/m 6,4 km/h (2 Bft) W-SW 244 2 min 0,000 mm 0,0 UV-I 272 W/m -3,3 C -1,9 C 12,9 km/h (3 Bft) 100,00 %
15.12.2018 11:46 -1,8 C 3,9 C -0,6 C 90 % 1025,1 hPa 0,0 l/m 6,4 km/h (2 Bft) SW 235 2 min 0,000 mm 0,0 UV-I 274 W/m -3,2 C -1,8 C 11,3 km/h (2 Bft) 100,00 %
15.12.2018 11:48 -1,8 C 3,9 C -0,6 C 89 % 1025,1 hPa 0,0 l/m 8,6 km/h (2 Bft) W-SW 250 2 min 0,000 mm 0,0 UV-I 274 W/m -3,4 C -4,1 C 16,1 km/h (3 Bft) 100,00 %
15.12.2018 11:50 -1,7 C 3,9 C 0,0 C 89 % 1025,1 hPa 0,0 l/m 5,7 km/h (1 Bft) SW 220 2 min 0,000 mm 0,0 UV-I 270 W/m -3,3 C -1,7 C 12,9 km/h (3 Bft) 95,74 %
15.12.2018 11:52 -1,7 C 3,9 C 0,0 C 89 % 1025,1 hPa 0,0 l/m 8,0 km/h (2 Bft) W-SW 246 2 min 0,000 mm 0,0 UV-I 265 W/m -3,3 C -3,4 C 14,5 km/h (3 Bft) 100,00 %
15.12.2018 11:54 -1,7 C 3,9 C 0,0 C 89 % 1025,1 hPa 0,0 l/m 5,8 km/h (2 Bft) W 262 2 min 0,000 mm 0,0 UV-I 262 W/m -3,3 C -1,7 C 9,7 km/h (2 Bft) 93,62 %
15.12.2018 11:56 -1,7 C 3,9 C 0,0 C 89 % 1025,1 hPa 0,0 l/m 6,7 km/h (2 Bft) W-SW 258 2 min 0,000 mm 0,0 UV-I 259 W/m -3,3 C -2,0 C 11,3 km/h (2 Bft) 97,87 %
15.12.2018 11:58 -1,7 C 3,9 C 0,0 C 89 % 1025,1 hPa 0,0 l/m 7,6 km/h (2 Bft) SW 234 2 min 0,000 mm 0,0 UV-I 260 W/m -3,3 C -3,0 C 12,9 km/h (3 Bft) 100,00 %
15.12.2018 12:00 -1,7 C 3,9 C -0,6 C 89 % 1025,1 hPa 0,0 l/m 6,7 km/h (2 Bft) SW 233 2 min 0,076 mm 0,0 UV-I 258 W/m -3,3 C -2,0 C 11,3 km/h (2 Bft) 100,00 %
15.12.2018 12:02 -1,7 C 3,9 C -0,6 C 89 % 1025,0 hPa 0,0 l/m 6,9 km/h (2 Bft) S-SW 209 2 min 0,000 mm 0,0 UV-I 258 W/m -3,3 C -2,2 C 11,3 km/h (2 Bft) 98,00 %
15.12.2018 12:04 -1,7 C 3,9 C -0,6 C 89 % 1025,0 hPa 0,0 l/m 7,1 km/h (2 Bft) W-SW 248 2 min 0,000 mm 0,0 UV-I 254 W/m -3,3 C -2,5 C 12,9 km/h (3 Bft) 100,00 %
15.12.2018 12:06 -1,8 C 3,9 C -0,6 C 89 % 1025,0 hPa 0,0 l/m 7,7 km/h (2 Bft) W 259 2 min 0,000 mm 0,0 UV-I 249 W/m -3,4 C -3,2 C 12,9 km/h (3 Bft) 100,00 %
15.12.2018 12:08 -1,8 C 3,9 C -0,6 C 89 % 1025,0 hPa 0,0 l/m 7,7 km/h (2 Bft) SW 221 2 min 0,000 mm 0,0 UV-I 244 W/m -3,4 C -3,2 C 12,9 km/h (3 Bft) 100,00 %
15.12.2018 12:10 -1,8 C 3,9 C -0,6 C 89 % 1025,0 hPa 0,0 l/m 6,8 km/h (2 Bft) SW 215 2 min 0,000 mm 0,0 UV-I 247 W/m -3,4 C -2,2 C 9,7 km/h (2 Bft) 100,00 %
15.12.2018 12:12 -1,7 C 3,9 C -0,6 C 89 % 1025,0 hPa 0,0 l/m 7,6 km/h (2 Bft) SW 223 2 min 0,000 mm 0,0 UV-I 248 W/m -3,3 C -3,0 C 12,9 km/h (3 Bft) 97,87 %
15.12.2018 12:14 -1,7 C 3,9 C -0,6 C 89 % 1025,0 hPa 0,0 l/m 7,8 km/h (2 Bft) SW 221 2 min 0,000 mm 0,0 UV-I 250 W/m -3,3 C -3,2 C 12,9 km/h (3 Bft) 95,74 %
15.12.2018 12:16 -1,7 C 3,9 C -0,6 C 89 % 1024,9 hPa 0,0 l/m 8,2 km/h (2 Bft) S-SW 207 2 min 0,000 mm 0,0 UV-I 255 W/m -3,3 C -3,6 C 12,9 km/h (3 Bft) 98,00 %
15.12.2018 12:18 -1,7 C 3,9 C -0,6 C 88 % 1024,9 hPa 0,0 l/m 8,8 km/h (2 Bft) SW 227 2 min 0,000 mm 0,0 UV-I 261 W/m -3,4 C -4,2 C 12,9 km/h (3 Bft) 97,87 %
15.12.2018 12:20 -1,6 C 3,9 C 0,0 C 89 % 1024,9 hPa 0,0 l/m 8,3 km/h (2 Bft) S-SW 193 2 min 0,000 mm 0,0 UV-I 258 W/m -3,2 C -3,6 C 16,1 km/h (3 Bft) 95,74 %
15.12.2018 12:22 -1,6 C 3,9 C -0,6 C 88 % 1024,9 hPa 0,0 l/m 7,4 km/h (2 Bft) S-SW 208 2 min 0,000 mm 0,0 UV-I 260 W/m -3,3 C -2,7 C 12,9 km/h (3 Bft) 95,74 %
15.12.2018 12:24 -1,5 C 3,9 C -0,6 C 88 % 1024,9 hPa 0,0 l/m 8,9 km/h (2 Bft) S-SW 205 2 min 0,000 mm 0,0 UV-I 261 W/m -3,2 C -4,1 C 12,9 km/h (3 Bft) 93,62 %
15.12.2018 12:26 -1,5 C 3,9 C 0,0 C 88 % 1024,8 hPa 0,0 l/m 7,7 km/h (2 Bft) SW 229 2 min 0,000 mm 0,0 UV-I 274 W/m -3,2 C -2,9 C 12,9 km/h (3 Bft) 94,74 %
15.12.2018 12:28 -1,4 C 3,9 C 0,0 C 88 % 1024,8 hPa 0,0 l/m 8,2 km/h (2 Bft) SW 229 2 min 0,000 mm 0,0 UV-I 287 W/m -3,1 C -3,3 C 12,9 km/h (3 Bft) 93,62 %
15.12.2018 12:30 -1,4 C 3,9 C 0,0 C 88 % 1024,8 hPa 0,0 l/m 7,7 km/h (2 Bft) SW 221 2 min 0,000 mm 0,0 UV-I 293 W/m -3,1 C -2,8 C 12,9 km/h (3 Bft) 95,74 %
15.12.2018 12:32 -1,4 C 3,9 C 0,0 C 88 % 1024,8 hPa 0,0 l/m 9,6 km/h (2 Bft) W-SW 238 2 min 0,000 mm 0,0 UV-I 289 W/m -3,1 C -4,6 C 12,9 km/h (3 Bft) 93,62 %
15.12.2018 12:34 -1,3 C 3,9 C 0,0 C 88 % 1024,7 hPa 0,0 l/m 9,5 km/h (2 Bft) SW 218 2 min 0,000 mm 0,0 UV-I 285 W/m -3,0 C -4,4 C 14,5 km/h (3 Bft) 93,62 %
15.12.2018 12:36 -1,3 C 3,9 C 0,0 C 87 % 1024,8 hPa 0,0 l/m 8,8 km/h (2 Bft) W-SW 257 2 min 0,000 mm 0,0 UV-I 283 W/m -3,2 C -3,8 C 14,5 km/h (3 Bft) 98,00 %
15.12.2018 12:38 -1,3 C 3,9 C 0,0 C 87 % 1024,8 hPa 0,0 l/m 9,4 km/h (2 Bft) S-SW 209 2 min 0,000 mm 0,0 UV-I 284 W/m -3,2 C -4,4 C 17,7 km/h (3 Bft) 96,00 %
15.12.2018 12:40 -1,3 C 3,9 C 0,0 C 87 % 1024,8 hPa 0,0 l/m 8,3 km/h (2 Bft) W-SW 250 2 min 0,000 mm 0,0 UV-I 298 W/m -3,2 C -3,3 C 12,9 km/h (3 Bft) 100,00 %
15.12.2018 12:42 -1,2 C 3,9 C 0,6 C 87 % 1024,8 hPa 0,0 l/m 10,6 km/h (2 Bft) S-SW 205 2 min 0,000 mm 0,0 UV-I 310 W/m -3,1 C -5,3 C 17,7 km/h (3 Bft) 100,00 %
15.12.2018 12:44 -1,2 C 3,9 C 0,6 C 87 % 1024,8 hPa 0,0 l/m 9,0 km/h (2 Bft) SW 227 2 min 0,000 mm 0,0 UV-I 318 W/m -3,1 C -3,9 C 16,1 km/h (3 Bft) 100,00 %
15.12.2018 12:46 -1,2 C 3,9 C 0,6 C 87 % 1024,8 hPa 0,0 l/m 9,2 km/h (2 Bft) W-SW 248 2 min 0,000 mm 0,0 UV-I 322 W/m -3,1 C -4,1 C 14,5 km/h (3 Bft) 100,00 %
15.12.2018 12:48 -1,1 C 3,9 C 0,6 C 87 % 1024,8 hPa 0,0 l/m 10,3 km/h (2 Bft) W-SW 258 2 min 0,000 mm 0,0 UV-I 320 W/m -3,0 C -4,9 C 16,1 km/h (3 Bft) 100,00 %
15.12.2018 12:50 -1,1 C 3,9 C 1,1 C 87 % 1024,8 hPa 0,0 l/m 9,8 km/h (2 Bft) SW 236 2 min 0,000 mm 0,0 UV-I 304 W/m -3,0 C -4,5 C 14,5 km/h (3 Bft) 98,00 %
15.12.2018 12:52 -1,1 C 3,9 C 1,1 C 87 % 1024,8 hPa 0,0 l/m 7,1 km/h (2 Bft) SW 218 2 min 0,000 mm 0,0 UV-I 329 W/m -3,0 C -1,9 C 11,3 km/h (2 Bft) 100,00 %
15.12.2018 12:54 -1,0 C 3,9 C 1,7 C 87 % 1024,8 hPa 0,0 l/m 7,6 km/h (2 Bft) SW 234 2 min 0,000 mm 0,0 UV-I 351 W/m -2,9 C -2,3 C 14,5 km/h (3 Bft) 100,00 %
15.12.2018 12:56 -0,9 C 3,9 C 1,7 C 86 % 1024,7 hPa 0,0 l/m 8,2 km/h (2 Bft) SW 215 2 min 0,000 mm 0,0 UV-I 349 W/m -2,9 C -2,8 C 11,3 km/h (2 Bft) 97,87 %
15.12.2018 12:58 -0,9 C 3,9 C 1,7 C 86 % 1024,7 hPa 0,0 l/m 8,2 km/h (2 Bft) W-SW 248 2 min 0,000 mm 0,0 UV-I 331 W/m -2,9 C -2,8 C 14,5 km/h (3 Bft) 95,74 %
15.12.2018 13:00 -0,9 C 3,9 C 1,1 C 86 % 1024,7 hPa 0,0 l/m 6,1 km/h (2 Bft) W-SW 250 2 min 0,102 mm 0,0 UV-I 312 W/m -2,9 C -0,9 C 8,0 km/h (2 Bft) 100,00 %
15.12.2018 13:02 -0,9 C 3,9 C 1,1 C 85 % 1024,7 hPa 0,0 l/m 8,0 km/h (2 Bft) S-SW 213 2 min 0,000 mm 0,0 UV-I 293 W/m -3,1 C -2,6 C 12,9 km/h (3 Bft) 100,00 %
15.12.2018 13:04 -0,9 C 3,9 C 1,1 C 85 % 1024,7 hPa 0,0 l/m 7,9 km/h (2 Bft) SW 234 2 min 0,000 mm 0,0 UV-I 279 W/m -3,1 C -2,5 C 11,3 km/h (2 Bft) 97,87 %
15.12.2018 13:06 -0,9 C 3,9 C 1,1 C 85 % 1024,7 hPa 0,0 l/m 6,6 km/h (2 Bft) SW 225 2 min 0,000 mm 0,0 UV-I 267 W/m -3,1 C -1,1 C 9,7 km/h (2 Bft) 97,87 %
15.12.2018 13:08 -0,9 C 3,9 C 1,7 C 85 % 1024,6 hPa 0,0 l/m 7,6 km/h (2 Bft) W-SW 240 2 min 0,000 mm 0,0 UV-I 344 W/m -3,1 C -2,2 C 11,3 km/h (2 Bft) 100,00 %
15.12.2018 13:10 -0,8 C 3,9 C 2,2 C 85 % 1024,6 hPa 0,0 l/m 8,1 km/h (2 Bft) SW 220 2 min 0,000 mm 0,0 UV-I 338 W/m -3,0 C -2,6 C 12,9 km/h (3 Bft) 100,00 %
15.12.2018 13:12 -0,8 C 3,9 C 2,2 C 85 % 1024,6 hPa 0,0 l/m 7,5 km/h (2 Bft) S-SW 213 2 min 0,000 mm 0,0 UV-I 300 W/m -3,0 C -2,0 C 12,9 km/h (3 Bft) 100,00 %
15.12.2018 13:14 -0,8 C 3,9 C 1,7 C 85 % 1024,5 hPa 0,0 l/m 7,6 km/h (2 Bft) SW 233 2 min 0,000 mm 0,0 UV-I 263 W/m -3,0 C -2,1 C 11,3 km/h (2 Bft) 100,00 %
15.12.2018 13:16 -0,8 C 3,9 C 1,1 C 85 % 1024,5 hPa 0,0 l/m 7,7 km/h (2 Bft) W-SW 243 2 min 0,000 mm 0,0 UV-I 238 W/m -3,0 C -2,2 C 9,7 km/h (2 Bft) 100,00 %
15.12.2018 13:18 -0,8 C 3,9 C 1,1 C 85 % 1024,5 hPa 0,0 l/m 6,4 km/h (2 Bft) SW 231 2 min 0,000 mm 0,0 UV-I 227 W/m -3,0 C -0,8 C 11,3 km/h (2 Bft) 100,00 %
15.12.2018 13:20 -0,8 C 3,9 C 0,6 C 85 % 1024,5 hPa 0,0 l/m 6,4 km/h (2 Bft) SW 234 2 min 0,000 mm 0,0 UV-I 223 W/m -3,0 C -0,8 C 9,7 km/h (2 Bft) 100,00 %
15.12.2018 13:22 -0,8 C 3,9 C 0,6 C 85 % 1024,5 hPa 0,0 l/m 6,2 km/h (2 Bft) SW 221 2 min 0,000 mm 0,0 UV-I 222 W/m -3,0 C -0,8 C 11,3 km/h (2 Bft) 100,00 %
15.12.2018 13:24 -0,8 C 3,9 C 0,6 C 84 % 1024,5 hPa 0,0 l/m 7,0 km/h (2 Bft) W-SW 238 2 min 0,000 mm 0,0 UV-I 232 W/m -3,2 C -1,4 C 9,7 km/h (2 Bft) 100,00 %
15.12.2018 13:26 -0,8 C 3,9 C 0,6 C 84 % 1024,5 hPa 0,0 l/m 8,1 km/h (2 Bft) W-SW 249 2 min 0,000 mm 0,0 UV-I 246 W/m -3,2 C -2,6 C 12,9 km/h (3 Bft) 100,00 %
15.12.2018 13:28 -0,9 C 3,9 C 0,6 C 84 % 1024,5 hPa 0,0 l/m 7,5 km/h (2 Bft) SW 234 2 min 0,000 mm 0,0 UV-I 252 W/m -3,3 C -2,1 C 11,3 km/h (2 Bft) 100,00 %
15.12.2018 13:30 -0,9 C 3,9 C 0,6 C 84 % 1024,5 hPa 0,0 l/m 6,7 km/h (2 Bft) SW 222 2 min 0,000 mm 0,0 UV-I 248 W/m -3,3 C -1,2 C 11,3 km/h (2 Bft) 93,62 %
15.12.2018 13:32 -0,9 C 3,9 C 0,6 C 84 % 1024,4 hPa 0,0 l/m 8,5 km/h (2 Bft) SW 232 2 min 0,000 mm 0,0 UV-I 253 W/m -3,3 C -3,1 C 12,9 km/h (3 Bft) 93,62 %
15.12.2018 13:34 -0,9 C 3,9 C 0,6 C 84 % 1024,4 hPa 0,0 l/m 6,0 km/h (2 Bft) W-SW 252 2 min 0,000 mm 0,0 UV-I 206 W/m -3,3 C -0,9 C 11,3 km/h (2 Bft) 97,87 %
15.12.2018 13:36 -0,9 C 3,9 C 0,6 C 84 % 1024,4 hPa 0,0 l/m 6,4 km/h (2 Bft) W-SW 237 2 min 0,000 mm 0,0 UV-I 223 W/m -3,3 C -0,9 C 11,3 km/h (2 Bft) 89,36 %
15.12.2018 13:38 -0,9 C 3,9 C 0,6 C 85 % 1024,4 hPa 0,0 l/m 6,6 km/h (2 Bft) W-SW 244 2 min 0,000 mm 0,0 UV-I 229 W/m -3,1 C -1,1 C 11,3 km/h (2 Bft) 94,34 %
15.12.2018 13:40 -0,9 C 3,9 C 0,6 C 85 % 1024,4 hPa 0,0 l/m 6,5 km/h (2 Bft) S-SW 192 2 min 0,000 mm 0,0 UV-I 175 W/m -3,1 C -1,0 C 11,3 km/h (2 Bft) 93,62 %
15.12.2018 13:42 -0,9 C 3,9 C 0,0 C 84 % 1024,4 hPa 0,0 l/m 7,3 km/h (2 Bft) SW 230 2 min 0,000 mm 0,0 UV-I 167 W/m -3,3 C -1,9 C 11,3 km/h (2 Bft) 93,62 %
15.12.2018 13:44 -1,0 C 3,9 C 0,0 C 84 % 1024,3 hPa 0,0 l/m 7,5 km/h (2 Bft) SW 225 2 min 0,000 mm 0,0 UV-I 215 W/m -3,4 C -2,2 C 11,3 km/h (2 Bft) 95,74 %
15.12.2018 13:46 -1,0 C 3,9 C 0,0 C 84 % 1024,3 hPa 0,0 l/m 5,8 km/h (2 Bft) W-SW 251 2 min 0,000 mm 0,0 UV-I 214 W/m -3,4 C -1,0 C 9,7 km/h (2 Bft) 95,74 %
15.12.2018 13:48 -0,8 C 3,9 C 0,6 C 85 % 1024,3 hPa 0,0 l/m 4,1 km/h (1 Bft) SW 223 2 min 0,000 mm 0,0 UV-I 222 W/m -3,0 C -0,8 C 8,0 km/h (2 Bft) 94,74 %
15.12.2018 13:50 -0,8 C 3,9 C 0,6 C 84 % 1024,3 hPa 0,0 l/m 6,2 km/h (2 Bft) W-SW 248 2 min 0,000 mm 0,0 UV-I 215 W/m -3,2 C -0,8 C 9,7 km/h (2 Bft) 95,83 %
15.12.2018 13:52 -0,7 C 3,9 C 0,6 C 84 % 1024,4 hPa 0,0 l/m 6,2 km/h (2 Bft) SW 221 2 min 0,000 mm 0,0 UV-I 221 W/m -3,1 C -0,7 C 9,7 km/h (2 Bft) 95,74 %
15.12.2018 13:54 -0,8 C 3,9 C 0,6 C 83 % 1024,4 hPa 0,0 l/m 6,4 km/h (2 Bft) W-SW 238 2 min 0,000 mm 0,0 UV-I 224 W/m -3,3 C -0,8 C 9,7 km/h (2 Bft) 97,87 %
15.12.2018 13:56 -0,8 C 3,9 C 0,6 C 83 % 1024,4 hPa 0,0 l/m 5,1 km/h (1 Bft) SW 222 2 min 0,000 mm 0,0 UV-I 216 W/m -3,3 C -0,8 C 8,0 km/h (2 Bft) 97,87 %
15.12.2018 13:58 -0,8 C 3,9 C 0,6 C 83 % 1024,4 hPa 0,0 l/m 7,2 km/h (2 Bft) W-SW 250 2 min 0,000 mm 0,0 UV-I 191 W/m -3,3 C -1,7 C 11,3 km/h (2 Bft) 93,62 %
15.12.2018 14:00 -0,9 C 3,9 C 0,6 C 83 % 1024,4 hPa 0,0 l/m 5,4 km/h (1 Bft) W-SW 256 2 min 0,076 mm 0,0 UV-I 244 W/m -3,4 C -0,9 C 8,0 km/h (2 Bft) 100,00 %
15.12.2018 14:02 -0,8 C 3,9 C 0,6 C 84 % 1024,5 hPa 0,0 l/m 5,1 km/h (1 Bft) SW 230 2 min 0,000 mm 0,0 UV-I 242 W/m -3,2 C -0,8 C 11,3 km/h (2 Bft) 97,37 %
15.12.2018 14:04 -0,8 C 3,9 C 1,1 C 83 % 1024,5 hPa 0,0 l/m 5,4 km/h (1 Bft) S-SW 203 2 min 0,000 mm 0,0 UV-I 242 W/m -3,3 C -0,8 C 9,7 km/h (2 Bft) 100,00 %
15.12.2018 14:06 -0,7 C 3,9 C 1,1 C 83 % 1024,5 hPa 0,0 l/m 5,9 km/h (2 Bft) W-SW 248 2 min 0,000 mm 0,0 UV-I 248 W/m -3,2 C -0,7 C 11,3 km/h (2 Bft) 100,00 %
15.12.2018 14:08 -0,6 C 3,9 C 1,1 C 83 % 1024,5 hPa 0,0 l/m 8,3 km/h (2 Bft) S-SW 211 2 min 0,000 mm 0,0 UV-I 231 W/m -3,1 C -2,6 C 11,3 km/h (2 Bft) 97,87 %
15.12.2018 14:10 -0,6 C 3,9 C 0,6 C 82 % 1024,5 hPa 0,0 l/m 6,4 km/h (2 Bft) S-SW 211 2 min 0,000 mm 0,0 UV-I 202 W/m -3,3 C -0,6 C 9,7 km/h (2 Bft) 97,87 %
15.12.2018 14:12 -0,6 C 3,9 C 0,6 C 82 % 1024,5 hPa 0,0 l/m 5,6 km/h (1 Bft) SW 223 2 min 0,000 mm 0,0 UV-I 185 W/m -3,3 C -0,6 C 9,7 km/h (2 Bft) 100,00 %
15.12.2018 14:14 -0,7 C 3,9 C 0,0 C 82 % 1024,5 hPa 0,0 l/m 5,3 km/h (1 Bft) W-SW 242 2 min 0,000 mm 0,0 UV-I 171 W/m -3,4 C -0,7 C 9,7 km/h (2 Bft) 98,00 %
15.12.2018 14:16 -0,8 C 3,9 C -0,6 C 82 % 1024,5 hPa 0,0 l/m 7,2 km/h (2 Bft) W 277 2 min 0,000 mm 0,0 UV-I 166 W/m -3,5 C -1,7 C 11,3 km/h (2 Bft) 100,00 %
15.12.2018 14:18 -0,8 C 3,9 C -0,6 C 82 % 1024,5 hPa 0,0 l/m 4,6 km/h (1 Bft) W 261 2 min 0,000 mm 0,0 UV-I 166 W/m -3,5 C -0,8 C 6,4 km/h (2 Bft) 100,00 %
15.12.2018 14:20 -0,8 C 3,9 C -0,6 C 82 % 1024,5 hPa 0,0 l/m 5,4 km/h (1 Bft) W-SW 253 2 min 0,000 mm 0,0 UV-I 164 W/m -3,5 C -0,8 C 8,0 km/h (2 Bft) 100,00 %
15.12.2018 14:22 -0,9 C 3,9 C -0,6 C 82 % 1024,5 hPa 0,0 l/m 5,8 km/h (2 Bft) W 261 2 min 0,000 mm 0,0 UV-I 152 W/m -3,6 C -0,9 C 8,0 km/h (2 Bft) 100,00 %
15.12.2018 14:24 -0,9 C 3,9 C -0,6 C 82 % 1024,5 hPa 0,0 l/m 5,9 km/h (2 Bft) SW 217 2 min 0,000 mm 0,0 UV-I 155 W/m -3,6 C -0,9 C 8,0 km/h (2 Bft) 100,00 %
15.12.2018 14:26 -0,9 C 3,9 C -0,6 C 82 % 1024,6 hPa 0,0 l/m 7,2 km/h (2 Bft) W-SW 240 2 min 0,000 mm 0,0 UV-I 148 W/m -3,6 C -1,8 C 12,9 km/h (3 Bft) 97,92 %
15.12.2018 14:28 -0,9 C 3,9 C -0,6 C 82 % 1024,6 hPa 0,0 l/m 6,0 km/h (2 Bft) W-SW 257 2 min 0,000 mm 0,0 UV-I 160 W/m -3,6 C -0,9 C 9,7 km/h (2 Bft) 100,00 %
15.12.2018 14:30 -1,0 C 3,9 C 0,0 C 82 % 1024,6 hPa 0,0 l/m 5,1 km/h (1 Bft) SW 217 2 min 0,000 mm 0,0 UV-I 153 W/m -3,7 C -1,0 C 9,7 km/h (2 Bft) 100,00 %
15.12.2018 14:32 -1,0 C 3,9 C 0,0 C 82 % 1024,6 hPa 0,0 l/m 5,5 km/h (1 Bft) W-SW 242 2 min 0,000 mm 0,0 UV-I 170 W/m -3,7 C -1,0 C 8,0 km/h (2 Bft) 100,00 %
15.12.2018 14:34 -1,0 C 3,9 C 0,0 C 82 % 1024,7 hPa 0,0 l/m 5,4 km/h (1 Bft) SW 233 2 min 0,000 mm 0,0 UV-I 167 W/m -3,7 C -1,0 C 8,0 km/h (2 Bft) 100,00 %
15.12.2018 14:36 -1,0 C 3,9 C 0,0 C 82 % 1024,7 hPa 0,0 l/m 6,0 km/h (2 Bft) SW 221 2 min 0,000 mm 0,0 UV-I 160 W/m -3,7 C -1,0 C 12,9 km/h (3 Bft) 100,00 %
15.12.2018 14:38 -1,0 C 3,9 C 0,0 C 82 % 1024,7 hPa 0,0 l/m 6,8 km/h (2 Bft) SW 216 2 min 0,000 mm 0,0 UV-I 152 W/m -3,7 C -1,4 C 11,3 km/h (2 Bft) 98,00 %
15.12.2018 14:40 -1,1 C 3,9 C -0,6 C 83 % 1024,7 hPa 0,0 l/m 6,0 km/h (2 Bft) SW 234 2 min 0,000 mm 0,0 UV-I 137 W/m -3,6 C -1,1 C 9,7 km/h (2 Bft) 97,87 %
15.12.2018 14:42 -1,1 C 3,9 C -1,1 C 83 % 1024,7 hPa 0,0 l/m 6,2 km/h (2 Bft) S-SW 203 2 min 0,000 mm 0,0 UV-I 118 W/m -3,6 C -1,1 C 11,3 km/h (2 Bft) 93,62 %
15.12.2018 14:44 -1,2 C 3,9 C -1,1 C 83 % 1024,7 hPa 0,0 l/m 5,7 km/h (1 Bft) SW 236 2 min 0,000 mm 0,0 UV-I 101 W/m -3,7 C -1,2 C 9,7 km/h (2 Bft) 94,74 %
15.12.2018 14:46 -1,2 C 3,9 C -1,7 C 83 % 1024,7 hPa 0,0 l/m 7,2 km/h (2 Bft) SW 215 0 min 0,000 mm 0,0 UV-I 79 W/m -3,7 C -2,1 C 11,3 km/h (2 Bft) 96,49 %
15.12.2018 14:48 -1,3 C 3,9 C -1,7 C 83 % 1024,8 hPa 0,0 l/m 5,0 km/h (1 Bft) S-SW 210 2 min 0,000 mm 0,0 UV-I 91 W/m -3,8 C -1,3 C 8,0 km/h (2 Bft) 100,00 %
15.12.2018 14:50 -1,3 C 3,9 C -1,7 C 84 % 1024,8 hPa 0,0 l/m 7,3 km/h (2 Bft) SW 230 0 min 0,000 mm 0,0 UV-I 82 W/m -3,6 C -2,3 C 9,7 km/h (2 Bft) 93,62 %
15.12.2018 14:52 -1,4 C 3,9 C -1,7 C 84 % 1024,7 hPa 0,0 l/m 6,0 km/h (2 Bft) SW 225 0 min 0,000 mm 0,0 UV-I 76 W/m -3,7 C -1,4 C 11,3 km/h (2 Bft) 95,74 %
15.12.2018 14:54 -1,4 C 3,9 C -1,7 C 84 % 1024,7 hPa 0,0 l/m 7,3 km/h (2 Bft) S-SW 204 2 min 0,000 mm 0,0 UV-I 92 W/m -3,7 C -2,4 C 9,7 km/h (2 Bft) 95,74 %
15.12.2018 14:56 -1,4 C 3,9 C -1,7 C 84 % 1024,7 hPa 0,0 l/m 6,4 km/h (2 Bft) SW 232 2 min 0,000 mm 0,0 UV-I 84 W/m -3,7 C -1,4 C 9,7 km/h (2 Bft) 97,87 %
15.12.2018 14:58 -1,4 C 3,9 C -2,2 C 84 % 1024,7 hPa 0,0 l/m 5,8 km/h (2 Bft) SW 227 2 min 0,000 mm 0,0 UV-I 87 W/m -3,7 C -1,4 C 11,3 km/h (2 Bft) 100,00 %
15.12.2018 15:00 -1,5 C 3,9 C -2,2 C 84 % 1024,7 hPa 0,0 l/m 6,6 km/h (2 Bft) W-SW 243 2 min 0,051 mm 0,0 UV-I 90 W/m -3,8 C -1,7 C 9,7 km/h (2 Bft) 98,00 %
15.12.2018 15:02 -1,5 C 3,9 C -2,2 C 85 % 1024,7 hPa 0,0 l/m 6,5 km/h (2 Bft) W-SW 248 2 min 0,000 mm 0,0 UV-I 88 W/m -3,7 C -1,6 C 9,7 km/h (2 Bft) 100,00 %
15.12.2018 15:04 -1,6 C 3,9 C -2,2 C 85 % 1024,7 hPa 0,0 l/m 8,0 km/h (2 Bft) SW 232 2 min 0,000 mm 0,0 UV-I 86 W/m -3,8 C -3,3 C 12,9 km/h (3 Bft) 100,00 %
15.12.2018 15:06 -1,6 C 3,9 C -2,2 C 85 % 1024,7 hPa 0,0 l/m 8,2 km/h (2 Bft) W-SW 243 2 min 0,000 mm 0,0 UV-I 89 W/m -3,8 C -3,5 C 12,9 km/h (3 Bft) 95,83 %
15.12.2018 15:08 -1,6 C 3,9 C -2,2 C 85 % 1024,8 hPa 0,0 l/m 8,8 km/h (2 Bft) W-SW 240 2 min 0,000 mm 0,0 UV-I 87 W/m -3,8 C -4,1 C 12,9 km/h (3 Bft) 100,00 %
15.12.2018 15:10 -1,6 C 3,9 C -2,2 C 85 % 1024,8 hPa 0,0 l/m 8,0 km/h (2 Bft) W-SW 238 2 min 0,000 mm 0,0 UV-I 78 W/m -3,8 C -3,3 C 12,9 km/h (3 Bft) 95,83 %
15.12.2018 15:12 -1,7 C 3,9 C -2,2 C 85 % 1024,7 hPa 0,0 l/m 9,6 km/h (2 Bft) SW 229 2 min 0,000 mm 0,0 UV-I 66 W/m -3,9 C -5,0 C 12,9 km/h (3 Bft) 95,74 %
15.12.2018 15:14 -1,7 C 3,9 C -2,2 C 85 % 1024,7 hPa 0,0 l/m 7,3 km/h (2 Bft) W-SW 254 2 min 0,000 mm 0,0 UV-I 62 W/m -3,9 C -2,7 C 12,9 km/h (3 Bft) 100,00 %
15.12.2018 15:16 -1,8 C 3,9 C -2,2 C 85 % 1024,7 hPa 0,0 l/m 6,7 km/h (2 Bft) W-SW 241 0 min 0,000 mm 0,0 UV-I 58 W/m -4,0 C -2,1 C 11,3 km/h (2 Bft) 97,87 %
15.12.2018 15:18 -1,8 C 3,9 C -2,2 C 85 % 1024,8 hPa 0,0 l/m 5,5 km/h (1 Bft) SW 234 0 min 0,000 mm 0,0 UV-I 55 W/m -4,0 C -1,8 C 8,0 km/h (2 Bft) 97,87 %
15.12.2018 15:20 -1,8 C 3,9 C -2,2 C 85 % 1024,7 hPa 0,0 l/m 5,7 km/h (1 Bft) SW 215 0 min 0,000 mm 0,0 UV-I 53 W/m -4,0 C -1,8 C 11,3 km/h (2 Bft) 97,87 %
15.12.2018 15:22 -1,9 C 3,9 C -2,2 C 85 % 1024,7 hPa 0,0 l/m 5,5 km/h (1 Bft) W-SW 252 2 min 0,000 mm 0,0 UV-I 56 W/m -4,1 C -1,9 C 12,9 km/h (3 Bft) 95,74 %
15.12.2018 15:24 -1,9 C 3,9 C -2,2 C 85 % 1024,7 hPa 0,0 l/m 6,8 km/h (2 Bft) SW 223 2 min 0,000 mm 0,0 UV-I 60 W/m -4,1 C -2,3 C 11,3 km/h (2 Bft) 93,62 %
15.12.2018 15:26 -1,9 C 3,9 C -2,2 C 85 % 1024,7 hPa 0,0 l/m 5,2 km/h (1 Bft) S-SW 206 2 min 0,000 mm 0,0 UV-I 60 W/m -4,1 C -1,9 C 9,7 km/h (2 Bft) 95,74 %
15.12.2018 15:28 -1,9 C 3,9 C -2,2 C 85 % 1024,7 hPa 0,0 l/m 5,8 km/h (2 Bft) SW 235 2 min 0,000 mm 0,0 UV-I 57 W/m -4,1 C -1,9 C 12,9 km/h (3 Bft) 95,74 %
15.12.2018 15:30 -1,9 C 3,9 C -2,2 C 85 % 1024,7 hPa 0,0 l/m 6,5 km/h (2 Bft) SW 226 2 min 0,000 mm 0,0 UV-I 53 W/m -4,1 C -2,0 C 11,3 km/h (2 Bft) 96,00 %
15.12.2018 15:32 -1,9 C 3,9 C -2,2 C 85 % 1024,7 hPa 0,0 l/m 5,6 km/h (1 Bft) SW 234 2 min 0,000 mm 0,0 UV-I 47 W/m -4,1 C -1,9 C 11,3 km/h (2 Bft) 92,11 %
15.12.2018 15:34 -1,9 C 3,9 C -2,2 C 85 % 1024,7 hPa 0,0 l/m 6,0 km/h (2 Bft) W 261 2 min 0,000 mm 0,0 UV-I 45 W/m -4,1 C -1,9 C 11,3 km/h (2 Bft) 97,87 %
15.12.2018 15:36 -1,9 C 3,9 C -2,2 C 85 % 1024,7 hPa 0,0 l/m 6,2 km/h (2 Bft) W-SW 247 2 min 0,000 mm 0,0 UV-I 42 W/m -4,1 C -1,9 C 11,3 km/h (2 Bft) 97,87 %
15.12.2018 15:38 -2,0 C 3,9 C -2,2 C 85 % 1024,7 hPa 0,0 l/m 5,4 km/h (1 Bft) W-SW 244 2 min 0,000 mm 0,0 UV-I 39 W/m -4,2 C -2,0 C 8,0 km/h (2 Bft) 97,87 %
15.12.2018 15:40 -2,0 C 3,9 C -2,2 C 86 % 1024,7 hPa 0,0 l/m 5,7 km/h (1 Bft) W-SW 250 2 min 0,000 mm 0,0 UV-I 37 W/m -4,0 C -2,0 C 9,7 km/h (2 Bft) 96,00 %
15.12.2018 15:42 -2,0 C 3,9 C -2,2 C 86 % 1024,6 hPa 0,0 l/m 5,0 km/h (1 Bft) SW 227 2 min 0,000 mm 0,0 UV-I 34 W/m -4,0 C -2,0 C 8,0 km/h (2 Bft) 95,74 %
15.12.2018 15:44 -2,1 C 3,9 C -2,2 C 86 % 1024,6 hPa 0,0 l/m 5,3 km/h (1 Bft) W-SW 242 2 min 0,000 mm 0,0 UV-I 32 W/m -4,1 C -2,1 C 8,0 km/h (2 Bft) 97,87 %
15.12.2018 15:46 -2,1 C 3,9 C -2,2 C 86 % 1024,7 hPa 0,0 l/m 6,7 km/h (2 Bft) W-SW 238 2 min 0,000 mm 0,0 UV-I 29 W/m -4,1 C -2,4 C 9,7 km/h (2 Bft) 97,87 %
15.12.2018 15:48 -2,1 C 3,9 C -2,2 C 86 % 1024,7 hPa 0,0 l/m 6,4 km/h (2 Bft) W-SW 255 2 min 0,000 mm 0,0 UV-I 27 W/m -4,1 C -2,1 C 9,7 km/h (2 Bft) 95,74 %
15.12.2018 15:50 -2,1 C 3,9 C -2,2 C 86 % 1024,7 hPa 0,0 l/m 6,4 km/h (2 Bft) SW 236 2 min 0,000 mm 0,0 UV-I 25 W/m -4,1 C -2,1 C 11,3 km/h (2 Bft) 94,12 %
15.12.2018 15:52 -2,1 C 3,9 C -2,2 C 86 % 1024,7 hPa 0,0 l/m 5,6 km/h (1 Bft) W-SW 250 2 min 0,000 mm 0,0 UV-I 23 W/m -4,1 C -2,1 C 8,0 km/h (2 Bft) 93,62 %
15.12.2018 15:54 -2,1 C 3,9 C -2,2 C 86 % 1024,7 hPa 0,0 l/m 4,5 km/h (1 Bft) SW 233 2 min 0,000 mm 0,0 UV-I 20 W/m -4,1 C -2,1 C 6,4 km/h (2 Bft) 94,74 %
15.12.2018 15:56 -2,1 C 3,9 C -2,2 C 86 % 1024,7 hPa 0,0 l/m 5,5 km/h (1 Bft) W-SW 245 2 min 0,000 mm 0,0 UV-I 17 W/m -4,1 C -2,1 C 8,0 km/h (2 Bft) 96,00 %
15.12.2018 15:58 -2,1 C 3,9 C -2,2 C 86 % 1024,7 hPa 0,0 l/m 5,6 km/h (1 Bft) W-NW 289 0 min 0,000 mm 0,0 UV-I 16 W/m -4,1 C -2,1 C 8,0 km/h (2 Bft) 97,87 %
15.12.2018 16:00 -2,1 C 3,9 C -2,2 C 86 % 1024,7 hPa 0,0 l/m 5,4 km/h (1 Bft) W-SW 249 0 min 0,000 mm 0,0 UV-I 12 W/m -4,1 C -2,1 C 8,0 km/h (2 Bft) 97,87 %
15.12.2018 16:02 -2,1 C 3,9 C -2,2 C 87 % 1024,7 hPa 0,0 l/m 6,7 km/h (2 Bft) W-SW 247 0 min 0,025 mm 0,0 UV-I 11 W/m -4,0 C -2,4 C 9,7 km/h (2 Bft) 98,00 %
15.12.2018 16:04 -2,1 C 3,9 C -2,2 C 87 % 1024,7 hPa 0,0 l/m 6,1 km/h (2 Bft) W-SW 251 0 min 0,000 mm 0,0 UV-I 9 W/m -4,0 C -2,1 C 9,7 km/h (2 Bft) 94,74 %
15.12.2018 16:06 -2,1 C 3,9 C -2,2 C 87 % 1024,7 hPa 0,0 l/m 6,4 km/h (2 Bft) W-SW 238 0 min 0,000 mm 0,0 UV-I 9 W/m -4,0 C -2,1 C 8,0 km/h (2 Bft) 97,87 %
15.12.2018 16:08 -2,1 C 3,9 C -2,2 C 87 % 1024,7 hPa 0,0 l/m 6,1 km/h (2 Bft) W-SW 237 0 min 0,000 mm 0,0 UV-I 9 W/m -4,0 C -2,1 C 8,0 km/h (2 Bft) 97,87 %
15.12.2018 16:10 -2,2 C 3,9 C -2,2 C 87 % 1024,7 hPa 0,0 l/m 6,0 km/h (2 Bft) SW 235 0 min 0,000 mm 0,0 UV-I 7 W/m -4,1 C -2,2 C 8,0 km/h (2 Bft) 98,11 %
15.12.2018 16:12 -2,2 C 3,9 C -2,2 C 87 % 1024,7 hPa 0,0 l/m 5,5 km/h (1 Bft) W-SW 242 0 min 0,000 mm 0,0 UV-I 7 W/m -4,1 C -2,2 C 8,0 km/h (2 Bft) 100,00 %
15.12.2018 16:14 -2,2 C 3,9 C -2,2 C 87 % 1024,7 hPa 0,0 l/m 5,0 km/h (1 Bft) W-SW 246 0 min 0,000 mm 0,0 UV-I 7 W/m -4,1 C -2,2 C 8,0 km/h (2 Bft) 100,00 %
15.12.2018 16:16 -2,2 C 3,9 C -2,2 C 87 % 1024,7 hPa 0,0 l/m 6,2 km/h (2 Bft) W-SW 242 0 min 0,000 mm 0,0 UV-I 6 W/m -4,1 C -2,2 C 11,3 km/h (2 Bft) 97,87 %
15.12.2018 16:18 -2,2 C 3,9 C -2,2 C 87 % 1024,7 hPa 0,0 l/m 6,6 km/h (2 Bft) W-SW 252 0 min 0,000 mm 0,0 UV-I 5 W/m -4,1 C -2,4 C 9,7 km/h (2 Bft) 100,00 %
15.12.2018 16:20 -2,2 C 3,9 C -2,2 C 87 % 1024,7 hPa 0,0 l/m 6,3 km/h (2 Bft) SW 225 0 min 0,000 mm 0,0 UV-I 5 W/m -4,1 C -2,2 C 9,7 km/h (2 Bft) 97,87 %
15.12.2018 16:22 -2,2 C 3,9 C -2,2 C 87 % 1024,7 hPa 0,0 l/m 5,4 km/h (1 Bft) W-SW 238 0 min 0,000 mm 0,0 UV-I 5 W/m -4,1 C -2,2 C 8,0 km/h (2 Bft) 100,00 %
15.12.2018 16:24 -2,2 C 3,9 C -2,2 C 87 % 1024,7 hPa 0,0 l/m 6,0 km/h (2 Bft) W 260 0 min 0,000 mm 0,0 UV-I 1 W/m -4,1 C -2,2 C 9,7 km/h (2 Bft) 100,00 %
15.12.2018 16:26 -2,2 C 3,9 C -2,2 C 87 % 1024,6 hPa 0,0 l/m 4,7 km/h (1 Bft) SW 225 0 min 0,000 mm 0,0 UV-I 0 W/m -4,1 C -2,2 C 6,4 km/h (2 Bft) 100,00 %
15.12.2018 16:28 -2,2 C 3,9 C -2,2 C 87 % 1024,6 hPa 0,0 l/m 4,3 km/h (1 Bft) W-SW 241 0 min 0,000 mm 0,0 UV-I 0 W/m -4,1 C -2,2 C 6,4 km/h (2 Bft) 95,74 %
15.12.2018 16:30 -2,3 C 3,9 C -2,2 C 87 % 1024,7 hPa 0,0 l/m 3,2 km/h (1 Bft) W-SW 238 0 min 0,000 mm 0,0 UV-I 0 W/m -4,2 C -2,3 C 4,8 km/h (1 Bft) 100,00 %
15.12.2018 16:32 -2,3 C 3,9 C -2,2 C 88 % 1024,7 hPa 0,0 l/m 4,4 km/h (1 Bft) SW 214 0 min 0,000 mm 0,0 UV-I 0 W/m -4,0 C -2,3 C 6,4 km/h (2 Bft) 100,00 %
15.12.2018 16:34 -2,3 C 3,9 C -2,2 C 88 % 1024,7 hPa 0,0 l/m 5,1 km/h (1 Bft) S-SW 213 0 min 0,000 mm 0,0 UV-I 0 W/m -4,0 C -2,3 C 6,4 km/h (2 Bft) 97,87 %
15.12.2018 16:36 -2,3 C 3,9 C -2,2 C 88 % 1024,7 hPa 0,0 l/m 4,7 km/h (1 Bft) SW 224 0 min 0,000 mm 0,0 UV-I 0 W/m -4,0 C -2,3 C 6,4 km/h (2 Bft) 100,00 %
15.12.2018 16:39 -2,2 C 3,9 C -2,2 C 88 % 1024,6 hPa 0,0 l/m 2,7 km/h (1 Bft) SW 224 0 min 0,000 mm 0,0 UV-I 0 W/m -3,9 C -2,2 C 6,4 km/h (2 Bft) 100,00 %
15.12.2018 16:40 -2,2 C 3,9 C -2,2 C 88 % 1024,6 hPa 0,0 l/m 3,8 km/h (1 Bft) SW 224 0 min 0,000 mm 0,0 UV-I 0 W/m -3,9 C -2,2 C 4,8 km/h (1 Bft) 100,00 %
15.12.2018 16:42 -2,2 C 3,9 C -2,2 C 88 % 1024,6 hPa 0,0 l/m 3,3 km/h (1 Bft) SW 224 0 min 0,000 mm 0,0 UV-I 0 W/m -3,9 C -2,2 C 4,8 km/h (1 Bft) 95,74 %
15.12.2018 16:44 -2,3 C 3,9 C -2,2 C 88 % 1024,6 hPa 0,0 l/m 3,6 km/h (1 Bft) SW 234 0 min 0,000 mm 0,0 UV-I 0 W/m -4,0 C -2,3 C 4,8 km/h (1 Bft) 97,87 %
15.12.2018 16:46 -2,3 C 3,9 C -2,2 C 88 % 1024,6 hPa 0,0 l/m 4,1 km/h (1 Bft) SW 232 0 min 0,000 mm 0,0 UV-I 0 W/m -4,0 C -2,3 C 4,8 km/h (1 Bft) 97,87 %
15.12.2018 16:48 -2,3 C 3,9 C -2,2 C 88 % 1024,6 hPa 0,0 l/m 4,6 km/h (1 Bft) SW 220 0 min 0,000 mm 0,0 UV-I 0 W/m -4,0 C -2,3 C 6,4 km/h (2 Bft) 97,87 %
15.12.2018 16:50 -2,3 C 3,9 C -2,2 C 88 % 1024,5 hPa 0,0 l/m 5,0 km/h (1 Bft) S-SW 205 0 min 0,000 mm 0,0 UV-I 0 W/m -4,0 C -2,3 C 6,4 km/h (2 Bft) 100,00 %
15.12.2018 16:52 -2,3 C 3,9 C -2,2 C 88 % 1024,6 hPa 0,0 l/m 4,8 km/h (1 Bft) S-SW 213 0 min 0,000 mm 0,0 UV-I 0 W/m -4,0 C -2,3 C 6,4 km/h (2 Bft) 100,00 %
15.12.2018 16:54 -2,3 C 3,9 C -2,2 C 88 % 1024,6 hPa 0,0 l/m 4,3 km/h (1 Bft) S-SW 212 0 min 0,000 mm 0,0 UV-I 0 W/m -4,0 C -2,3 C 6,4 km/h (2 Bft) 97,87 %
15.12.2018 16:56 -2,3 C 3,9 C -2,2 C 88 % 1024,6 hPa 0,0 l/m 4,9 km/h (1 Bft) SW 215 0 min 0,000 mm 0,0 UV-I 0 W/m -4,0 C -2,3 C 6,4 km/h (2 Bft) 100,00 %
15.12.2018 16:58 -2,3 C 3,9 C -2,2 C 88 % 1024,6 hPa 0,0 l/m 3,9 km/h (1 Bft) SW 224 0 min 0,000 mm 0,0 UV-I 0 W/m -4,0 C -2,3 C 6,4 km/h (2 Bft) 100,00 %
15.12.2018 17:00 -2,3 C 3,9 C -2,2 C 88 % 1024,6 hPa 0,0 l/m 3,2 km/h (1 Bft) SW 224 0 min 0,000 mm 0,0 UV-I 0 W/m -4,0 C -2,3 C 4,8 km/h (1 Bft) 97,87 %
15.12.2018 17:02 -2,3 C 3,9 C -2,8 C 88 % 1024,6 hPa 0,0 l/m 4,7 km/h (1 Bft) S-SW 212 0 min 0,000 mm 0,0 UV-I 0 W/m -4,0 C -2,3 C 6,4 km/h (2 Bft) 100,00 %
15.12.2018 17:04 -2,4 C 3,9 C -2,8 C 88 % 1024,6 hPa 0,0 l/m 3,9 km/h (1 Bft) SW 225 0 min 0,000 mm 0,0 UV-I 0 W/m -4,1 C -2,4 C 6,4 km/h (2 Bft) 97,92 %
15.12.2018 17:06 -2,4 C 3,9 C -2,8 C 88 % 1024,5 hPa 0,0 l/m 5,0 km/h (1 Bft) SW 219 0 min 0,000 mm 0,0 UV-I 0 W/m -4,1 C -2,4 C 6,4 km/h (2 Bft) 93,62 %
15.12.2018 17:08 -2,4 C 3,9 C -2,8 C 88 % 1024,6 hPa 0,0 l/m 5,4 km/h (1 Bft) SW 219 0 min 0,000 mm 0,0 UV-I 0 W/m -4,1 C -2,4 C 6,4 km/h (2 Bft) 97,87 %
15.12.2018 17:10 -2,4 C 3,9 C -2,8 C 88 % 1024,6 hPa 0,0 l/m 5,5 km/h (1 Bft) SW 219 0 min 0,000 mm 0,0 UV-I 0 W/m -4,1 C -2,4 C 9,7 km/h (2 Bft) 98,00 %
15.12.2018 17:12 -2,4 C 3,9 C -2,8 C 89 % 1024,6 hPa 0,0 l/m 4,4 km/h (1 Bft) SW 227 0 min 0,000 mm 0,0 UV-I 0 W/m -4,0 C -2,4 C 6,4 km/h (2 Bft) 97,87 %
15.12.2018 17:14 -2,4 C 3,9 C -2,8 C 89 % 1024,5 hPa 0,0 l/m 6,1 km/h (2 Bft) W-SW 243 0 min 0,000 mm 0,0 UV-I 0 W/m -4,0 C -2,4 C 8,0 km/h (2 Bft) 95,74 %
15.12.2018 17:16 -2,4 C 3,9 C -2,8 C 89 % 1024,5 hPa 0,0 l/m 5,8 km/h (2 Bft) SW 220 0 min 0,000 mm 0,0 UV-I 0 W/m -4,0 C -2,4 C 9,7 km/h (2 Bft) 95,74 %
15.12.2018 17:18 -2,4 C 3,9 C -2,8 C 89 % 1024,6 hPa 0,0 l/m 4,0 km/h (1 Bft) SW 224 0 min 0,000 mm 0,0 UV-I 0 W/m -4,0 C -2,4 C 4,8 km/h (1 Bft) 95,74 %
15.12.2018 17:20 -2,4 C 3,9 C -2,8 C 89 % 1024,6 hPa 0,0 l/m 4,4 km/h (1 Bft) SW 219 0 min 0,000 mm 0,0 UV-I 0 W/m -4,0 C -2,4 C 6,4 km/h (2 Bft) 95,74 %
15.12.2018 17:22 -2,4 C 3,9 C -2,8 C 89 % 1024,6 hPa 0,0 l/m 5,7 km/h (1 Bft) SW 221 0 min 0,000 mm 0,0 UV-I 0 W/m -4,0 C -2,4 C 8,0 km/h (2 Bft) 95,74 %
15.12.2018 17:24 -2,4 C 3,9 C -2,8 C 89 % 1024,6 hPa 0,0 l/m 5,2 km/h (1 Bft) S-SW 211 0 min 0,000 mm 0,0 UV-I 0 W/m -4,0 C -2,4 C 6,4 km/h (2 Bft) 96,00 %
15.12.2018 17:26 -2,5 C 3,9 C -2,8 C 89 % 1024,6 hPa 0,0 l/m 5,9 km/h (2 Bft) SW 219 0 min 0,000 mm 0,0 UV-I 0 W/m -4,1 C -2,5 C 8,0 km/h (2 Bft) 97,37 %
15.12.2018 17:28 -2,5 C 3,9 C -2,8 C 89 % 1024,6 hPa 0,0 l/m 4,9 km/h (1 Bft) SW 222 0 min 0,000 mm 0,0 UV-I 0 W/m -4,1 C -2,5 C 6,4 km/h (2 Bft) 93,62 %
15.12.2018 17:30 -2,5 C 3,9 C -2,8 C 89 % 1024,6 hPa 0,0 l/m 4,9 km/h (1 Bft) SW 235 0 min 0,000 mm 0,0 UV-I 0 W/m -4,1 C -2,5 C 6,4 km/h (2 Bft) 96,00 %
15.12.2018 17:32 -2,5 C 3,9 C -2,8 C 89 % 1024,6 hPa 0,0 l/m 5,0 km/h (1 Bft) SW 226 0 min 0,000 mm 0,0 UV-I 0 W/m -4,1 C -2,5 C 8,0 km/h (2 Bft) 98,00 %
15.12.2018 17:34 -2,5 C 3,9 C -2,8 C 89 % 1024,6 hPa 0,0 l/m 4,3 km/h (1 Bft) SW 228 0 min 0,000 mm 0,0 UV-I 0 W/m -4,1 C -2,5 C 4,8 km/h (1 Bft) 95,74 %
15.12.2018 17:36 -2,5 C 3,9 C -2,8 C 89 % 1024,6 hPa 0,0 l/m 4,6 km/h (1 Bft) W-SW 242 0 min 0,000 mm 0,0 UV-I 0 W/m -4,1 C -2,5 C 6,4 km/h (2 Bft) 94,00 %
15.12.2018 17:38 -2,5 C 3,9 C -2,8 C 89 % 1024,5 hPa 0,0 l/m 4,5 km/h (1 Bft) W-SW 244 0 min 0,000 mm 0,0 UV-I 0 W/m -4,1 C -2,5 C 6,4 km/h (2 Bft) 94,74 %
15.12.2018 17:40 -2,5 C 3,9 C -2,8 C 89 % 1024,6 hPa 0,0 l/m 4,8 km/h (1 Bft) SW 229 0 min 0,000 mm 0,0 UV-I 0 W/m -4,1 C -2,5 C 6,4 km/h (2 Bft) 96,00 %
15.12.2018 17:42 -2,6 C 3,9 C -2,8 C 89 % 1024,7 hPa 0,0 l/m 5,4 km/h (1 Bft) W-SW 242 0 min 0,000 mm 0,0 UV-I 0 W/m -4,2 C -2,6 C 11,3 km/h (2 Bft) 91,49 %
15.12.2018 17:44 -2,6 C 3,9 C -2,8 C 89 % 1024,6 hPa 0,0 l/m 5,2 km/h (1 Bft) SW 236 0 min 0,000 mm 0,0 UV-I 0 W/m -4,2 C -2,6 C 8,0 km/h (2 Bft) 94,00 %
15.12.2018 17:46 -2,6 C 3,9 C -2,8 C 89 % 1024,6 hPa 0,0 l/m 5,2 km/h (1 Bft) S-SW 210 0 min 0,000 mm 0,0 UV-I 0 W/m -4,2 C -2,6 C 8,0 km/h (2 Bft) 95,74 %
15.12.2018 17:49 -2,6 C 3,9 C -2,8 C 89 % 1024,6 hPa 0,0 l/m 5,9 km/h (2 Bft) SW 227 0 min 0,000 mm 0,0 UV-I 0 W/m -4,2 C -2,6 C 9,7 km/h (2 Bft) 95,77 %
15.12.2018 17:50 -2,6 C 3,9 C -2,8 C 89 % 1024,6 hPa 0,0 l/m 7,0 km/h (2 Bft) SW 221 0 min 0,000 mm 0,0 UV-I 0 W/m -4,2 C -3,3 C 9,7 km/h (2 Bft) 91,67 %
15.12.2018 17:52 -2,6 C 3,9 C -2,8 C 89 % 1024,7 hPa 0,0 l/m 4,8 km/h (1 Bft) S-SW 213 0 min 0,000 mm 0,0 UV-I 0 W/m -4,2 C -2,6 C 8,0 km/h (2 Bft) 97,87 %
15.12.2018 17:54 -2,6 C 3,9 C -2,8 C 89 % 1024,6 hPa 0,0 l/m 6,1 km/h (2 Bft) S-SW 213 0 min 0,000 mm 0,0 UV-I 0 W/m -4,2 C -2,6 C 8,0 km/h (2 Bft) 95,74 %
15.12.2018 17:56 -2,6 C 3,9 C -2,8 C 89 % 1024,7 hPa 0,0 l/m 5,5 km/h (1 Bft) W-SW 239 0 min 0,000 mm 0,0 UV-I 0 W/m -4,2 C -2,6 C 8,0 km/h (2 Bft) 93,62 %
15.12.2018 17:58 -2,6 C 3,9 C -2,8 C 89 % 1024,7 hPa 0,0 l/m 6,4 km/h (2 Bft) S-SW 208 0 min 0,000 mm 0,0 UV-I 0 W/m -4,2 C -2,6 C 9,7 km/h (2 Bft) 93,62 %
15.12.2018 18:00 -2,6 C 3,9 C -2,8 C 89 % 1024,7 hPa 0,0 l/m 6,9 km/h (2 Bft) W-SW 248 0 min 0,000 mm 0,0 UV-I 0 W/m -4,2 C -3,2 C 9,7 km/h (2 Bft) 91,49 %
15.12.2018 18:02 -2,6 C 3,9 C -2,8 C 89 % 1024,7 hPa 0,0 l/m 6,7 km/h (2 Bft) SW 224 0 min 0,000 mm 0,0 UV-I 0 W/m -4,2 C -2,9 C 9,7 km/h (2 Bft) 97,37 %
15.12.2018 18:04 -2,6 C 3,9 C -2,8 C 89 % 1024,7 hPa 0,0 l/m 5,2 km/h (1 Bft) SW 223 0 min 0,000 mm 0,0 UV-I 0 W/m -4,2 C -2,6 C 9,7 km/h (2 Bft) 95,74 %
15.12.2018 18:06 -2,6 C 3,9 C -2,8 C 89 % 1024,6 hPa 0,0 l/m 6,7 km/h (2 Bft) SW 227 0 min 0,000 mm 0,0 UV-I 0 W/m -4,2 C -2,9 C 8,0 km/h (2 Bft) 93,62 %
15.12.2018 18:09 -2,6 C 3,9 C -2,8 C 89 % 1024,6 hPa 0,0 l/m 6,2 km/h (2 Bft) SW 220 0 min 0,000 mm 0,0 UV-I 0 W/m -4,2 C -2,6 C 11,3 km/h (2 Bft) 92,21 %
15.12.2018 18:10 -2,6 C 3,9 C -2,8 C 89 % 1024,6 hPa 0,0 l/m 6,5 km/h (2 Bft) SW 217 0 min 0,000 mm 0,0 UV-I 0 W/m -4,2 C -2,7 C 9,7 km/h (2 Bft) 95,65 %
15.12.2018 18:12 -2,6 C 3,9 C -2,8 C 89 % 1024,5 hPa 0,0 l/m 8,5 km/h (2 Bft) S-SW 210 0 min 0,000 mm 0,0 UV-I 0 W/m -4,2 C -4,9 C 12,9 km/h (3 Bft) 97,87 %
15.12.2018 18:14 -2,7 C 3,9 C -2,8 C 89 % 1024,6 hPa 0,0 l/m 7,9 km/h (2 Bft) SW 215 0 min 0,000 mm 0,0 UV-I 0 W/m -4,3 C -4,4 C 11,3 km/h (2 Bft) 95,74 %
15.12.2018 18:16 -2,7 C 3,9 C -2,8 C 89 % 1024,6 hPa 0,0 l/m 7,0 km/h (2 Bft) SW 225 0 min 0,000 mm 0,0 UV-I 0 W/m -4,3 C -3,4 C 9,7 km/h (2 Bft) 97,37 %
15.12.2018 18:19 -2,7 C 3,9 C -2,8 C 89 % 1024,5 hPa 0,0 l/m 6,8 km/h (2 Bft) SW 231 0 min 0,000 mm 0,0 UV-I 0 W/m -4,3 C -3,1 C 9,7 km/h (2 Bft) 95,95 %
15.12.2018 18:20 -2,7 C 3,9 C -2,8 C 89 % 1024,5 hPa 0,0 l/m 7,7 km/h (2 Bft) SW 236 0 min 0,000 mm 0,0 UV-I 0 W/m -4,3 C -4,2 C 9,7 km/h (2 Bft) 95,65 %
15.12.2018 18:22 -2,7 C 3,9 C -2,8 C 89 % 1024,5 hPa 0,0 l/m 5,1 km/h (1 Bft) SW 224 0 min 0,000 mm 0,0 UV-I 0 W/m -4,3 C -2,7 C 9,7 km/h (2 Bft) 96,08 %
15.12.2018 18:24 -2,7 C 3,9 C -2,8 C 89 % 1024,5 hPa 0,0 l/m 5,5 km/h (1 Bft) S-SW 207 0 min 0,000 mm 0,0 UV-I 0 W/m -4,3 C -2,7 C 9,7 km/h (2 Bft) 97,83 %
15.12.2018 18:26 -2,7 C 3,9 C -2,8 C 89 % 1024,5 hPa 0,0 l/m 4,8 km/h (1 Bft) SW 220 0 min 0,000 mm 0,0 UV-I 0 W/m -4,3 C -2,7 C 9,7 km/h (2 Bft) 97,92 %
15.12.2018 18:28 -2,7 C 3,9 C -2,8 C 89 % 1024,4 hPa 0,0 l/m 4,3 km/h (1 Bft) SW 215 0 min 0,000 mm 0,0 UV-I 0 W/m -4,3 C -2,7 C 6,4 km/h (2 Bft) 95,74 %
15.12.2018 18:30 -2,7 C 3,9 C -2,8 C 89 % 1024,4 hPa 0,0 l/m 5,1 km/h (1 Bft) S-SW 210 0 min 0,000 mm 0,0 UV-I 0 W/m -4,3 C -2,7 C 8,0 km/h (2 Bft) 95,74 %
15.12.2018 18:32 -2,7 C 3,9 C -2,8 C 89 % 1024,4 hPa 0,0 l/m 4,5 km/h (1 Bft) SW 217 0 min 0,000 mm 0,0 UV-I 0 W/m -4,3 C -2,7 C 6,4 km/h (2 Bft) 98,00 %
15.12.2018 18:34 -2,7 C 3,9 C -2,8 C 89 % 1024,5 hPa 0,0 l/m 3,8 km/h (1 Bft) W-SW 244 0 min 0,000 mm 0,0 UV-I 0 W/m -4,3 C -2,7 C 4,8 km/h (1 Bft) 95,74 %
15.12.2018 18:36 -2,7 C 3,9 C -2,8 C 89 % 1024,4 hPa 0,0 l/m 3,2 km/h (1 Bft) SW 223 0 min 0,000 mm 0,0 UV-I 0 W/m -4,3 C -2,7 C 6,4 km/h (2 Bft) 94,29 %
15.12.2018 18:38 -2,7 C 3,9 C -2,8 C 89 % 1024,5 hPa 0,0 l/m 4,0 km/h (1 Bft) SW 234 0 min 0,000 mm 0,0 UV-I 0 W/m -4,3 C -2,7 C 9,7 km/h (2 Bft) 98,00 %
15.12.2018 18:40 -2,7 C 3,9 C -2,8 C 89 % 1024,5 hPa 0,0 l/m 4,8 km/h (1 Bft) S-SW 197 0 min 0,000 mm 0,0 UV-I 0 W/m -4,3 C -2,7 C 8,0 km/h (2 Bft) 100,00 %
15.12.2018 18:42 -2,8 C 3,9 C -2,8 C 89 % 1024,4 hPa 0,0 l/m 4,9 km/h (1 Bft) S-SW 213 0 min 0,000 mm 0,0 UV-I 0 W/m -4,4 C -2,8 C 6,4 km/h (2 Bft) 95,74 %
15.12.2018 18:44 -2,8 C 3,9 C -2,8 C 89 % 1024,4 hPa 0,0 l/m 4,7 km/h (1 Bft) S-SW 209 0 min 0,000 mm 0,0 UV-I 0 W/m -4,4 C -2,8 C 8,0 km/h (2 Bft) 100,00 %
15.12.2018 18:46 -2,8 C 3,9 C -2,8 C 89 % 1024,4 hPa 0,0 l/m 4,8 km/h (1 Bft) SW 214 0 min 0,000 mm 0,0 UV-I 0 W/m -4,4 C -2,8 C 6,4 km/h (2 Bft) 100,00 %
15.12.2018 18:48 -2,8 C 3,9 C -2,8 C 89 % 1024,4 hPa 0,0 l/m 4,7 km/h (1 Bft) SW 223 0 min 0,000 mm 0,0 UV-I 0 W/m -4,4 C -2,8 C 8,0 km/h (2 Bft) 100,00 %
15.12.2018 18:50 -2,8 C 3,9 C -2,8 C 89 % 1024,4 hPa 0,0 l/m 5,3 km/h (1 Bft) SW 232 0 min 0,000 mm 0,0 UV-I 0 W/m -4,4 C -2,8 C 8,0 km/h (2 Bft) 97,87 %
15.12.2018 18:52 -2,8 C 3,9 C -2,8 C 89 % 1024,4 hPa 0,0 l/m 6,6 km/h (2 Bft) SW 229 0 min 0,000 mm 0,0 UV-I 0 W/m -4,4 C -3,0 C 9,7 km/h (2 Bft) 100,00 %
15.12.2018 18:54 -2,8 C 3,9 C -2,8 C 89 % 1024,4 hPa 0,0 l/m 5,9 km/h (2 Bft) SW 219 0 min 0,000 mm 0,0 UV-I 0 W/m -4,4 C -2,8 C 8,0 km/h (2 Bft) 100,00 %
15.12.2018 18:56 -2,8 C 3,9 C -2,8 C 89 % 1024,4 hPa 0,0 l/m 5,2 km/h (1 Bft) SW 216 0 min 0,000 mm 0,0 UV-I 0 W/m -4,4 C -2,8 C 6,4 km/h (2 Bft) 100,00 %
15.12.2018 18:58 -2,8 C 3,9 C -2,8 C 89 % 1024,4 hPa 0,0 l/m 3,2 km/h (1 Bft) SW 217 0 min 0,000 mm 0,0 UV-I 0 W/m -4,4 C -2,8 C 4,8 km/h (1 Bft) 100,00 %
15.12.2018 19:00 -2,8 C 3,9 C -2,8 C 89 % 1024,3 hPa 0,0 l/m 4,4 km/h (1 Bft) SW 234 0 min 0,000 mm 0,0 UV-I 0 W/m -4,4 C -2,8 C 6,4 km/h (2 Bft) 96,08 %
15.12.2018 19:02 -2,8 C 3,9 C -2,8 C 89 % 1024,4 hPa 0,0 l/m 4,8 km/h (1 Bft) SW 219 0 min 0,000 mm 0,0 UV-I 0 W/m -4,4 C -2,8 C 6,4 km/h (2 Bft) 100,00 %
15.12.2018 19:04 -2,8 C 3,9 C -2,8 C 89 % 1024,4 hPa 0,0 l/m 4,7 km/h (1 Bft) SW 223 0 min 0,000 mm 0,0 UV-I 0 W/m -4,4 C -2,8 C 8,0 km/h (2 Bft) 98,00 %
15.12.2018 19:06 -2,8 C 3,9 C -2,8 C 89 % 1024,4 hPa 0,0 l/m 5,8 km/h (2 Bft) SW 221 0 min 0,000 mm 0,0 UV-I 0 W/m -4,4 C -2,8 C 8,0 km/h (2 Bft) 100,00 %
15.12.2018 19:08 -2,8 C 3,9 C -2,8 C 89 % 1024,3 hPa 0,0 l/m 6,2 km/h (2 Bft) SW 224 0 min 0,000 mm 0,0 UV-I 0 W/m -4,4 C -2,8 C 8,0 km/h (2 Bft) 97,87 %
15.12.2018 19:10 -2,8 C 3,9 C -2,8 C 89 % 1024,3 hPa 0,0 l/m 5,6 km/h (1 Bft) S-SW 208 0 min 0,000 mm 0,0 UV-I 0 W/m -4,4 C -2,8 C 6,4 km/h (2 Bft) 97,87 %
15.12.2018 19:12 -2,8 C 3,9 C -3,3 C 89 % 1024,3 hPa 0,0 l/m 5,9 km/h (2 Bft) W-SW 241 0 min 0,000 mm 0,0 UV-I 0 W/m -4,4 C -2,8 C 9,7 km/h (2 Bft) 100,00 %
15.12.2018 19:14 -2,8 C 3,9 C -3,3 C 89 % 1024,3 hPa 0,0 l/m 4,8 km/h (1 Bft) SW 222 0 min 0,000 mm 0,0 UV-I 0 W/m -4,4 C -2,8 C 6,4 km/h (2 Bft) 100,00 %
15.12.2018 19:16 -2,8 C 3,9 C -3,3 C 89 % 1024,3 hPa 0,0 l/m 5,5 km/h (1 Bft) SW 218 0 min 0,000 mm 0,0 UV-I 0 W/m -4,4 C -2,8 C 8,0 km/h (2 Bft) 97,87 %
15.12.2018 19:18 -2,8 C 3,9 C -3,3 C 89 % 1024,3 hPa 0,0 l/m 5,2 km/h (1 Bft) W-SW 255 0 min 0,000 mm 0,0 UV-I 0 W/m -4,4 C -2,8 C 6,4 km/h (2 Bft) 100,00 %
15.12.2018 19:20 -2,8 C 3,9 C -3,3 C 89 % 1024,2 hPa 0,0 l/m 5,5 km/h (1 Bft) SW 234 0 min 0,000 mm 0,0 UV-I 0 W/m -4,4 C -2,8 C 8,0 km/h (2 Bft) 100,00 %
15.12.2018 19:22 -2,9 C 3,9 C -3,3 C 89 % 1024,2 hPa 0,0 l/m 4,4 km/h (1 Bft) W-SW 238 0 min 0,000 mm 0,0 UV-I 0 W/m -4,5 C -2,9 C 8,0 km/h (2 Bft) 100,00 %
15.12.2018 19:24 -2,9 C 3,9 C -3,3 C 89 % 1024,2 hPa 0,0 l/m 3,9 km/h (1 Bft) SW 222 0 min 0,000 mm 0,0 UV-I 0 W/m -4,5 C -2,9 C 6,4 km/h (2 Bft) 98,00 %
15.12.2018 19:26 -2,9 C 3,9 C -3,3 C 89 % 1024,2 hPa 0,0 l/m 5,0 km/h (1 Bft) SW 227 0 min 0,000 mm 0,0 UV-I 0 W/m -4,5 C -2,9 C 8,0 km/h (2 Bft) 95,74 %
15.12.2018 19:28 -2,9 C 3,9 C -3,3 C 89 % 1024,2 hPa 0,0 l/m 4,4 km/h (1 Bft) SW 232 0 min 0,000 mm 0,0 UV-I 0 W/m -4,5 C -2,9 C 6,4 km/h (2 Bft) 100,00 %
15.12.2018 19:30 -2,9 C 3,9 C -3,3 C 89 % 1024,2 hPa 0,0 l/m 4,7 km/h (1 Bft) SW 217 0 min 0,000 mm 0,0 UV-I 0 W/m -4,5 C -2,9 C 6,4 km/h (2 Bft) 97,87 %
15.12.2018 19:32 -2,9 C 3,9 C -3,3 C 89 % 1024,2 hPa 0,0 l/m 3,8 km/h (1 Bft) SW 230 0 min 0,000 mm 0,0 UV-I 0 W/m -4,5 C -2,9 C 4,8 km/h (1 Bft) 95,74 %
15.12.2018 19:34 -2,9 C 3,9 C -3,3 C 89 % 1024,2 hPa 0,0 l/m 2,6 km/h (1 Bft) W-SW 240 0 min 0,000 mm 0,0 UV-I 0 W/m -4,5 C -2,9 C 4,8 km/h (1 Bft) 95,74 %
15.12.2018 19:36 -2,9 C 3,9 C -3,3 C 89 % 1024,2 hPa 0,0 l/m 4,5 km/h (1 Bft) W-SW 240 0 min 0,000 mm 0,0 UV-I 0 W/m -4,5 C -2,9 C 8,0 km/h (2 Bft) 98,00 %
15.12.2018 19:38 -3,0 C 3,9 C -3,3 C 89 % 1024,2 hPa 0,0 l/m 3,1 km/h (1 Bft) S-SW 205 0 min 0,000 mm 0,0 UV-I 0 W/m -4,6 C -3,0 C 6,4 km/h (2 Bft) 95,74 %
15.12.2018 19:40 -3,0 C 3,9 C -3,3 C 89 % 1024,2 hPa 0,0 l/m 4,7 km/h (1 Bft) S-SW 209 0 min 0,000 mm 0,0 UV-I 0 W/m -4,6 C -3,0 C 6,4 km/h (2 Bft) 97,87 %
15.12.2018 19:42 -3,0 C 3,9 C -3,3 C 89 % 1024,2 hPa 0,0 l/m 4,2 km/h (1 Bft) W-SW 238 0 min 0,000 mm 0,0 UV-I 0 W/m -4,6 C -3,0 C 6,4 km/h (2 Bft) 97,87 %
15.12.2018 19:44 -3,0 C 3,9 C -3,3 C 89 % 1024,2 hPa 0,0 l/m 4,1 km/h (1 Bft) SW 222 0 min 0,000 mm 0,0 UV-I 0 W/m -4,6 C -3,0 C 6,4 km/h (2 Bft) 93,75 %
15.12.2018 19:46 -3,1 C 3,9 C -3,3 C 89 % 1024,2 hPa 0,0 l/m 3,9 km/h (1 Bft) SW 216 0 min 0,000 mm 0,0 UV-I 0 W/m -4,6 C -3,1 C 6,4 km/h (2 Bft) 97,87 %
15.12.2018 19:48 -3,1 C 3,9 C -3,3 C 89 % 1024,2 hPa 0,0 l/m 4,1 km/h (1 Bft) S-SW 213 0 min 0,000 mm 0,0 UV-I 0 W/m -4,6 C -3,1 C 6,4 km/h (2 Bft) 97,87 %
15.12.2018 19:50 -3,1 C 3,9 C -3,3 C 89 % 1024,2 hPa 0,0 l/m 5,1 km/h (1 Bft) SW 220 0 min 0,000 mm 0,0 UV-I 0 W/m -4,6 C -3,1 C 6,4 km/h (2 Bft) 95,74 %
15.12.2018 19:52 -3,2 C 3,9 C -3,9 C 89 % 1024,1 hPa 0,0 l/m 3,0 km/h (1 Bft) SW 215 0 min 0,000 mm 0,0 UV-I 0 W/m -4,7 C -3,2 C 6,4 km/h (2 Bft) 95,74 %
15.12.2018 19:54 -3,2 C 3,9 C -3,9 C 89 % 1024,2 hPa 0,0 l/m 3,8 km/h (1 Bft) SW 215 0 min 0,000 mm 0,0 UV-I 0 W/m -4,7 C -3,2 C 6,4 km/h (2 Bft) 97,87 %
15.12.2018 19:56 -3,2 C 3,9 C -3,9 C 89 % 1024,2 hPa 0,0 l/m 3,0 km/h (1 Bft) SW 215 0 min 0,000 mm 0,0 UV-I 0 W/m -4,7 C -3,2 C 4,8 km/h (1 Bft) 97,14 %
15.12.2018 19:58 -3,3 C 3,9 C -4,4 C 89 % 1024,1 hPa 0,0 l/m 3,2 km/h (1 Bft) SW 215 0 min 0,000 mm 0,0 UV-I 0 W/m -4,8 C -3,3 C 4,8 km/h (1 Bft) 97,87 %
15.12.2018 20:00 -3,4 C 3,9 C -4,4 C 89 % 1024,1 hPa 0,0 l/m 2,5 km/h (1 Bft) SW 215 0 min 0,000 mm 0,0 UV-I 0 W/m -4,9 C -3,4 C 3,2 km/h (1 Bft) 98,00 %
15.12.2018 20:02 -3,4 C 3,9 C -4,4 C 89 % 1024,1 hPa 0,0 l/m 3,2 km/h (1 Bft) S-SW 204 0 min 0,000 mm 0,0 UV-I 0 W/m -4,9 C -3,4 C 6,4 km/h (2 Bft) 97,87 %
15.12.2018 20:04 -3,5 C 3,9 C -5,0 C 89 % 1024,1 hPa 0,0 l/m 4,1 km/h (1 Bft) S-SW 204 0 min 0,000 mm 0,0 UV-I 0 W/m -5,0 C -3,5 C 6,4 km/h (2 Bft) 95,74 %
15.12.2018 20:06 -3,6 C 3,9 C -5,0 C 90 % 1024,0 hPa 0,0 l/m 5,0 km/h (1 Bft) S-SW 193 0 min 0,000 mm 0,0 UV-I 0 W/m -5,0 C -3,6 C 8,0 km/h (2 Bft) 90,00 %
15.12.2018 20:09 -3,7 C 3,9 C -5,0 C 89 % 1024,0 hPa 0,0 l/m 5,3 km/h (1 Bft) S-SW 211 0 min 0,000 mm 0,0 UV-I 0 W/m -5,2 C -3,7 C 6,4 km/h (2 Bft) 97,18 %
15.12.2018 20:10 -3,7 C 3,9 C -5,0 C 89 % 1024,0 hPa 0,0 l/m 6,4 km/h (2 Bft) SW 218 0 min 0,000 mm 0,0 UV-I 0 W/m -5,2 C -3,6 C 8,0 km/h (2 Bft) 95,65 %
15.12.2018 20:12 -3,8 C 3,9 C -5,0 C 89 % 1024,0 hPa 0,0 l/m 6,9 km/h (2 Bft) S-SW 213 0 min 0,000 mm 0,0 UV-I 0 W/m -5,3 C -4,4 C 9,7 km/h (2 Bft) 98,00 %
15.12.2018 20:14 -3,9 C 3,9 C -5,6 C 89 % 1024,0 hPa 0,0 l/m 5,3 km/h (1 Bft) SW 220 0 min 0,000 mm 0,0 UV-I 0 W/m -5,4 C -3,9 C 8,0 km/h (2 Bft) 97,87 %
15.12.2018 20:16 -4,0 C 3,9 C -5,6 C 89 % 1023,9 hPa 0,0 l/m 4,1 km/h (1 Bft) SW 217 0 min 0,000 mm 0,0 UV-I 0 W/m -5,5 C -4,0 C 8,0 km/h (2 Bft) 95,74 %
15.12.2018 20:18 -4,1 C 3,9 C -5,6 C 89 % 1023,9 hPa 0,0 l/m 3,8 km/h (1 Bft) S-SW 196 0 min 0,000 mm 0,0 UV-I 0 W/m -5,6 C -4,1 C 6,4 km/h (2 Bft) 97,22 %
15.12.2018 20:20 -4,1 C 3,9 C -5,0 C 89 % 1023,9 hPa 0,0 l/m 2,6 km/h (1 Bft) S-SW 196 0 min 0,000 mm 0,0 UV-I 0 W/m -5,6 C -4,1 C 3,2 km/h (1 Bft) 94,00 %
15.12.2018 20:22 -4,2 C 3,9 C -5,6 C 89 % 1023,9 hPa 0,0 l/m 3,6 km/h (1 Bft) S-SW 194 0 min 0,000 mm 0,0 UV-I 0 W/m -5,7 C -4,2 C 4,8 km/h (1 Bft) 95,74 %
15.12.2018 20:24 -4,2 C 3,9 C -5,6 C 90 % 1023,9 hPa 0,0 l/m 3,7 km/h (1 Bft) S 176 0 min 0,000 mm 0,0 UV-I 0 W/m -5,6 C -4,2 C 4,8 km/h (1 Bft) 97,87 %
15.12.2018 20:26 -4,2 C 3,9 C -5,6 C 90 % 1023,8 hPa 0,0 l/m 4,4 km/h (1 Bft) S 176 0 min 0,000 mm 0,0 UV-I 0 W/m -5,6 C -4,2 C 6,4 km/h (2 Bft) 93,62 %
15.12.2018 20:29 -4,2 C 3,9 C -5,6 C 90 % 1023,8 hPa 0,0 l/m 4,6 km/h (1 Bft) S-SW 201 0 min 0,000 mm 0,0 UV-I 0 W/m -5,6 C -4,2 C 6,4 km/h (2 Bft) 98,57 %
15.12.2018 20:30 -4,2 C 3,9 C -5,6 C 90 % 1023,8 hPa 0,0 l/m 4,3 km/h (1 Bft) S-SW 203 0 min 0,000 mm 0,0 UV-I 0 W/m -5,6 C -4,2 C 6,4 km/h (2 Bft) 100,00 %
15.12.2018 20:32 -4,3 C 3,9 C -5,6 C 90 % 1023,8 hPa 0,0 l/m 4,7 km/h (1 Bft) S-SW 202 0 min 0,000 mm 0,0 UV-I 0 W/m -5,7 C -4,3 C 6,4 km/h (2 Bft) 100,00 %
15.12.2018 20:34 -4,3 C 3,9 C -5,6 C 90 % 1023,8 hPa 0,0 l/m 5,2 km/h (1 Bft) S-SW 200 0 min 0,000 mm 0,0 UV-I 0 W/m -5,7 C -4,3 C 6,4 km/h (2 Bft) 98,11 %
15.12.2018 20:36 -4,4 C 3,9 C -5,6 C 90 % 1023,7 hPa 0,0 l/m 5,2 km/h (1 Bft) S-SW 205 0 min 0,000 mm 0,0 UV-I 0 W/m -5,8 C -4,4 C 6,4 km/h (2 Bft) 97,37 %
15.12.2018 20:38 -4,6 C 3,9 C -5,0 C 89 % 1023,7 hPa 0,0 l/m 4,7 km/h (1 Bft) S-SW 200 0 min 0,000 mm 0,0 UV-I 0 W/m -6,1 C -4,6 C 6,4 km/h (2 Bft) 97,87 %
15.12.2018 20:40 -4,7 C 3,9 C -5,0 C 89 % 1023,7 hPa 0,0 l/m 4,0 km/h (1 Bft) S-SW 198 0 min 0,000 mm 0,0 UV-I 0 W/m -6,2 C -4,7 C 6,4 km/h (2 Bft) 100,00 %
15.12.2018 20:42 -4,7 C 3,9 C -5,6 C 89 % 1023,7 hPa 0,0 l/m 4,7 km/h (1 Bft) S-SW 198 0 min 0,000 mm 0,0 UV-I 0 W/m -6,2 C -4,7 C 8,0 km/h (2 Bft) 97,87 %
15.12.2018 20:44 -4,7 C 3,9 C -5,6 C 90 % 1023,7 hPa 0,0 l/m 4,4 km/h (1 Bft) S-SW 198 0 min 0,000 mm 0,0 UV-I 0 W/m -6,1 C -4,7 C 6,4 km/h (2 Bft) 97,87 %
15.12.2018 20:46 -4,8 C 3,9 C -6,1 C 90 % 1023,6 hPa 0,0 l/m 3,6 km/h (1 Bft) S-SW 198 0 min 0,000 mm 0,0 UV-I 0 W/m -6,2 C -4,8 C 4,8 km/h (1 Bft) 95,74 %
15.12.2018 20:48 -4,8 C 3,9 C -6,7 C 90 % 1023,7 hPa 0,0 l/m 4,2 km/h (1 Bft) S-SW 204 0 min 0,000 mm 0,0 UV-I 0 W/m -6,2 C -4,8 C 4,8 km/h (1 Bft) 94,00 %
15.12.2018 20:50 -4,9 C 3,9 C -6,7 C 89 % 1023,7 hPa 0,0 l/m 5,3 km/h (1 Bft) SW 216 0 min 0,000 mm 0,0 UV-I 0 W/m -6,4 C -4,9 C 6,4 km/h (2 Bft) 94,74 %
15.12.2018 20:52 -5,0 C 3,9 C -6,7 C 90 % 1023,7 hPa 0,0 l/m 6,0 km/h (2 Bft) SW 217 0 min 0,000 mm 0,0 UV-I 0 W/m -6,4 C -5,0 C 8,0 km/h (2 Bft) 95,83 %
15.12.2018 20:54 -5,1 C 3,9 C -6,7 C 90 % 1023,6 hPa 0,0 l/m 5,4 km/h (1 Bft) SW 216 0 min 0,000 mm 0,0 UV-I 0 W/m -6,5 C -5,1 C 6,4 km/h (2 Bft) 90,20 %
15.12.2018 20:56 -5,2 C 3,9 C -6,7 C 90 % 1023,7 hPa 0,0 l/m 5,6 km/h (1 Bft) S-SW 210 0 min 0,000 mm 0,0 UV-I 0 W/m -6,6 C -5,2 C 6,4 km/h (2 Bft) 95,83 %
15.12.2018 20:58 -5,2 C 3,9 C -6,7 C 90 % 1023,7 hPa 0,0 l/m 5,7 km/h (1 Bft) S-SW 209 0 min 0,000 mm 0,0 UV-I 0 W/m -6,6 C -5,2 C 8,0 km/h (2 Bft) 95,74 %
15.12.2018 21:00 -5,2 C 3,9 C -6,7 C 90 % 1023,6 hPa 0,0 l/m 6,2 km/h (2 Bft) S-SW 206 0 min 0,000 mm 0,0 UV-I 0 W/m -6,6 C -5,2 C 8,0 km/h (2 Bft) 95,74 %
15.12.2018 21:02 -5,3 C 3,9 C -6,7 C 90 % 1023,6 hPa 0,0 l/m 5,4 km/h (1 Bft) S-SW 203 0 min 0,000 mm 0,0 UV-I 0 W/m -6,7 C -5,3 C 6,4 km/h (2 Bft) 97,87 %
15.12.2018 21:04 -5,3 C 3,9 C -6,7 C 90 % 1023,5 hPa 0,0 l/m 5,6 km/h (1 Bft) S-SW 207 0 min 0,000 mm 0,0 UV-I 0 W/m -6,7 C -5,3 C 8,0 km/h (2 Bft) 97,87 %
15.12.2018 21:06 -5,3 C 3,9 C -6,7 C 90 % 1023,5 hPa 0,0 l/m 5,7 km/h (1 Bft) S-SW 203 0 min 0,000 mm 0,0 UV-I 0 W/m -6,7 C -5,3 C 8,0 km/h (2 Bft) 98,00 %
15.12.2018 21:08 -5,3 C 3,9 C -6,7 C 90 % 1023,5 hPa 0,0 l/m 6,3 km/h (2 Bft) S-SW 209 0 min 0,000 mm 0,0 UV-I 0 W/m -6,7 C -5,3 C 8,0 km/h (2 Bft) 97,87 %
15.12.2018 21:10 -5,3 C 3,9 C -6,7 C 90 % 1023,5 hPa 0,0 l/m 6,0 km/h (2 Bft) S-SW 205 0 min 0,000 mm 0,0 UV-I 0 W/m -6,7 C -5,3 C 8,0 km/h (2 Bft) 97,87 %
15.12.2018 21:12 -5,2 C 3,9 C -6,7 C 90 % 1023,4 hPa 0,0 l/m 5,9 km/h (2 Bft) S-SW 204 0 min 0,000 mm 0,0 UV-I 0 W/m -6,6 C -5,2 C 6,4 km/h (2 Bft) 97,37 %
15.12.2018 21:14 -5,2 C 3,9 C -6,7 C 90 % 1023,4 hPa 0,0 l/m 5,4 km/h (1 Bft) S-SW 206 0 min 0,000 mm 0,0 UV-I 0 W/m -6,6 C -5,2 C 8,0 km/h (2 Bft) 94,34 %
15.12.2018 21:16 -5,2 C 3,9 C -6,7 C 90 % 1023,4 hPa 0,0 l/m 5,1 km/h (1 Bft) S-SW 206 0 min 0,000 mm 0,0 UV-I 0 W/m -6,6 C -5,2 C 6,4 km/h (2 Bft) 95,74 %
15.12.2018 21:18 -5,2 C 3,9 C -6,7 C 90 % 1023,3 hPa 0,0 l/m 5,3 km/h (1 Bft) S-SW 206 0 min 0,000 mm 0,0 UV-I 0 W/m -6,6 C -5,2 C 8,0 km/h (2 Bft) 93,62 %
15.12.2018 21:20 -5,3 C 3,9 C -6,7 C 90 % 1023,3 hPa 0,0 l/m 5,5 km/h (1 Bft) S-SW 206 0 min 0,000 mm 0,0 UV-I 0 W/m -6,7 C -5,3 C 8,0 km/h (2 Bft) 97,87 %
15.12.2018 21:22 -5,3 C 3,9 C -6,7 C 90 % 1023,4 hPa 0,0 l/m 6,2 km/h (2 Bft) S-SW 203 0 min 0,000 mm 0,0 UV-I 0 W/m -6,7 C -5,3 C 8,0 km/h (2 Bft) 95,74 %
15.12.2018 21:24 -5,4 C 3,9 C -7,2 C 90 % 1023,4 hPa 0,0 l/m 4,9 km/h (1 Bft) S-SW 209 0 min 0,000 mm 0,0 UV-I 0 W/m -6,8 C -5,4 C 6,4 km/h (2 Bft) 97,87 %
15.12.2018 21:26 -5,4 C 3,9 C -7,2 C 90 % 1023,4 hPa 0,0 l/m 5,1 km/h (1 Bft) S-SW 200 0 min 0,000 mm 0,0 UV-I 0 W/m -6,8 C -5,4 C 8,0 km/h (2 Bft) 92,11 %
15.12.2018 21:28 -5,4 C 3,9 C -7,2 C 90 % 1023,3 hPa 0,0 l/m 5,3 km/h (1 Bft) S-SW 197 0 min 0,000 mm 0,0 UV-I 0 W/m -6,8 C -5,4 C 8,0 km/h (2 Bft) 97,87 %
15.12.2018 21:30 -5,4 C 3,9 C -7,2 C 90 % 1023,2 hPa 0,0 l/m 5,7 km/h (1 Bft) S 185 0 min 0,000 mm 0,0 UV-I 0 W/m -6,8 C -5,4 C 6,4 km/h (2 Bft) 98,08 %
15.12.2018 21:32 -5,4 C 3,9 C -7,2 C 90 % 1023,2 hPa 0,0 l/m 5,4 km/h (1 Bft) S-SW 202 0 min 0,000 mm 0,0 UV-I 0 W/m -6,8 C -5,4 C 8,0 km/h (2 Bft) 97,87 %
15.12.2018 21:34 -5,4 C 3,9 C -7,2 C 90 % 1023,2 hPa 0,0 l/m 6,1 km/h (2 Bft) S-SW 211 0 min 0,000 mm 0,0 UV-I 0 W/m -6,8 C -5,4 C 8,0 km/h (2 Bft) 97,87 %
15.12.2018 21:36 -5,4 C 3,9 C -7,2 C 90 % 1023,1 hPa 0,0 l/m 5,9 km/h (2 Bft) S-SW 201 0 min 0,000 mm 0,0 UV-I 0 W/m -6,8 C -5,4 C 8,0 km/h (2 Bft) 97,87 %
15.12.2018 21:38 -5,4 C 3,9 C -7,2 C 90 % 1023,1 hPa 0,0 l/m 6,5 km/h (2 Bft) S-SW 209 0 min 0,000 mm 0,0 UV-I 0 W/m -6,8 C -5,5 C 9,7 km/h (2 Bft) 97,92 %
15.12.2018 21:40 -5,4 C 3,9 C -6,7 C 90 % 1023,0 hPa 0,0 l/m 7,2 km/h (2 Bft) S-SW 202 0 min 0,000 mm 0,0 UV-I 0 W/m -6,8 C -6,4 C 9,7 km/h (2 Bft) 97,56 %
15.12.2018 21:42 -5,3 C 3,9 C -6,7 C 90 % 1023,0 hPa 0,0 l/m 6,8 km/h (2 Bft) S-SW 192 0 min 0,000 mm 0,0 UV-I 0 W/m -6,7 C -5,8 C 9,7 km/h (2 Bft) 95,74 %
15.12.2018 21:44 -5,4 C 3,9 C -6,7 C 90 % 1023,0 hPa 0,0 l/m 4,4 km/h (1 Bft) S-SW 198 0 min 0,000 mm 0,0 UV-I 0 W/m -6,8 C -5,4 C 6,4 km/h (2 Bft) 98,00 %
15.12.2018 21:46 -5,4 C 3,9 C -7,2 C 90 % 1023,0 hPa 0,0 l/m 4,5 km/h (1 Bft) S-SW 198 0 min 0,000 mm 0,0 UV-I 0 W/m -6,8 C -5,4 C 6,4 km/h (2 Bft) 97,87 %
15.12.2018 21:48 -5,6 C 3,9 C -7,2 C 89 % 1022,9 hPa 0,0 l/m 4,5 km/h (1 Bft) S-SW 198 0 min 0,000 mm 0,0 UV-I 0 W/m -7,1 C -5,6 C 6,4 km/h (2 Bft) 97,87 %
15.12.2018 21:50 -5,7 C 3,9 C -7,2 C 89 % 1023,0 hPa 0,0 l/m 4,6 km/h (1 Bft) S-SW 198 0 min 0,000 mm 0,0 UV-I 0 W/m -7,2 C -5,7 C 4,8 km/h (1 Bft) 95,74 %
15.12.2018 21:52 -5,8 C 3,9 C -7,2 C 90 % 1022,9 hPa 0,0 l/m 4,5 km/h (1 Bft) S-SW 198 0 min 0,000 mm 0,0 UV-I 0 W/m -7,2 C -5,8 C 6,4 km/h (2 Bft) 95,74 %
15.12.2018 21:54 -5,8 C 3,9 C -7,2 C 90 % 1022,8 hPa 0,0 l/m 3,9 km/h (1 Bft) S-SW 198 0 min 0,000 mm 0,0 UV-I 0 W/m -7,2 C -5,8 C 4,8 km/h (1 Bft) 97,87 %
15.12.2018 21:56 -5,9 C 3,9 C -7,2 C 90 % 1022,9 hPa 0,0 l/m 3,6 km/h (1 Bft) S-SW 198 0 min 0,000 mm 0,0 UV-I 0 W/m -7,3 C -5,9 C 4,8 km/h (1 Bft) 96,00 %
15.12.2018 21:58 -5,9 C 3,9 C -7,8 C 90 % 1022,8 hPa 0,0 l/m 4,6 km/h (1 Bft) S-SW 196 0 min 0,000 mm 0,0 UV-I 0 W/m -7,3 C -5,9 C 6,4 km/h (2 Bft) 93,62 %
15.12.2018 22:00 -6,0 C 3,9 C -7,8 C 90 % 1022,7 hPa 0,0 l/m 5,0 km/h (1 Bft) S-SW 196 0 min 0,000 mm 0,0 UV-I 0 W/m -7,4 C -6,0 C 6,4 km/h (2 Bft) 97,87 %
15.12.2018 22:02 -6,0 C 3,9 C -7,8 C 91 % 1022,7 hPa 0,0 l/m 4,3 km/h (1 Bft) S-SW 196 0 min 0,000 mm 0,0 UV-I 0 W/m -7,2 C -6,0 C 6,4 km/h (2 Bft) 95,74 %
15.12.2018 22:04 -6,1 C 3,9 C -7,8 C 91 % 1022,7 hPa 0,0 l/m 4,0 km/h (1 Bft) S-SW 196 0 min 0,000 mm 0,0 UV-I 0 W/m -7,3 C -6,1 C 4,8 km/h (1 Bft) 97,87 %
15.12.2018 22:06 -6,1 C 3,9 C -8,3 C 91 % 1022,7 hPa 0,0 l/m 3,6 km/h (1 Bft) S-SW 196 0 min 0,000 mm 0,0 UV-I 0 W/m -7,3 C -6,1 C 4,8 km/h (1 Bft) 100,00 %
15.12.2018 22:08 -6,1 C 3,9 C -8,3 C 91 % 1022,6 hPa 0,0 l/m 3,9 km/h (1 Bft) S-SW 196 0 min 0,000 mm 0,0 UV-I 0 W/m -7,3 C -6,1 C 4,8 km/h (1 Bft) 97,87 %
15.12.2018 22:10 -6,0 C 3,9 C -8,3 C 91 % 1022,6 hPa 0,0 l/m 4,3 km/h (1 Bft) S-SW 196 0 min 0,000 mm 0,0 UV-I 0 W/m -7,2 C -6,0 C 4,8 km/h (1 Bft) 100,00 %
15.12.2018 22:12 -6,1 C 3,9 C -8,3 C 91 % 1022,5 hPa 0,0 l/m 3,6 km/h (1 Bft) S-SW 196 0 min 0,000 mm 0,0 UV-I 0 W/m -7,3 C -6,1 C 4,8 km/h (1 Bft) 97,87 %
15.12.2018 22:14 -6,2 C 3,9 C -8,9 C 91 % 1022,5 hPa 0,0 l/m 3,8 km/h (1 Bft) S-SW 196 0 min 0,000 mm 0,0 UV-I 0 W/m -7,4 C -6,2 C 4,8 km/h (1 Bft) 97,87 %
15.12.2018 22:16 -6,2 C 3,9 C -8,3 C 91 % 1022,5 hPa 0,0 l/m 3,2 km/h (1 Bft) S-SW 196 0 min 0,000 mm 0,0 UV-I 0 W/m -7,4 C -6,2 C 4,8 km/h (1 Bft) 100,00 %
15.12.2018 22:18 -6,3 C 3,9 C -8,9 C 91 % 1022,5 hPa 0,0 l/m 3,1 km/h (1 Bft) S-SW 196 0 min 0,000 mm 0,0 UV-I 0 W/m -7,5 C -6,3 C 3,2 km/h (1 Bft) 97,62 %
15.12.2018 22:20 -6,4 C 3,9 C -9,4 C 91 % 1022,5 hPa 0,0 l/m 3,0 km/h (1 Bft) S-SW 196 0 min 0,000 mm 0,0 UV-I 0 W/m -7,6 C -6,4 C 3,2 km/h (1 Bft) 95,74 %
15.12.2018 22:22 -6,4 C 3,9 C -9,4 C 91 % 1022,5 hPa 0,0 l/m 2,6 km/h (1 Bft) S-SW 196 0 min 0,000 mm 0,0 UV-I 0 W/m -7,6 C -6,4 C 4,8 km/h (1 Bft) 97,87 %
15.12.2018 22:24 -6,4 C 3,9 C -10,0 C 91 % 1022,5 hPa 0,0 l/m 2,3 km/h (1 Bft) S-SW 196 0 min 0,000 mm 0,0 UV-I 0 W/m -7,6 C -6,4 C 3,2 km/h (1 Bft) 97,87 %
15.12.2018 22:26 -6,4 C 3,9 C -10,0 C 91 % 1022,5 hPa 0,0 l/m 1,8 km/h (1 Bft) S-SW 196 0 min 0,000 mm 0,0 UV-I 0 W/m -7,6 C -6,4 C 3,2 km/h (1 Bft) 94,34 %
15.12.2018 22:28 -6,4 C 3,9 C -10,0 C 91 % 1022,4 hPa 0,0 l/m 0,9 km/h (0 Bft) S-SW 196 0 min 0,000 mm 0,0 UV-I 0 W/m -7,6 C -6,4 C 1,6 km/h (1 Bft) 97,87 %
15.12.2018 22:30 -6,4 C 3,9 C -10,6 C 91 % 1022,4 hPa 0,0 l/m 0,0 km/h (0 Bft) S-SW 196 0 min 0,000 mm 0,0 UV-I 0 W/m -7,6 C -6,4 C 0,0 km/h (0 Bft) 100,00 %
15.12.2018 22:32 -6,6 C 3,9 C -10,0 C 91 % 1022,3 hPa 0,0 l/m 0,2 km/h (0 Bft) S-SW 196 0 min 0,000 mm 0,0 UV-I 0 W/m -7,8 C -6,6 C 1,6 km/h (1 Bft) 100,00 %
15.12.2018 22:34 -6,6 C 3,9 C -10,6 C 92 % 1022,3 hPa 0,0 l/m 0,0 km/h (0 Bft) S-SW 196 0 min 0,000 mm 0,0 UV-I 0 W/m -7,7 C -6,6 C 1,6 km/h (1 Bft) 100,00 %
15.12.2018 22:36 -6,6 C 3,9 C -10,6 C 92 % 1022,2 hPa 0,0 l/m 1,2 km/h (1 Bft) S-SW 196 0 min 0,000 mm 0,0 UV-I 0 W/m -7,7 C -6,6 C 1,6 km/h (1 Bft) 97,87 %
15.12.2018 22:38 -6,6 C 3,9 C -10,0 C 92 % 1022,2 hPa 0,0 l/m 2,2 km/h (1 Bft) S-SW 196 0 min 0,000 mm 0,0 UV-I 0 W/m -7,7 C -6,6 C 3,2 km/h (1 Bft) 97,87 %
15.12.2018 22:40 -6,6 C 3,9 C -9,4 C 92 % 1022,3 hPa 0,0 l/m 2,4 km/h (1 Bft) S-SW 196 0 min 0,000 mm 0,0 UV-I 0 W/m -7,7 C -6,6 C 3,2 km/h (1 Bft) 100,00 %
15.12.2018 22:42 -6,7 C 3,9 C -9,4 C 92 % 1022,2 hPa 0,0 l/m 1,7 km/h (1 Bft) S-SW 196 0 min 0,000 mm 0,0 UV-I 0 W/m -7,8 C -6,7 C 3,2 km/h (1 Bft) 97,87 %
15.12.2018 22:44 -6,7 C 3,9 C -10,0 C 91 % 1022,2 hPa 0,0 l/m 1,5 km/h (1 Bft) S-SW 196 0 min 0,000 mm 0,0 UV-I 0 W/m -7,9 C -6,7 C 3,2 km/h (1 Bft) 97,87 %
15.12.2018 22:46 -6,8 C 3,9 C -10,0 C 92 % 1022,1 hPa 0,0 l/m 2,3 km/h (1 Bft) S-SW 196 0 min 0,000 mm 0,0 UV-I 0 W/m -7,9 C -6,8 C 3,2 km/h (1 Bft) 100,00 %
15.12.2018 22:48 -6,8 C 3,9 C -10,0 C 92 % 1022,1 hPa 0,0 l/m 3,6 km/h (1 Bft) S-SW 196 0 min 0,000 mm 0,0 UV-I 0 W/m -7,9 C -6,8 C 4,8 km/h (1 Bft) 98,00 %
15.12.2018 22:50 -6,8 C 3,9 C -10,0 C 92 % 1022,1 hPa 0,0 l/m 3,1 km/h (1 Bft) S-SW 196 0 min 0,000 mm 0,0 UV-I 0 W/m -7,9 C -6,8 C 4,8 km/h (1 Bft) 95,74 %
15.12.2018 22:52 -6,7 C 3,9 C -10,0 C 92 % 1022,1 hPa 0,0 l/m 2,8 km/h (1 Bft) S-SW 196 0 min 0,000 mm 0,0 UV-I 0 W/m -7,8 C -6,7 C 3,2 km/h (1 Bft) 93,62 %
15.12.2018 22:54 -6,7 C 3,9 C -10,0 C 92 % 1022,1 hPa 0,0 l/m 2,4 km/h (1 Bft) S-SW 196 0 min 0,000 mm 0,0 UV-I 0 W/m -7,8 C -6,7 C 3,2 km/h (1 Bft) 97,22 %
15.12.2018 22:56 -6,7 C 3,9 C -10,0 C 92 % 1022,2 hPa 0,0 l/m 2,8 km/h (1 Bft) S-SW 196 0 min 0,000 mm 0,0 UV-I 0 W/m -7,8 C -6,7 C 3,2 km/h (1 Bft) 98,11 %
15.12.2018 22:58 -6,8 C 3,9 C -9,4 C 92 % 1022,2 hPa 0,0 l/m 3,3 km/h (1 Bft) S-SW 196 0 min 0,000 mm 0,0 UV-I 0 W/m -7,9 C -6,8 C 4,8 km/h (1 Bft) 97,56 %
15.12.2018 23:00 -6,9 C 3,9 C -9,4 C 92 % 1022,1 hPa 0,0 l/m 3,2 km/h (1 Bft) S-SW 196 0 min 0,000 mm 0,0 UV-I 0 W/m -8,0 C -6,9 C 4,8 km/h (1 Bft) 97,87 %
15.12.2018 23:02 -7,0 C 3,9 C -9,4 C 92 % 1022,0 hPa 0,0 l/m 3,0 km/h (1 Bft) S-SW 196 0 min 0,000 mm 0,0 UV-I 0 W/m -8,1 C -7,0 C 4,8 km/h (1 Bft) 97,87 %
15.12.2018 23:04 -7,0 C 3,9 C -10,0 C 92 % 1022,0 hPa 0,0 l/m 3,6 km/h (1 Bft) S-SW 196 0 min 0,000 mm 0,0 UV-I 0 W/m -8,1 C -7,0 C 4,8 km/h (1 Bft) 93,62 %
15.12.2018 23:06 -6,9 C 3,9 C -9,4 C 92 % 1022,0 hPa 0,0 l/m 5,1 km/h (1 Bft) S-SO 168 0 min 0,000 mm 0,0 UV-I 0 W/m -8,0 C -6,9 C 6,4 km/h (2 Bft) 98,00 %
15.12.2018 23:08 -6,9 C 3,9 C -9,4 C 93 % 1022,0 hPa 0,0 l/m 2,7 km/h (1 Bft) S 169 0 min 0,000 mm 0,0 UV-I 0 W/m -7,8 C -6,9 C 3,2 km/h (1 Bft) 98,00 %
15.12.2018 23:10 -7,0 C 3,9 C -9,4 C 92 % 1022,1 hPa 0,0 l/m 3,8 km/h (1 Bft) S-SW 198 0 min 0,000 mm 0,0 UV-I 0 W/m -8,1 C -7,0 C 4,8 km/h (1 Bft) 98,00 %
15.12.2018 23:12 -7,1 C 3,9 C -9,4 C 92 % 1022,1 hPa 0,0 l/m 4,1 km/h (1 Bft) S-SW 198 0 min 0,000 mm 0,0 UV-I 0 W/m -8,2 C -7,1 C 4,8 km/h (1 Bft) 95,74 %
15.12.2018 23:14 -7,3 C 3,9 C -9,4 C 92 % 1022,0 hPa 0,0 l/m 3,8 km/h (1 Bft) S-SW 198 0 min 0,000 mm 0,0 UV-I 0 W/m -8,4 C -7,3 C 4,8 km/h (1 Bft) 100,00 %
15.12.2018 23:16 -7,4 C 3,9 C -9,4 C 92 % 1022,0 hPa 0,0 l/m 3,9 km/h (1 Bft) S-SW 198 0 min 0,000 mm 0,0 UV-I 0 W/m -8,5 C -7,4 C 4,8 km/h (1 Bft) 100,00 %
15.12.2018 23:19 -7,4 C 3,9 C -9,4 C 93 % 1021,9 hPa 0,0 l/m 4,0 km/h (1 Bft) S-SW 198 0 min 0,000 mm 0,0 UV-I 0 W/m -8,3 C -7,4 C 6,4 km/h (2 Bft) 98,59 %
15.12.2018 23:20 -7,4 C 3,9 C -9,4 C 93 % 1021,9 hPa 0,0 l/m 3,4 km/h (1 Bft) S-SW 198 0 min 0,000 mm 0,0 UV-I 0 W/m -8,3 C -7,4 C 4,8 km/h (1 Bft) 100,00 %
15.12.2018 23:22 -7,3 C 3,9 C -10,0 C 93 % 1021,9 hPa 0,0 l/m 3,2 km/h (1 Bft) S-SW 198 0 min 0,000 mm 0,0 UV-I 0 W/m -8,2 C -7,3 C 4,8 km/h (1 Bft) 100,00 %
15.12.2018 23:24 -7,2 C 3,9 C -10,0 C 93 % 1021,9 hPa 0,0 l/m 2,4 km/h (1 Bft) S-SW 198 0 min 0,000 mm 0,0 UV-I 0 W/m -8,1 C -7,2 C 4,8 km/h (1 Bft) 100,00 %
15.12.2018 23:26 -7,2 C 3,9 C -10,6 C 93 % 1021,8 hPa 0,0 l/m 2,7 km/h (1 Bft) S-SW 198 0 min 0,000 mm 0,0 UV-I 0 W/m -8,1 C -7,2 C 4,8 km/h (1 Bft) 100,00 %
15.12.2018 23:29 -7,1 C 3,9 C -10,0 C 93 % 1021,9 hPa 0,0 l/m 3,7 km/h (1 Bft) S-SW 198 0 min 0,000 mm 0,0 UV-I 0 W/m -8,0 C -7,1 C 4,8 km/h (1 Bft) 100,00 %
15.12.2018 23:30 -7,1 C 3,9 C -9,4 C 93 % 1021,9 hPa 0,0 l/m 3,8 km/h (1 Bft) S-SW 198 0 min 0,000 mm 0,0 UV-I 0 W/m -8,0 C -7,1 C 4,8 km/h (1 Bft) 95,65 %
15.12.2018 23:32 -7,2 C 3,9 C -9,4 C 93 % 1021,8 hPa 0,0 l/m 3,2 km/h (1 Bft) S-SW 198 0 min 0,000 mm 0,0 UV-I 0 W/m -8,1 C -7,2 C 4,8 km/h (1 Bft) 100,00 %
15.12.2018 23:34 -7,1 C 3,9 C -9,4 C 93 % 1021,8 hPa 0,0 l/m 3,0 km/h (1 Bft) S-SW 198 0 min 0,000 mm 0,0 UV-I 0 W/m -8,0 C -7,1 C 4,8 km/h (1 Bft) 100,00 %
15.12.2018 23:36 -7,1 C 3,9 C -10,0 C 93 % 1021,8 hPa 0,0 l/m 2,5 km/h (1 Bft) S-SW 198 0 min 0,000 mm 0,0 UV-I 0 W/m -8,0 C -7,1 C 3,2 km/h (1 Bft) 97,87 %
15.12.2018 23:39 -7,1 C 3,9 C -10,0 C 93 % 1021,8 hPa 0,0 l/m 3,0 km/h (1 Bft) S-SW 198 0 min 0,000 mm 0,0 UV-I 0 W/m -8,0 C -7,1 C 3,2 km/h (1 Bft) 100,00 %
15.12.2018 23:40 -7,2 C 3,9 C -10,0 C 93 % 1021,8 hPa 0,0 l/m 3,1 km/h (1 Bft) S-SW 198 0 min 0,000 mm 0,0 UV-I 0 W/m -8,1 C -7,2 C 4,8 km/h (1 Bft) 100,00 %
15.12.2018 23:42 -7,3 C 3,9 C -10,0 C 92 % 1021,8 hPa 0,0 l/m 3,4 km/h (1 Bft) S-SW 198 0 min 0,000 mm 0,0 UV-I 0 W/m -8,4 C -7,3 C 4,8 km/h (1 Bft) 100,00 %
15.12.2018 23:44 -7,4 C 3,9 C -10,0 C 92 % 1021,7 hPa 0,0 l/m 3,3 km/h (1 Bft) S-SW 198 0 min 0,000 mm 0,0 UV-I 0 W/m -8,5 C -7,4 C 4,8 km/h (1 Bft) 100,00 %
15.12.2018 23:46 -7,4 C 3,9 C -10,0 C 92 % 1021,7 hPa 0,0 l/m 2,8 km/h (1 Bft) S-SW 198 0 min 0,000 mm 0,0 UV-I 0 W/m -8,5 C -7,4 C 3,2 km/h (1 Bft) 100,00 %
15.12.2018 23:49 -7,6 C 3,9 C -10,0 C 92 % 1021,7 hPa 0,0 l/m 1,3 km/h (1 Bft) S-SW 198 0 min 0,000 mm 0,0 UV-I 0 W/m -8,7 C -7,6 C 3,2 km/h (1 Bft) 100,00 %
15.12.2018 23:50 -7,5 C 3,9 C -10,6 C 92 % 1021,7 hPa 0,0 l/m 1,4 km/h (1 Bft) S-SW 198 0 min 0,000 mm 0,0 UV-I 0 W/m -8,6 C -7,5 C 3,2 km/h (1 Bft) 95,83 %
15.12.2018 23:52 -7,4 C 3,9 C -10,6 C 93 % 1021,6 hPa 0,0 l/m 1,8 km/h (1 Bft) S-SW 198 0 min 0,000 mm 0,0 UV-I 0 W/m -8,3 C -7,4 C 3,2 km/h (1 Bft) 100,00 %
15.12.2018 23:54 -7,3 C 3,9 C -10,6 C 93 % 1021,6 hPa 0,0 l/m 2,0 km/h (1 Bft) S-SW 198 0 min 0,000 mm 0,0 UV-I 0 W/m -8,2 C -7,3 C 3,2 km/h (1 Bft) 96,00 %
15.12.2018 23:56 -7,3 C 3,9 C -11,1 C 93 % 1021,5 hPa 0,0 l/m 2,5 km/h (1 Bft) S-SW 198 0 min 0,000 mm 0,0 UV-I 0 W/m -8,2 C -7,3 C 3,2 km/h (1 Bft) 97,87 %
15.12.2018 23:59 -7,4 C 3,9 C -11,1 C 93 % 1021,6 hPa 0,0 l/m 3,1 km/h (1 Bft) S-SW 198 0 min 0,000 mm 0,0 UV-I 0 W/m -8,3 C -7,4 C 4,8 km/h (1 Bft) 98,59 %
_ Min-Zeit 23:49 00:00 23:56 14:10 23:56 - 02:34 - - - - - - 23:49 11:00 02:34 06:36
Minimum _ -7,6 C 3,9 C -11,1 C 82 % 1021,5 hPa - 0,0 km/h (0 Bft) - - - - - - -8,7 C -8,6 C 0,0 km/h (0 Bft) 88,57 %
_ Max-Zeit 14:08 00:00 13:10 07:22 09:46 09:00 11:00 - - 08:00 13:00 00:00 12:54 12:54 14:10 12:38 00:48
Maximum _ -0,6 C 3,9 C 2,2 C 95 % 1026,0 hPa 0,2 l/m 12,9 km/h
SW (3 Bft)
- - 2 min 0,102 mm 0,0 UV-I 351 W/m -2,9 C -0,6 C 17,7 km/h
W-SW (3 Bft)
100,00 %
Durchschnitt _ -3,0 C 3,9 C -3,1 C 90 % 1024,4 hPa #0,4 l/m 4,3 km/h (1 Bft) SW - #4:42 h #0,381 mm 0,0 UV-I 132 W/m -4,4 C -3,3 C 6,7 km/h (2 Bft) 97,23 %